     2              OBSERVATION DATA    GPS                 RINEX VERSION / TYPE
teqc 1997Jul24 19970902 21:06:12UTC                         PGM / RUN BY / DATE
                                                            COMMENT
BIT 2 OF LLI FLAGS DATA COLLECTED UNDER A-S CONDITION       COMMENT
BIT 2 OF LLI FLAGS DATA COLLECTED UNDER A-S CONDITION       COMMENT
Original Marker Name: 55476.NIGU                            COMMENT
Campaign Name: Salt. Tr. Crust. Monit. May-Jun 1986         COMMENT
4-Character Station Name: NIGU                              COMMENT
6-Character Antenna Code: TI4100                            COMMENT
Vertical Measurement Point: PAE                             COMMENT
Vertical Offset to Rinex Ref. Point: 0.0000                 COMMENT
Radial Measurement Point: RRP                               COMMENT
Radial Offset to Rinex Ref. Point: 0.0000                   COMMENT
Antenna Height from Field Measurement: 1.5000 m             COMMENT
Original XYZ: -2224165.5819 -4232662.4369 3131575.0028      COMMENT
New XYZ position is based on association with SCEC monument COMMENT
E1D0D8E5+0011. Position of that monument is believed to be  COMMENT
valid to within 1 m horizontally; vertical accuracy         COMMENT
should be no worse than 3-times this value.                 COMMENT
                                                            COMMENT
Revised Rinex header created by UCSD GPS archive for        COMMENT
GSAC on 12-Apr-1999 (1999:102) 02:49:51 GMT                 COMMENT
For assistance contact dagnew@ucsd.edu or hjohnson@ucsd.edu COMMENT
                                                            COMMENT
NIGUEL A 1884 1981                                          MARKER NAME
5 NATIONAL GEODETIC SURVEY                                  OBSERVER / AGENCY
UT-18 TI 4100 1.0                                           REC # / TYPE / VERS
4014 TI 4100                                                ANT # / TYPE
 -2477021.0000 -4711974.0000  3501809.0000                  APPROX POSITION XYZ
        1.5000        0.0000        0.0000                  ANTENNA: DELTA H/E/N
     1     1     0                                          WAVELENGTH FACT L1/2
     4    P1    P2    L1    L2                              # / TYPES OF OBSERV
     6                                                      INTERVAL
  1986     6    17     2    47   29.000000                  TIME OF FIRST OBS
  1986     6    17     4    23    5.000000                  TIME OF LAST OBS
     0                                                      # OF SATELLITES
                                                            END OF HEADER
 86  6 17  2 47 29.0800000  0  4G12G13G 9G11
  20911574.756    20911578.624    10333373.206 9 -23593927.634 9
  20693625.292    20693628.856    34654966.065 9 -48742611.808 9
  21339803.271    21339805.244    68450982.518 8-105854311.437 8
  24478346.541    24478350.370    96001271.919 9 -84613957.867 9
 86  6 17  2 47 35.0800000  0  4G12G13G 9G11
  20910103.565    20910107.857    10325641.548 8 -23599952.304 9
  20694663.449    20694665.772    34660417.638 9 -48738363.835 9
  21343215.379    21343216.461    68468910.469 9-105840341.600 8
  24481427.653    24481433.235    96017464.923 9 -84601339.931 9
 86  6 17  2 47 41.0800000  0  4G12G13G 9G11
  20908636.793    20908639.716    10317933.280 9 -23605958.736 9
  20695703.017    20695706.118    34665879.861 9 -48734107.560 8
  21346631.089    21346634.231    68486857.010 9-105826357.289 8
  24484509.166    24484514.214    96033655.222 8 -84588724.127 9
 86  6 17  2 47 47.0800000  0  4G12G13G 9G11
  20907175.114    20907177.583    10310248.343 9 -23611947.004 9
  20696744.894    20696747.279    34671352.689 9 -48729843.019 8
  21350048.917    21350051.810    68504822.067 8-105812358.544 9
  24487590.268    24487593.819    96049842.796 8 -84576110.437 8
 86  6 17  2 47 53.0800000  0  4G12G13G 9G11
  20905716.750    20905719.765    10302586.752 9 -23617917.078 9
  20697788.436    20697790.082    34676836.106 9 -48725570.232 9
  21353470.949    21353474.091    68522805.609 9-105798345.416 8
  24490669.102    24490674.188    96066027.631 9 -84563498.877 8
 86  6 17  2 47 59.0800000  0  4G12G13G 9G11
  20904264.024    20904265.831    10294948.533 9 -23623868.931 9
  20698833.149    20698835.896    34682330.132 9 -48721289.178 9
  21356895.841    21356899.308    68540807.683 9-105784317.841 9
  24493748.262    24493753.892    96082209.656 9 -84550889.511 8
 86  6 17  2 48  5.0800000  0  4G12G13G 9G11
  20902814.571    20902816.885    10287333.704 9 -23629802.565 9
  20699881.841    20699882.359    34687834.731 9 -48716999.877 9
  21360325.823    21360327.813    68558828.366 9-105770275.751 8
  24496827.737    24496831.933    96098388.936 9 -84538282.272 9
 86  6 17  2 48 11.0800000  0  4G12G13G 9G11
  20901369.274    20901372.215    10279742.278 9 -23635717.959 9
  20700930.991    20700932.795    34693349.994 9 -48712702.273 8
  21363758.558    21363760.666    68576867.378 9-105756219.380 8
  24499905.907    24499910.164    96114565.454 9 -84525677.204 9
 86  6 17  2 48 17.0800000  0  4G12G13G 9G11
  20899929.449    20899932.192    10272174.178 9 -23641615.179 8
  20701982.171    20701983.972    34698875.773 9 -48708396.465 8
  21367194.653    21367197.450    68594924.784 9-105742148.673 7
  24502983.928    24502988.679    96130739.123 9 -84513074.343 8
 86  6 17  2 48 23.0800000  0  4G12G13G 9G11
  20898493.247    20898497.146    10264629.461 9 -23647494.180 9
  20703036.273    20703037.250    34704412.118 9 -48704082.434 8
  21370633.187    21370637.769    68613000.570 9-105728063.674 8
  24506061.753    24506065.190    96146910.037 9 -84500473.624 9
 86  6 17  2 48 29.0800000  0  4G12G13G 9G11
  20897062.934    20897064.161    10257108.201 9 -23653354.907 8
  20704092.087    20704092.554    34709959.063 9 -48699760.145 9
  21374076.829    21374081.050    68631094.760 9-105713964.301 8
  24509136.987    24509141.724    96163078.190 9 -84487875.071 9
 86  6 17  2 48 35.0800000  0  4G12G13G 9G11
  20895635.392    20895638.956    10249610.442 9 -23659197.308 9
  20705148.624    20705149.798    34715516.553 9 -48695429.635 9
  21377524.514    21377527.578    68649207.370 8-105699850.599 9
  24512214.016    24512218.442    96179243.501 8 -84475278.721 8
 86  6 17  2 48 41.0800000  0  4G12G13G 9G11
  20894212.491    20894215.621    10242136.210 9 -23665021.386 9
  20706208.245    20706209.623    34721084.493 9 -48691090.975 9
  21380974.243    21380977.697    68667338.264 9-105685722.614 8
  24515290.570    24515294.333    96195406.040 9 -84462684.535 9
 86  6 17  2 48 47.0800000  0  4G12G13G 9G11
  20892795.767    20892798.988    10234685.473 9 -23670827.153 9
  20707270.502    20707271.951    34726662.868 9 -48686744.190 8
  21384427.431    21384431.936    68685487.418 9-105671580.432 8
  24518365.058    24518368.736    96211565.825 9 -84450092.494 9
 86  6 17  2 48 53.0800000  0  4G12G13G 9G11
  20891382.098    20891384.727    10227258.227 8 -23676614.621 8
  20708333.020    20708334.649    34732251.700 9 -48682389.270 8
  21387884.572    21387888.789    68703654.938 8-105657423.930 8
  24521438.329    24521443.123    96227722.771 9 -84437502.667 8
 86  6 17  2 48 59.0800000  0  4G12G13G 9G11
  20889973.233    20889975.392    10219854.536 9 -23682383.721 9
  20709398.993    20709401.702    34737851.001 9 -48678026.178 8
  21391344.957    21391348.523    68721840.687 9-105643253.228 8
  24524513.978    24524517.959    96243876.875 9 -84424915.047 9
 86  6 17  2 49  5.0800000  0  4G12G13G 9G11
  20888568.888    20888572.141    10212474.454 9 -23688134.435 9
  20710466.346    20710469.236    34743460.706 9 -48673654.989 8
  21394809.217    21394812.541    68740044.748 9-105629068.253 8
  24527587.834    24527591.071    96260028.129 9 -84412329.670 9
 86  6 17  2 49 11.0800000  0  4G12G13G 9G11
  20887169.266    20887172.238    10205117.907 9 -23693866.809 8
  20711535.786    20711536.890    34749080.740 9 -48669275.742 9
  21398277.706    21398281.063    68758267.051 8-105614869.056 9
  24530659.051    24530664.854    96276176.519 8 -84399746.506 8
 86  6 17  2 49 17.0800000  0  4G12G13G 9G11
  20885774.131    20885776.883    10197784.910 9 -23699580.833 9
  20712607.199    20712609.177    34754711.135 9 -48664888.424 9
  21401747.198    21401752.194    68776507.579 9-105600655.675 8
  24533732.837    24533736.465    96292322.101 8 -84387165.531 8
 86  6 17  2 49 23.0800000  0  4G12G13G 9G11
  20884383.043    20884384.867    10190475.560 9 -23705276.427 9
  20713679.990    20713682.136    34760351.941 9 -48660492.995 9
  21405222.314    21405226.047    68794766.291 9-105586428.113 9
  24536803.963    24536808.350    96308464.871 8 -84374586.755 8
 86  6 17  2 49 29.0800000  0  4G12G13G 9G11
  20882996.190    20882998.061    10183189.810 9 -23710953.642 8
  20714755.496    20714758.059    34766003.101 9 -48656089.498 9
  21408700.207    21408704.593    68813043.143 8-105572186.411 9
  24539875.185    24539879.767    96324604.756 9 -84362010.213 8
 86  6 17  2 49 35.0800000  0  4G12G13G 9G11
  20881614.540    20881617.641    10175927.693 9 -23716612.430 9
  20715832.752    20715835.768    34771664.625 9 -48651677.920 9
  21412181.699    21412185.705    68831338.193 9-105557930.533 8
  24542946.114    24542950.497    96340741.779 8 -84349435.922 8
 86  6 17  2 49 41.0800000  0  4G12G13G 9G11
  20880236.371    20880239.234    10168689.149 9 -23722252.846 9
  20716912.209    20716914.141    34777336.485 9 -48647258.292 8
  21415667.005    21415670.558    68849651.219 9-105543660.660 8
  24546015.774    24546020.207    96356875.893 9 -84336863.883 9
 86  6 17  2 49 47.0800000  0  4G12G13G 9G11
  20878863.552    20878866.736    10161474.234 9 -23727874.863 9
  20717993.526    20717996.054    34783018.694 9 -48642830.596 9
  21419154.740    21419157.878    68867982.385 9-105529376.629 9
  24549085.935    24549089.433    96373007.162 8 -84324294.071 8
 86  6 17  2 49 53.0800000  0  4G12G13G 9G11
  20877495.364    20877497.601    10154283.045 9 -23733478.389 9
  20719076.238    20719078.563    34788711.226 9 -48638394.863 8
  21422648.112    21422649.866    68886331.607 9-105515078.552 8
  24552154.434    24552159.912    96389135.542 8 -84311726.509 9
 86  6 17  2 49 59.0800000  0  4G12G13G 9G11
  20876130.960    20876134.310    10147115.489 9 -23739063.499 9
  20720161.793    20720164.042    34794413.992 9 -48633951.153 8
  21426142.522    21426145.678    68904698.862 9-105500766.409 9
  24555223.256    24555227.368    96405261.021 9 -84299161.211 8
 86  6 17  2 50  5.0800000  0  4G12G13G 9G11
  20874771.667    20874775.512    10139971.675 9 -23744630.108 9
  20721248.950    20721251.554    34800127.026 9 -48629499.436 8
  21429641.001    21429644.487    68923084.191 8-105486440.181 9
  24558292.039    24558296.435    96421383.591 8 -84286598.165 8
 86  6 17  2 50 11.0800000  0  4G12G13G 9G11
  20873417.388    20873419.693    10132851.537 9 -23750178.269 9
  20722338.250    20722341.072    34805850.399 9 -48625039.664 9
  21433143.046    21433147.147    68941487.497 9-105472099.961 8
  24561359.051    24561364.014    96437503.252 9 -84274037.387 8
 86  6 17  2 50 17.0800000  0  4G12G13G 9G11
  20872065.581    20872069.431    10125755.070 9 -23755707.986 9
  20723429.353    20723431.030    34811584.047 9 -48620571.889 8
  21436648.109    21436652.442    68959908.680 9-105457745.785 8
  24564426.684    24564430.016    96453620.037 8 -84261478.859 9
 86  6 17  2 50 23.0800000  0  4G12G13G 9G11
  20870720.671    20870723.930    10118682.331 9 -23761219.209 8
  20724522.804    20724524.525    34817327.885 9 -48616096.181 8
  21440157.132    21440161.849    68978347.865 9-105443377.599 8
  24567491.991    24567496.454    96469733.925 9 -84248922.583 8
 86  6 17  2 50 29.0800000  0  4G12G13G 9G11
  20869379.522    20869382.180    10111633.323 9 -23766711.935 8
  20725617.340    20725619.435    34823081.856 9 -48611612.564 9
  21443669.348    21443673.208    68996805.014 9-105428995.414 9
  24570558.290    24570562.748    96485844.915 9 -84236368.558 9
 86  6 17  2 50 35.0800000  0  4G12G13G 9G11
  20868041.739    20868044.662    10104608.086 9 -23772186.152 9
  20726714.514    20726717.606    34828845.964 9 -48607121.057 9
  21447185.292    21447188.865    69015280.059 9-105414599.285 8
  24573623.844    24573627.332    96501953.009 9 -84223816.793 9
 86  6 17  2 50 41.0800000  0  4G12G13G 9G11
  20866709.977    20866712.474    10097606.653 9 -23777641.809 8
  20727813.745    20727815.335    34834620.266 9 -48602621.596 9
  21450704.242    21450707.981    69033773.032 9-105400189.179 8
  24576688.022    24576693.407    96518058.148 8 -84211267.342 8
 86  6 17  2 50 47.0800000  0  4G12G13G 9G11
  20865383.068    20865385.986    10090629.051 9 -23783078.910 9
  20728914.922    20728915.586    34840404.736 8 -48598114.228 8
  21454225.906    21454229.856    69052283.859 8-105385765.169 9
  24579753.421    24579756.576    96534160.341 9 -84198720.182 8
 86  6 17  2 50 53.0800000  0  4G12G13G 9G11
  20864059.937    20864061.930    10083675.287 9 -23788497.412 9
  20730016.244    20730019.308    34846199.367 9 -48593598.919 8
  21457753.126    21457755.823    69070812.555 9-105371327.226 9
  24582817.148    24582820.972    96550259.542 8 -84186175.337 8
 86  6 17  2 50 59.0800000  0  4G12G13G 9G11
  20862741.081    20862742.680    10076745.350 9 -23793897.370 9
  20731121.772    20731122.833    34852004.163 9 -48589075.700 9
  21461282.279    21461285.881    69089359.034 9-105356875.421 9
  24585880.112    24585883.149    96566355.831 9 -84173632.767 8
 86  6 17  2 51  5.0800000  0  4G12G13G 9G11
  20861427.074    20861429.571    10069839.253 9 -23799278.743 9
  20732228.500    20732230.408    34857819.085 9 -48584544.601 9
  21464815.254    21464818.332    69107923.313 9-105342409.763 9
  24588942.206    24588945.433    96582449.129 9 -84161092.543 8
 86  6 17  2 51 11.0800000  0  4G12G13G 9G11
  20860116.775    20860119.782    10062957.036 9 -23804641.503 9
  20733336.605    20733338.412    34863644.084 9 -48580005.639 9
  21468351.243    21468354.690    69126505.382 8-105327930.241 9
  24592002.823    24592007.677    96598539.507 8 -84148554.580 9
 86  6 17  2 51 17.0800000  0  4G12G13G 9G11
  20858812.452    20858814.774    10056098.648 9 -23809985.714 8
  20734447.658    20734448.363    34869479.215 9 -48575458.781 9
  21471890.536    21471893.200    69145105.232 9-105313436.855 9
  24595065.766    24595069.141    96614626.924 8 -84136018.940 9
 86  6 17  2 51 23.0800000  0  4G12G13G 9G11
  20857511.541    20857513.903    10049264.134 9 -23815311.302 9
  20735560.109    20735561.056    34875324.321 9 -48570904.151 9
  21475433.901    21475435.487    69163722.663 9-105298929.780 8
  24598125.685    24598128.844    96630711.326 8 -84123485.630 8
 86  6 17  2 51 29.0800000  0  4G12G13G 9G11
  20856215.460    20856219.079    10042453.523 9 -23820618.276 9
  20736672.908    20736675.582    34881179.505 9 -48566341.672 9
  21478980.067    21478981.601    69182357.868 9-105284408.841 9
  24601185.489    24601190.324    96646792.754 9 -84110954.654 9
 86  6 17  2 51 35.0800000  0  4G12G13G 9G11
  20854923.809    20854926.055    10035666.830 9 -23825906.620 8
  20737789.482    20737791.076    34887044.723 9 -48561771.381 9
  21482529.847    21482532.125    69201010.763 9-105269874.138 9
  24604245.461    24604249.560    96662871.204 8 -84098425.972 7
 86  6 17  2 51 41.0800000  0  4G12G13G 9G11
  20853636.851    20853639.234    10028904.039 9 -23831176.321 8
  20738908.120    20738908.793    34892919.982 9 -48557193.253 8
  21486081.666    21486084.716    69219681.278 9-105255325.677 9
  24607305.258    24607308.798    96678946.679 8 -84085899.646 9
 86  6 17  2 51 47.0800000  0  4G12G13G 9G11
  20852353.849    20852357.285    10022165.243 9 -23836427.342 8
  20740026.982    20740029.658    34898805.310 9 -48552607.276 9
  21489638.689    21489640.986    69238369.445 9-105240763.490 8
  24610362.154    24610367.229    96695019.142 8 -84073375.639 9
 86  6 17  2 51 53.0800000  0  4G12G13G 9G11
  20851076.668    20851078.890    10015450.304 9 -23841659.754 9
  20741149.139    20741151.252    34904700.650 9 -48548013.508 9
  21493198.933    21493200.468    69257075.283 9-105226187.513 9
  24613421.464    24613424.741    96711088.641 9 -84060853.963 9
 86  6 17  2 51 59.0800000  0  4G12G13G 9G11
  20849802.692    20849805.664    10008759.393 9 -23846873.461 9
  20742272.067    20742274.702    34910605.927 9 -48543412.004 8
  21496761.918    21496762.520    69275798.715 9-105211597.846 7
  24616478.962    24616483.041    96727155.159 8 -84048334.591 8
 86  6 17  2 52  5.0800000  0  4G12G13G 9G11
  20848534.274    20848536.820    10002092.502 9 -23852068.441 8
  20743398.141    20743400.199    34916521.143 9 -48538802.741 9
  21500327.447    21500330.633    69294539.659 8-105196994.503 9
  24619536.113    24619539.177    96743218.652 9 -84035817.585 9
 86  6 17  2 52 11.0800000  0  4G12G13G 9G11
  20847269.982    20847273.778     9995449.629 9 -23857244.706 9
  20744525.389    20744528.397    34922446.355 9 -48534185.703 9
  21503896.355    21503898.238    69313298.211 9-105182377.462 9
  24622591.014    24622595.839    96759279.073 9 -84023302.971 9
 86  6 17  2 52 17.0800000  0  4G12G13G 9G11
  20846011.024    20846013.982     9988830.756 9 -23862402.264 8
  20745654.620    20745658.146    34928381.478 9 -48529560.925 8
  21507470.250    21507472.654    69332074.144 9-105167746.874 8
  24625646.414    24625651.841    96775336.456 9 -84010790.737 8
 86  6 17  2 52 23.0800000  0  4G12G13G 9G11
  20844756.309    20844758.273     9982235.931 9 -23867541.102 9
  20746785.670    20746788.791    34934326.495 9 -48524928.447 8
  21511046.163    21511048.755    69350867.662 9-105153102.571 8
  24628701.123    24628706.437    96791390.818 8 -83998280.845 8
 86  6 17  2 52 29.0800000  0  4G12G13G 9G11
  20843505.571    20843508.074     9975665.089 9 -23872661.238 8
  20747919.129    20747921.838    34940281.427 9 -48520288.245 8
  21514625.431    21514627.671    69369678.692 9-105138444.632 9
  24631756.072    24631761.335    96807442.127 9 -83985773.329 9
 86  6 17  2 52 35.0800000  0  3G12G13G 9
  20842260.196    20842263.016     9969118.390 9 -23877762.566 9
  20749053.594    20749058.209    34946246.355 1 -48515640.277 1
  21518209.191    21518210.808    69388507.293 9-105123773.014 8
 86  6 17  2 52 41.0800000  0  3G12G13G 9
  20841019.023    20841022.017     9962595.676 9 -23882845.198 8
  20750190.380    20750193.624    34952221.099 1 -48510984.599 1
  21521795.181    21521797.027    69407353.209 9-105109087.896 9
 86  6 17  2 52 47.0800000  0  3G12G13G 9
  20839782.256    20839784.435     9956097.072 9 -23887909.051 9
  20751332.880    20751334.006    34958205.697 1 -48506321.289 1
  21525384.179    21525386.421    69426216.438 8-105094389.275 9
 86  6 17  2 52 53.0800000  0  3G12G13G 9
  20838550.475    20838551.058     9949622.696 9 -23892954.020 9
  20752472.043    20752471.902    34964200.277 1 -48501650.179 1
  21528977.697    21528980.816    69445097.144 9-105079677.045 8
 86  6 17  2 52 59.0800000  0  3G12G13G 9
  20837322.901    20837324.671     9943172.323 9 -23897980.284 8
  20753613.115    20753614.615    34970204.563 1 -48496971.520 1
  21532573.218    21532576.582    69463995.156 9-105064951.328 8
 86  6 17  2 53  5.0800000  0  3G12G13G 9
  20836099.991    20836102.310     9936745.903 9 -23902987.887 8
  20754757.021    20754761.532    34976218.585 1 -48492285.282 1
  21536173.548    21536175.670    69482910.405 9-105050212.188 8
 86  6 17  2 53 11.0800000  0  3G12G13G 9
  20834880.631    20834883.783     9930343.709 9 -23907976.609 8
  20755901.877    20755906.674    34982242.388 1 -48487591.377 1
  21539775.977    21539779.822    69501843.167 9-105035459.385 8
 86  6 17  2 53 17.0800000  0  3G12G13G 9
  20833668.121    20833669.722     9923965.749 9 -23912946.440 8
  20757054.541    20757057.143    34988276.023 1 -48482889.865 1
  21543381.059    21543384.498    69520793.286 9-105020693.075 8
 86  6 17  2 53 23.0800000  0  3G12G13G 9
  20832459.292    20832460.747     9917611.826 9 -23917897.564 8
  20758201.106    20758201.051    34994319.210 1 -48478180.882 1
  21546991.374    21546993.582    69539760.481 8-105005913.442 8
 86  6 17  2 53 29.0800000  0  3G12G13G 9
  20831254.767    20831256.659     9911282.075 9 -23922829.833 9
  20759354.913    20759356.504    35000372.147 7 -48473464.301 7
  21550604.474    21550606.417    69558744.931 9-104991120.372 8
 86  6 17  2 53 35.0800000  0  3G12G13G 9
  20830054.649    20830056.668     9904976.673 9 -23927743.131 9
  20760508.463    20760510.006    35006435.051 9 -48468739.962 8
  21554220.676    21554222.172    69577746.671 9-104976313.825 8
 86  6 17  2 53 41.0800000  0  3G12G13G 9
  20828859.631    20828861.734     9898695.420 9 -23932637.631 8
  20761663.686    20761666.647    35012507.612 9 -48464008.104 9
  21557839.905    21557841.342    69596765.504 9-104961493.967 8
 86  6 17  2 53 47.0800000  0  3G12G13G 9
  20827668.448    20827671.225     9892438.316 9 -23937513.292 9
  20762821.118    20762822.706    35018589.799 9 -48459268.736 9
  21561461.052    21561464.003    69615801.449 9-104946660.772 9
 86  6 17  2 53 53.0800000  0  3G12G13G 9
  20826482.822    20826485.171     9886205.624 9 -23942369.943 9
  20763981.324    20763982.326    35024681.823 9 -48454521.705 9
  21565087.130    21565089.212    69634854.677 9-104931814.114 9
 86  6 17  2 53 59.0800000  0  3G12G13G 9
  20825300.723    20825303.646     9879997.185 9 -23947207.702 8
  20765142.282    20765144.439    35030783.540 9 -48449767.122 9
  21568716.959    21568718.879    69653925.079 9-104916954.070 8
 86  6 17  2 54  5.0800000  0  3G12G13G 9
  20824123.426    20824126.841     9873812.810 9 -23952026.692 9
  20766303.587    20766307.139    35036894.746 9 -48445005.139 9
  21572348.923    21572350.669    69673012.452 9-104902080.804 9
 86  6 17  2 54 11.0800000  0  3G12G13G 9
  20822950.799    20822955.279     9867652.730 9 -23956826.763 8
  20767468.503    20767471.143    35043015.714 9 -48440235.552 8
  21575983.622    21575985.376    69692116.986 9-104887194.157 9
 86  6 17  2 54 17.0800000  0  3G12G13G 9
  20821783.427    20821787.586     9861516.941 9 -23961607.895 9
  20768636.758    20768637.725    35049146.347 1 -48435458.437 1
  21579622.245    21579624.527    69711238.467 9-104872294.307 8
 86  6 17  2 54 23.0800000  0  3G12G13G 9
  20820620.641    20820624.762     9855405.405 9 -23966370.132 9
                  20769805.240    35055285.336 7
  21583264.597    21583267.540    69730377.000 8-104857381.183 8
 86  6 17  2 54 29.0800000  0  3G12G13G 9
  20819462.023    20819465.143     9849318.344 9 -23971113.301 9
                  20770972.026    35061435.919 1
  21586910.400    21586912.738    69749532.684 9-104842454.701 8
 86  6 17  2 54 35.0800000  0  3G12G13G 9
  20818308.511    20818311.762     9843255.597 9 -23975837.512 9
                  20772147.483    35067600.212 6
  21590557.739    21590560.306    69768705.395 9-104827514.925 9
 86  6 17  2 54 41.0800000  0  3G12G13G 9
  20817159.956    20817162.791     9837217.122 9 -23980542.825 9
                  20773319.204    35073784.378 1
  21594209.593    21594211.396    69787894.883 9-104812562.086 8
 86  6 17  2 54 47.0800000  0  3G12G13G 9
  20816015.115    20816018.912     9831203.237 9 -23985228.978 8
  20774495.191    20774509.667    35079963.531 1 -48249619.986 1
  21597864.790    21597865.997    69807101.449 9-104797595.937 9
 86  6 17  2 54 53.0800000  0  3G12G13G 9
  20814874.876    20814878.405     9825213.583 9 -23989896.244 9
  20775675.054    20775677.198    35086151.629 1 -48244798.243 1
  21601522.162    21601526.333    69826324.840 9-104782616.681 7
 86  6 17  2 54 59.0800000  0  3G12G13G 9
  20813740.256    20813743.288     9819248.213 9 -23994544.581 8
  20776853.253    20776857.157    35092349.142 1 -48239968.506 1
  21605184.039    21605186.839    69845565.142 9-104767624.245 9
 86  6 17  2 55  5.0800000  0  3G12G13G 9
  20812610.252    20812612.604     9813307.362 9 -23999173.824 8
  20778034.974    20778036.671    35098556.251 9 -48235131.812 8
  21608848.469    21608852.027    69864822.458 9-104752618.556 8
 86  6 17  2 55 11.0800000  0  3G12G13G 9
  20811485.220    20811485.864     9807390.878 9 -24003784.080 8
  20779217.938    20779220.270    35104772.843 9 -48230287.713 9
  21612515.942    21612518.226    69884096.627 9-104737599.724 8
 86  6 17  2 55 17.0800000  0  3G12G13G 9
  20810363.423    20810365.509     9801498.710 9 -24008375.379 9
  20780402.682    20780405.249    35110998.832 9 -48225436.302 8
  21616187.338    21616190.287    69903387.344 9-104722568.015 9
 86  6 17  2 55 23.0800000  0  3G12G13G 9
  20809246.320    20809249.348     9795630.974 9 -24012947.645 9
  20781589.590    20781591.255    35117234.429 9 -48220577.393 9
  21619861.420    21619864.074    69922694.960 9-104707523.129 9
 86  6 17  2 55 29.0800000  0  3G12G13G 9
  20808134.702    20808136.253     9789787.829 9 -24017500.747 9
  20782777.579    20782779.937    35123479.515 9 -48215711.096 8
  21623539.197    21623541.449    69942019.458 9-104692465.079 8
 86  6 17  2 55 35.0800000  0  3G12G13G 9
  20807027.343    20807029.144     9783968.962 9 -24022034.927 9
  20783967.588    20783971.091    35129733.940 9 -48210837.516 8
  21627218.314    21627220.999    69961360.524 9-104677394.126 9
 86  6 17  2 55 41.0800000  0  3G12G13G 9
  20805924.250    20805926.366     9778174.474 9 -24026550.122 8
  20785159.201    20785162.504    35135997.731 9 -48205956.637 8
  21630903.446    21630906.522    69980718.320 9-104662310.139 8
 86  6 17  2 55 47.0800000  0  3G12G13G 9
  20804826.672    20804829.681     9772404.650 9 -24031046.091 8
  20786353.196    20786355.671    35142271.058 9 -48201068.332 8
  21634589.175    21634593.106    70000092.938 9-104647213.057 8
 86  6 17  2 55 53.0800000  0  3G12G13G 9
  20803733.032    20803736.285     9766659.291 9 -24035522.998 9
  20787549.353    20787551.212    35148553.726 9 -48196172.746 8
  21638279.729    21638282.193    70019484.220 9-104632102.974 9
 86  6 17  2 55 59.0800000  0  3G12G13G 9
  20802644.606    20802646.324     9760938.296 9 -24039980.911 9
  20788746.309    20788748.892    35154845.618 9 -48191269.966 8
  21641973.229    21641974.499    70038892.051 9-104616979.984 8
 86  6 17  2 56  5.0800000  0  3G12G13G 9
  20801560.713    20801563.086     9755241.896 9 -24044419.669 7
  20789945.409    20789948.287    35161146.966 9 -48186359.833 9
  21645668.664    21645671.630    70058316.575 9-104601844.005 8
 86  6 17  2 56 11.0800000  0  3G12G13G 9
  20800480.600    20800483.309     9749570.025 9 -24048839.313 8
  20791147.158    20791148.851    35167457.638 8 -48181442.423 9
  21649369.413    21649370.380    70077757.750 9-104586695.049 8
 86  6 17  2 56 17.0800000  0  3G12G13G 9
  20799407.236    20799408.068     9743922.610 9 -24053239.893 9
  20792349.486    20792350.155    35173777.504 9 -48176517.856 8
  21653071.422    21653074.206    70097215.409 9-104571533.238 8
 86  6 17  2 56 23.0800000  0  3G12G13G 9
  20798336.257    20798338.786     9738299.757 9 -24057621.336 9
  20793553.644    20793555.130    35180106.695 9 -48171586.022 9
  21656776.722    21656779.511    70116689.693 9-104556358.480 7
 86  6 17  2 56 29.0800000  0  3G12G13G 9
  20797272.091    20797273.379     9732701.617 9 -24061983.530 9
  20794759.955    20794762.138    35186445.315 9 -48166646.833 8
  21660486.445    21660489.552    70136180.708 9-104541170.691 8
 86  6 17  2 56 35.0800000  0  3G12G13G 9
  20796210.140    20796213.374     9727128.036 9 -24066326.586 9
  20795968.330    20795969.559    35192793.216 9 -48161700.420 9
  21664198.524    21664200.898    70155688.086 8-104525970.150 8
 86  6 17  2 56 41.0800000  0  3G12G13G 9
  20795154.884    20795157.704     9721578.942 9 -24070650.560 8
  20797177.408    20797179.382    35199150.282 9 -48156746.855 9
  21667913.623    21667915.979    70175211.883 9-104510756.814 8
 86  6 17  2 56 47.0800000  0  3G12G13G 9
  20794103.473    20794105.866     9716054.553 9 -24074955.290 9
  20798389.323    20798390.949    35205516.758 9 -48151785.977 9
  21671631.720    21671635.045    70194752.280 9-104495530.541 8
 86  6 17  2 56 53.0800000  0  3G12G13G 9
  20793056.311    20793059.517     9710554.827 9 -24079240.776 9
  20799601.624    20799604.959    35211892.429 9 -48146817.909 9
  21675353.639    21675355.713    70214309.028 9-104480291.526 8
 86  6 17  2 56 59.0800000  0  3G12G13G 9
  20792014.830    20792018.005     9705079.577 9 -24083507.209 8
  20800816.506    20800818.179    35218277.166 9 -48141842.795 9
  21679078.096    21679080.604    70233882.106 9-104465039.789 8
 86  6 17  2 57  5.0800000  0  3G12G13G 9
  20790977.658    20790979.903     9699629.050 9 -24087754.380 8
  20802033.271    20802035.853    35224671.246 9 -48136860.396 9
  21682805.212    21682808.999    70253471.628 8-104449775.230 9
 86  6 17  2 57 11.0800000  0  3G12G13G 9
  20789944.945    20789948.175     9694203.267 9 -24091982.272 9
  20803251.852    20803254.303    35231074.636 9 -48131870.747 9
  21686537.089    21686540.690    70273077.653 9-104434497.821 8
 86  6 17  2 57 17.0800000  0  3G12G13G 9
  20788917.561    20788920.459     9688802.039 9 -24096191.026 8
  20804472.463    20804474.168    35237487.071 9 -48126874.039 9
  21690270.338    21690275.095    70292699.901 9-104419207.786 9
 86  6 17  2 57 23.0800000  0  3G12G13G 9
  20787894.145    20787897.185     9683425.470 9 -24100380.561 8
  20805693.978    20805696.879    35243908.556 9 -48121870.284 9
  21694007.772    21694010.157    70312338.398 9-104403905.058 8
 86  6 17  2 57 29.0800000  0  3G12G13G 9
  20786875.175    20786878.992     9678073.713 9 -24104550.765 9
  20806917.815    20806920.047    35250339.322 9 -48116859.307 9
  21697748.032    21697750.972    70331993.341 8-104388589.534 9
 86  6 17  2 57 35.0800000  0  3G12G13G 9
  20785861.511    20785864.616     9672746.601 9 -24108701.759 9
  20808143.618    20808145.070    35256779.086 9 -48111841.309 8
  21701490.322    21701494.865    70351664.585 9-104373261.303 8
 86  6 17  2 57 41.0800000  0  3G12G13G 9
  20784852.137    20784855.593     9667444.142 9 -24112833.545 8
  20809370.952    20809372.899    35263227.839 9 -48106816.306 8
  21705237.752    21705240.181    70371351.916 9-104357920.531 8
 86  6 17  2 57 47.0800000  0  3G12G13G 9
  20783847.915    20783851.688     9662166.532 9 -24116945.976 9
  20810600.871    20810601.468    35269685.804 9 -48101784.125 9
  21708987.302    21708990.923    70391055.549 9-104342567.061 8
 86  6 17  2 57 53.0800000  0  3G12G13G 9
  20782849.266    20782853.289     9656913.719 8 -24121039.080 9
  20811829.895    20811831.772    35276152.918 9 -48096744.813 9
  21712739.449    21712744.121    70410775.513 8-104327200.863 8
 86  6 17  2 57 59.0800000  0  3G12G13G 9
  20781853.296    20781856.800     9651685.563 9 -24125112.964 9
  20813062.967    20813064.700    35282629.058 9 -48091698.478 9
  21716494.838    21716499.070    70430511.359 9-104311822.292 9
 86  6 17  2 58  5.0800000  0  3G12G13G 9
  20780863.736    20780867.799     9646482.148 9 -24129167.587 8
  20814296.332    20814298.011    35289114.244 9 -48086645.077 9
  21720254.095    21720257.053    70450263.431 9-104296431.073 9
 86  6 17  2 58 11.0800000  0  3G12G13G 9
  20779878.395    20779881.669     9641303.612 9 -24133202.799 8
  20815532.974    20815534.647    35295608.571 9 -48081584.557 8
  21724016.812    21724018.717    70470031.794 9-104281027.157 8
 86  6 17  2 58 17.0800000  0  3G12G13G 9
  20778897.914    20778901.403     9636149.825 9 -24137218.744 9
  20816770.053    20816772.242    35302111.779 9 -48076517.122 9
  21727781.065    21727783.849    70489816.229 9-104265610.729 9
 86  6 17  2 58 23.0800000  0  3G12G13G 9
  20777921.896    20777924.176     9631020.718 9 -24141215.444 8
  20818008.542    20818011.168    35308623.900 9 -48071442.753 9
  21731548.872    21731551.899    70509616.636 9-104250181.847 8
 86  6 17  2 58 29.0800000  0  3G12G13G 9
  20776950.680    20776953.009     9625916.554 9 -24145192.728 9
  20819250.163    20819252.612    35315145.198 9 -48066361.218 8
  21735320.550    21735322.904    70529433.240 9-104234740.352 8
 86  6 17  2 58 35.0800000  0  3G12G13G 9
  20775984.187    20775987.060     9620837.138 9 -24149150.708 9
  20820493.193    20820495.396    35321675.559 9 -48061272.626 9
  21739094.562    21739097.141    70549265.907 9-104219286.335 8
 86  6 17  2 58 41.0800000  0  3G12G13G 9
  20775022.586    20775024.321     9615782.457 9 -24153089.412 9
  20821737.645    20821740.314    35328214.754 9 -48056177.153 9
  21742871.081    21742874.522    70569114.378 9-104203820.012 8
 86  6 17  2 58 47.0800000  0  3G12G13G 9
  20774064.783    20774069.059     9610752.724 9 -24157008.686 8
  20822984.017    20822986.491    35334762.872 9 -48051074.722 8
  21746651.933    21746654.151    70588978.836 9-104188341.207 8
 86  6 17  2 58 53.0800000  0  3G12G13G 9
  20773113.202    20773115.845     9605747.889 9 -24160908.559 8
  20824231.961    20824233.689    35341320.007 9 -48045965.263 9
  21750434.302    21750437.170    70608859.389 9-104172849.881 8
 86  6 17  2 58 59.0800000  0  3G12G13G 9
  20772165.588    20772167.317     9600767.806 9 -24164789.141 9
  20825481.658    20825482.863    35347885.978 9 -48040848.927 9
  21754220.294    21754223.846    70628755.800 9-104157346.192 9
 86  6 17  2 59  5.0800000  0  3G12G13G 9
  20771222.471    20771225.288     9595812.532 8 -24168650.402 8
  20826732.481    20826733.735    35354460.763 9 -48035725.712 8
  21758010.526    21758012.308    70648668.024 9-104141830.183 9
 86  6 17  2 59 11.0800000  0  3G12G13G 9
  20770284.574    20770286.601     9590882.293 9 -24172492.149 8
  20827984.461    20827987.191    35361044.627 9 -48030595.430 9
  21761801.753    21761805.519    70668596.247 8-104126301.706 8
 86  6 17  2 59 17.0800000  0  3G12G13G 9
  20769350.759    20769352.756     9585976.912 9 -24176314.522 8
  20829239.689    20829242.727    35367637.393 9 -48025458.217 9
  21765597.537    21765598.172    70688540.330 9-104110760.877 8
 86  6 17  2 59 23.0800000  0  3G12G13G 9
  20768422.035    20768424.647     9581096.337 9 -24180117.563 8
  20830495.338    20830497.576    35374238.930 9 -48020314.159 9
  21769394.879    21769398.200    70708500.135 9-104095207.798 8
 86  6 17  2 59 29.0800000  0  3G12G13G 9
  20767498.482    20767500.101     9576240.775 8 -24183901.129 8
  20831754.258    20831756.592    35380849.355 9 -48015163.180 9
  21773196.766    21773200.210    70728475.849 9-104079642.304 9
 86  6 17  2 59 35.0800000  0  3G12G13G 9
  20766578.007    20766582.116     9571410.208 9 -24187665.201 9
  20833012.776    20833015.124    35387468.714 9 -48010005.247 8
  21777000.757    21777003.015    70748467.405 8-104064064.476 8
 86  6 17  2 59 41.0800000  0  3G12G13G 9
  20765663.442    20765667.113     9566604.452 9 -24191409.942 9
  20834274.092    20834276.225    35394096.843 8 -48004840.473 9
  21780809.527    21780809.638    70768474.575 9-104048474.489 7
 86  6 17  2 59 47.0800000  0  3G12G13G 9
  20764753.752    20764757.541     9561823.654 8 -24195135.249 9
  20835536.431    20835539.543    35400733.724 9 -47999668.873 8
  21784619.023    21784620.873    70788497.564 9-104032872.163 8
 86  6 17  2 59 53.0800000  0  3G12G13G 9
  20763848.060    20763851.836     9557067.953 9 -24198840.986 9
  20836802.159    20836803.712    35407379.522 9 -47994490.339 9
  21788432.212    21788434.199    70808536.451 9-104017257.433 7
 86  6 17  2 59 59.0800000  0  3G12G13G 9
  20762949.023    20762953.347     9552337.212 9 -24202527.279 9
  20838068.481    20838070.506    35414033.949 9 -47989305.058 9
  21792247.881    21792250.408    70828590.926 9-104001630.597 8
 86  6 17  3  0  5.0800000  0  3G12G13G 9
  20762053.090    20762056.265     9547631.354 9 -24206194.178 9
  20839336.020    20839338.204    35420697.034 9 -47984113.052 9
  21796068.563    21796070.184    70848660.916 9-103985991.655 8
 86  6 17  3  0 11.0800000  0  3G12G13G 9
  20761164.059    20761165.161     9542950.631 9 -24209841.493 9
  20840605.314    20840607.887    35427368.970 9 -47978914.129 9
  21799889.184    21799892.055    70868746.689 9-103970340.418 8
 86  6 17  3  0 17.0800000  0  3G12G13G 9
  20760276.794    20760279.585     9538295.029 9 -24213469.233 9
  20841876.531    20841880.107    35434049.730 9 -47973708.355 9
  21803715.006    21803717.417    70888848.153 9-103954676.949 9
 86  6 17  3  0 23.0800000  0  3G12G13G 9
  20759395.344    20759398.597     9533664.294 8 -24217077.607 8
  20843150.084    20843152.176    35440739.040 9 -47968495.904 9
  21807542.908    21807545.624    70908965.065 9-103939001.424 8
 86  6 17  3  0 29.0800000  0  3G12G13G 9
  20758519.590    20758522.068     9529058.584 9 -24220666.456 9
  20844424.408    20844426.860    35447437.082 9 -47963276.646 9
  21811373.461    21811376.880    70929097.539 9-103923313.799 8
 86  6 17  3  0 35.0800000  0  3G12G13G 9
  20757647.867    20757649.598     9524478.008 9 -24224235.739 8
  20845700.728    20845703.837    35454143.911 9 -47958050.550 9
  21815207.158    21815210.747    70949245.653 9-103907613.990 9
 86  6 17  3  0 41.0800000  0  3G12G13G 9
  20756780.648    20756783.128     9519922.371 9 -24227785.592 8
  20846978.805    20846981.390    35460859.401 9 -47952817.703 8
  21819044.866    21819048.376    70969409.182 9-103891902.147 8
 86  6 17  3  0 47.0800000  0  3G12G13G 9
  20755918.414    20755920.677     9515391.673 9 -24231316.005 8
  20848258.221    20848261.328    35467583.398 9 -47947578.230 8
  21822886.532    21822888.390    70989588.133 9-103876178.296 8
 86  6 17  3  0 53.0800000  0  3G12G13G 9
  20755061.427    20755064.422     9510886.238 9 -24234826.731 8
  20849540.090    20849541.934    35474316.212 9 -47942331.882 9
  21826728.752    21826731.289    71009782.717 9-103860442.266 9
 86  6 17  3  0 59.0800000  0  3G12G13G 9
  20754208.013    20754211.241     9506405.989 9 -24238317.823 8
  20850822.495    20850824.669    35481057.611 9 -47937078.844 9
  21830574.795    21830575.677    71029992.758 9-103844694.195 8
 86  6 17  3  1  5.0800000  0  3G12G13G 9
  20753361.186    20753363.145     9501950.697 8 -24241789.490 9
  20852107.263    20852109.890    35487807.516 9 -47931819.181 8
  21834422.992    21834423.934    71050218.033 9-103828934.236 8
 86  6 17  3  1 11.0800000  0  3G12G13G 9
  20752518.238    20752521.615     9497520.564 9 -24245241.538 8
  20853392.988    20853394.934    35494566.077 9 -47926552.771 8
  21838274.172    21838277.079    71070458.798 9-103813162.216 8
 86  6 17  3  1 17.0800000  0  3G12G13G 9
  20751680.056    20751682.596     9493115.574 9 -24248673.992 8
  20854680.930    20854683.340    35501333.262 9 -47921279.634 9
  21842128.725    21842131.942    71090715.042 9-103797378.132 9
 86  6 17  3  1 23.0800000  0  3G12G13G 9
  20750846.482    20750849.471     9488735.608 9 -24252086.957 9
  20855970.001    20855972.227    35508108.897 9 -47915999.927 9
  21845986.770    21845989.322    71110986.497 9-103781582.208 9
 86  6 17  3  1 29.0800000  0  3G12G13G 9
  20750019.022    20750020.497     9484380.720 9 -24255480.367 8
  20857261.153    20857263.423    35514893.084 9 -47910713.547 9
  21849847.619    21849850.515    71131273.258 9-103765774.339 8
 86  6 17  3  1 35.0800000  0  3G12G13G 9
  20749194.133    20749195.985     9480051.108 9 -24258854.097 9
  20858554.095    20858555.903    35521686.042 9 -47905420.336 9
  21853710.194    21853713.427    71151575.447 9-103749954.462 7
 86  6 17  3  1 41.0800000  0  3G12G13G 9
  20748374.667    20748377.029     9475746.643 9 -24262208.223 9
  20859847.985    20859850.303    35528487.442 9 -47900120.549 9
  21857576.890    21857579.193    71171892.902 9-103734122.691 8
 86  6 17  3  1 47.0800000  0  3G12G13G 9
  20747560.595    20747563.239     9471467.205 9 -24265542.843 9
  20861143.601    20861145.401    35535297.130 9 -47894814.295 9
  21861445.373    21861447.255    71192225.470 9-103718279.116 8
 86  6 17  3  1 53.0800000  0  3G12G13G 9
  20746751.613    20746754.160     9467213.035 9 -24268857.783 8
  20862440.847    20862444.275    35542115.396 9 -47889501.366 9
  21865317.634    21865320.868    71212573.432 9-103702423.571 8
 86  6 17  3  1 59.0800000  0  3G12G13G 9
  20745945.081    20745949.147     9462984.148 9 -24272153.020 8
  20863739.939    20863742.643    35548942.223 9 -47884181.763 9
  21869191.720    21869195.968    71232936.702 9-103686556.094 8
 86  6 17  3  2  5.0800000  0  3G12G13G 9
  20745145.432    20745148.537     9458780.337 9 -24275428.724 8
  20865041.190    20865043.360    35555777.465 9 -47878855.597 9
  21873069.371    21873074.040    71253314.891 9-103670676.995 8
 86  6 17  3  2 11.0800000  0  3G12G13G 9
  20744349.898    20744353.854     9454601.751 9 -24278684.762 8
  20866343.983    20866345.798    35562621.158 8 -47873522.850 9
  21876951.054    21876955.281    71273708.239 9-103654786.094 9
 86  6 17  3  2 17.0800000  0  3G12G13G 9
  20743559.382    20743563.432     9450448.514 9 -24281921.051 8
  20867647.501    20867648.995    35569473.481 8 -47868183.385 9
  21880834.626    21880837.125    71294116.876 8-103638883.260 8
 86  6 17  3  2 23.0800000  0  3G12G13G 9
  20742774.656    20742778.205     9446320.389 9 -24285137.771 9
  20868952.452    20868955.739    35576334.067 9 -47862837.479 9
  21884720.755    21884723.387    71314540.492 9-103622968.758 8
 86  6 17  3  2 29.0800000  0  3G12G13G 9
  20741992.452    20741996.717     9442217.439 8 -24288334.887 8
  20870259.787    20870262.711    35583202.943 9 -47857485.106 9
  21888609.946    21888611.769    71334979.120 9-103607042.548 9
 86  6 17  3  2 35.0800000  0  3G12G13G 9
  20741217.145    20741222.327     9438139.829 9 -24291512.223 9
  20871568.396    20871570.925    35590080.393 8 -47852126.055 9
  21892502.050    21892505.132    71355432.950 8-103591104.516 8
 86  6 17  3  2 41.0800000  0  3G12G13G 9
  20740445.959    20740449.067     9434087.555 9 -24294669.853 9
  20872878.166    20872881.653    35596966.241 9 -47846760.460 9
  21896396.533    21896400.987    71375901.908 9-103575154.684 8
 86  6 17  3  2 47.0800000  0  3G12G13G 9
  20739679.892    20739683.802     9430060.400 9 -24297807.887 8
  20874190.605    20874193.921    35603860.227 9 -47841388.531 9
  21900294.729    21900299.539    71396385.734 9-103559193.263 8
 86  6 17  3  2 53.0800000  0  3G12G13G 9
  20738918.811    20738920.551     9426058.666 9 -24300926.122 9
  20875504.054    20875507.812    35610762.571 9 -47836010.083 8
  21904195.998    21904199.171    71416884.584 9-103543220.137 8
 86  6 17  3  2 59.0800000  0  3G12G13G 9
  20738161.912    20738164.305     9422082.296 9 -24304024.595 8
  20876819.797    20876822.606    35617673.394 9 -47830625.034 9
  21908100.250    21908103.656    71437398.424 9-103527235.338 9
 86  6 17  3  3  5.0800000  0  3G12G13G 9
  20737410.442    20737413.642     9418131.088 8 -24307103.447 8
  20878135.217    20878137.937    35624592.423 9 -47825233.583 9
  21912006.043    21912007.531    71457927.072 9-103511238.990 8
 86  6 17  3  3 11.0800000  0  3G12G13G 9
  20736662.449    20736665.732     9414205.089 9 -24310162.664 9
  20879453.992    20879456.501    35631519.741 9 -47819835.673 9
  21915916.362    21915918.425    71478470.548 9-103495231.091 8
 86  6 17  3  3 17.0800000  0  3G12G13G 9
  20735921.372    20735923.541     9410304.490 9 -24313202.096 8
  20880774.267    20880776.559    35638455.444 9 -47814431.232 9
  21919827.931    21919830.135    71499029.047 9-103479211.491 8
 86  6 17  3  3 23.0800000  0  3G12G13G 9
  20735182.707    20735186.496     9406429.284 9 -24316221.733 9
  20882095.120    20882098.605    35645399.383 9 -47809020.375 9
  21923742.251    21923745.355    71519602.382 8-103463180.315 8
 86  6 17  3  3 29.0800000  0  3G12G13G 9
  20734451.157    20734452.529     9402579.268 9 -24319221.751 9
  20883418.325    20883421.861    35652351.398 9 -47803603.215 9
  21927661.604    21927663.555    71540190.401 9-103447137.718 8
 86  6 17  3  3 35.0800000  0  3G12G13G 9
  20733722.561    20733725.499     9398754.583 9 -24322202.014 9
  20884742.412    20884746.405    35659311.780 9 -47798179.548 8
  21931581.610    21931583.414    71560793.310 9-103431083.506 8
 86  6 17  3  3 41.0800000  0  3G12G13G 9
  20732999.690    20733002.086     9394955.326 9 -24325162.476 9
  20886068.015    20886071.894    35666280.476 9 -47792749.393 9
  21935505.344    21935508.278    71581411.056 9-103415017.735 9
 86  6 17  3  3 47.0800000  0  3G12G13G 9
  20732282.261    20732285.362     9391181.335 8 -24328103.251 8
  20887395.645    20887399.037    35673257.324 9 -47787312.900 9
  21939431.368    21939434.673    71602043.386 9-103398940.605 8
 86  6 17  3  3 53.0800000  0  3G12G13G 9
  20731567.626    20731571.621     9387432.732 8 -24331024.229 9
  20888726.051    20888728.607    35680242.364 9 -47781870.003 9
  21943359.508    21943361.945    71622690.474 8-103382851.972 8
 86  6 17  3  3 59.0800000  0  3G12G13G 9
  20730860.189    20730863.619     9383709.617 9 -24333925.360 8
  20890056.005    20890060.076    35687235.633 9 -47776420.710 8
  21947291.498    21947294.918    71643352.401 9-103366751.768 7
 86  6 17  3  4  5.0800000  0  3G12G13G 9
  20730156.218    20730158.418     9380011.844 9 -24336806.746 8
  20891390.121    20891391.469    35694236.954 1 -47770965.129 1
  21951227.320    21951229.790    71664029.025 9-103350640.113 8
 86  6 17  3  4 11.0800000  0  2G12G 9
  20729458.279    20729460.611     9376339.391 4 -24339668.390 7
  21955163.622    21955166.909    71684720.192 5-103334517.142 9
 86  6 17  3  4 17.0800000  0  3G12G13G 9
  20728763.502    20728766.934     9372692.391 9 -24342510.213 9
  20894055.782    20894058.252    35708264.016 1 -47760034.943 1
  21959104.630    21959107.900    71705425.997 9-103318382.757 9
 86  6 17  3  4 23.0800000  0  3G12G13G 9
  20728074.802    20728077.357     9369070.739 6 -24345332.270 5
  20895395.145    20895397.330    35715289.778 6 -47754560.338 5
  21963047.469    21963050.581    71726146.402 5-103302237.011 4
 86  6 17  3  4 29.0800000  0  3G12G13G 9
  20727390.678    20727393.506     9365474.572 9 -24348134.493 9
  20896733.749    20896736.689    35722323.663 9 -47749079.378 9
  21966993.257    21966995.825    71746881.305 9-103286079.947 8
 86  6 17  3  4 35.0800000  0  4G12G13G 9G 7
  20726710.153    20726714.169     9361903.905 9 -24350916.820 8
  20898074.432    20898075.977    35729365.725 9 -47743592.065 9
  21970941.703    21970943.594    71767630.902 9-103269911.435 9
                  26145175.266    -6067706.048 9
 86  6 17  3  4 41.0800000  0  4G12G13G 9G 7
  20726037.081    20726040.334     9358358.690 9 -24353679.328 8
  20899414.726    20899416.891    35736415.886 9 -47738098.430 8
  21974893.055    21974893.790    71788394.941 9-103253731.655 9
                  26141386.949    -6087521.082 9
 86  6 17  3  4 47.0800000  0  4G12G13G 9G 7
  20725367.076    20725369.765     9354838.866 9 -24356422.041 9
  20900757.984    20900761.061    35743474.087 9 -47732598.540 9
  21978847.906    21978849.173    71809173.473 9-103237540.600 7
                  26137659.223    -6107320.634 9
 86  6 17  3  4 53.0800000  0  4G12G13G 9G 7
  20724701.502    20724704.223     9351344.574 9 -24359144.872 8
  20902102.934    20902104.476    35750540.302 9 -47727092.401 9
  21982805.153    21982805.666    71829966.551 8-103221338.203 8
  26133893.279    26133898.330    -6127109.450 9   7910294.335 8
 86  6 17  3  4 59.0800000  0  4G12G13G 9G 7
  20724041.235    20724044.011     9347875.728 9 -24361847.867 9
  20903449.556    20903451.281    35757614.551 9 -47721579.989 9
  21986763.572    21986765.384    71850774.038 9-103205124.591 8
  26130129.854    26130133.464    -6146889.779 9   7894881.059 9
 86  6 17  3  5  5.0800000  0  4G12G13G 9G 7
  20723385.988    20723388.921     9344432.436 9 -24364530.949 9
  20904797.409    20904799.062    35764696.866 9 -47716061.309 9
  21990726.035    21990728.113    71871595.934 9-103188899.739 9
  26126367.454    26126370.479    -6166663.783 8   7879472.747 9
 86  6 17  3  5 11.0800000  0  4G12G13G 9G 7
  20722735.741    20722738.724     9341014.612 9 -24367194.190 9
  20906146.308    20906149.206    35771787.174 9 -47710536.401 8
  21994690.646    21994692.637    71892432.204 8-103172663.692 8
  26122604.821    26122608.571    -6186432.067 9   7864068.894 9
 86  6 17  3  5 17.0800000  0  4G12G13G 9G 7
  20722089.170    20722093.464     9337622.242 9 -24369837.591 8
  20907497.279    20907500.095    35778885.462 9 -47705005.269 9
  21998658.770    21998660.267    71913282.865 9-103156416.433 8
  26118844.498    26118847.891    -6206191.689 9   7848671.796 9
 86  6 17  3  5 23.0800000  0  4G12G13G 9G 7
  20721449.303    20721453.501     9334255.355 9 -24372461.135 9
  20908849.473    20908851.115    35785991.743 9 -47699467.917 9
  22002628.780    22002630.839    71934147.895 8-103140157.970 9
                  26115091.208                     7833286.833 8
 86  6 17  3  5 29.0800000  0  4G12G13G 9G 7
  20720813.440    20720815.884     9330913.942 9 -24375064.833 9
  20910204.235    20910205.414    35793106.002 9 -47693924.337 9
  22006602.120    22006603.789    71955027.216 9-103123888.383 8
  26111333.803    26111338.730    -6262078.286 8   7817919.000 8
 86  6 17  3  5 35.0800000  0  4G12G13G 9G 7
  20720182.240    20720184.644     9327598.032 9 -24377648.666 9
  20911559.255    20911560.748    35800228.298 9 -47688374.488 9
  22010577.692    22010580.428    71975920.894 9-103107607.582 8
  26107586.664    26107589.968    -6281777.173 9   7802569.225 9
 86  6 17  3  5 41.0800000  0  4G12G13G 9G 7
  20719556.356    20719558.180     9324307.685 9 -24380212.571 9
  20912916.008    20912918.298    35807358.536 9 -47682818.464 9
  22014556.977    22014558.546    71996828.833 8-103091315.692 7
  26103840.577    26103845.349    -6301456.788 9   7787234.869 9
 86  6 17  3  5 47.0800000  0  4G12G13G 9G 7
  20718935.529    20718938.399     9321042.870 9 -24382756.581 9
  20914273.970    20914275.693    35814496.707 9 -47677256.252 8
  22018536.634    22018540.698    72017751.046 7-103075012.677 8
  26100099.639    26100102.353    -6321120.951 9   7771912.144 9
 86  6 17  3  5 53.0800000  0  4G12G13G 9G 7
  20718318.439    20718321.837     9317803.622 9 -24385280.665 8
  20915633.785    20915636.376    35821642.741 9 -47671687.912 9
  22022521.171    22022523.868    72038687.488 9-103058698.574 9
  26096360.028    26096362.463    -6340774.165 9   7756597.955 9
 86  6 17  3  5 59.0800000  0  4G12G13G 9G 7
  20717707.612    20717709.543     9314589.940 9 -24387784.829 9
  20916995.130    20916997.236    35828796.671 9 -47666113.433 9
  22026507.957    22026511.373    72059638.073 9-103042373.455 8
  26092622.357    26092624.314    -6360418.811 9   7741290.437 9
 86  6 17  3  6  5.0800000  0  4G12G13G 9G 7
  20717100.747    20717103.431     9311401.842 9 -24390269.061 9
  20918358.096    20918359.136    35835958.480 9 -47660532.804 9
  22030497.573    22030500.547    72080602.759 9-103026037.345 8
  26088884.304    26088887.990    -6380057.092 9   7725987.894 8
 86  6 17  3  6 11.0800000  0  4G12G13G 9G 7
  20716498.293    20716501.418     9308239.337 9 -24392733.352 8
  20919721.635    20919724.943    35843128.110 9 -47654946.081 9
  22034490.275    22034492.334    72101581.681 9-103009690.136 9
  26085147.825    26085150.528    -6399689.211 8   7710690.138 8
 86  6 17  3  6 17.0800000  0  4G12G13G 9G 7
  20715902.136    20715905.223     9305102.436 9 -24395177.689 8
  20921087.902    20921090.552    35850305.587 9 -47649353.248 9
  22038484.371    22038487.519    72122574.731 8-102993331.904 8
  26081415.226    26081418.039    -6419311.782 9   7695399.831 9
 86  6 17  3  6 23.0800000  0  4G12G13G 9G 7
  20715309.710    20715312.809     9301991.071 9 -24397602.141 8
  20922455.072    20922457.851    35857490.896 9 -47643754.304 9
  22042482.723    22042484.952    72143581.851 9-102976962.729 8
                  26077686.819                     7680122.500 8
 86  6 17  3  6 29.0800000  0  4G12G13G 9G 7
  20714722.760    20714725.512     9298905.293 9 -24400006.630 8
  20923824.090    20923826.614    35864684.036 9 -47638149.255 9
  22046482.304    22046485.756    72164603.071 9-102960582.559 8
  26073956.839    26073960.266    -6475114.482 8   7664862.809 9
 86  6 17  3  6 35.0800000  0  4G12G13G 9G 7
  20714139.610    20714142.874     9295845.197 9 -24402391.148 9
  20925193.381    20925196.830    35871884.957 9 -47632538.159 9
  22050485.139    22050488.399    72185638.316 8-102944191.477 9
  26070235.201    26070238.455    -6494674.523 9   7649621.232 8
 86  6 17  3  6 41.0800000  0  4G12G13G 9G 7
  20713562.524    20713565.817     9292810.765 9 -24404755.621 9
  20926566.103    20926569.232    35879093.711 9 -47626920.946 9
  22054490.433    22054493.723    72206687.632 9-102927789.425 8
  26066517.426    26066518.332    -6514214.559 9   7634394.844 8
 86  6 17  3  6 47.0800000  0  4G12G13G 9G 7
  20712989.515    20712993.510     9289801.955 9 -24407100.145 8
  20927938.650    20927942.305    35886310.245 9 -47621297.662 9
  22058499.083    22058502.471    72227750.888 9-102911376.508 8
  26062801.008    26062804.011    -6533740.163 9   7619180.088 8
 86  6 17  3  6 53.0800000  0  4G12G13G 9G 7
  20712421.779    20712425.778     9286818.739 9 -24409424.744 8
  20929314.114    20929317.162    35893534.560 9 -47615668.330 9
  22062510.532    22062513.405    72248828.212 8-102894952.615 8
  26059087.772    26059090.023    -6553254.857 9   7603973.839 9
 86  6 17  3  6 59.0800000  0  4G12G13G 9G 7
  20711859.154    20711863.549     9283861.090 9 -24411729.396 9
  20930690.136    20930692.996    35900766.607 9 -47610032.968 9
  22066524.328    22066525.853    72269919.423 9-102878517.898 7
  26055374.348    26055377.838    -6572761.079 9   7588774.188 8
 86  6 17  3  7  5.0800000  0  4G12G13G 9G 7
  20711300.977    20711304.942     9280929.116 9 -24414014.071 9
  20932067.838    20932070.488    35908006.347 9 -47604391.616 9
  22070539.748    22070542.540    72291024.543 9-102862072.362 8
  26051665.325    26051666.793    -6592260.735 9   7573579.666 8
 86  6 17  3  7 11.0800000  0  4G12G13G 9G 7
  20710747.276    20710751.229     9278022.746 9 -24416278.764 9
  20933446.577    20933450.083    35915253.871 9 -47598744.188 9
  22074557.982    22074561.189    72312143.565 9-102845615.990 8
  26047955.089    26047958.275    -6611753.774 9   7558390.290 8
 86  6 17  3  7 17.0800000  0  4G12G13G 9G 7
  20710200.975    20710204.362     9275142.057 9 -24418523.463 9
  20934827.610    20934830.526    35922509.173 9 -47593090.712 9
  22078580.484    22078583.274    72333276.437 8-102829148.819 9
  26044247.075    26044250.724    -6631236.600 9   7543208.867 9
 86  6 17  3  7 23.0800000  0  4G12G13G 9G 7
  20709656.674    20709660.453     9272287.058 9 -24420748.129 9
  20936209.954    20936212.792    35929772.184 9 -47587431.222 9
  22082604.288    22082607.171    72354423.178 9-102812670.848 8
                  26040547.224                     7528041.168 8
 86  6 17  3  7 29.0800000  0  4G12G13G 9G 7
  20709118.672    20709122.948     9269457.715 9 -24422952.814 8
  20937592.903    20937596.602    35937042.842 9 -47581765.767 9
  22086631.121    22086633.958    72375583.705 8-102796182.139 9
  26036844.023    26036847.813    -6686899.767 9   7512891.596 9
 86  6 17  3  7 35.0800000  0  4G12G13G 9G 7
  20708584.506    20708588.805     9266654.058 9 -24425137.487 9
  20938978.093    20938981.047    35944321.181 9 -47576094.338 8
  22090660.782    22090664.629    72396758.001 9-102779682.699 7
  26033148.295    26033152.216    -6706318.514 9   7497760.109 7
 86  6 17  3  7 41.0800000  0  4G12G13G 9G 7
  20708056.472    20708059.746     9263876.096 9 -24427302.137 9
  20940365.337    20940367.658    35951607.172 9 -47570416.936 9
  22094691.057    22094695.918    72417946.127 8-102763172.474 8
  26029457.089    26029459.385    -6725717.916 8   7482643.707 9
 86  6 17  3  7 47.0800000  0  4G12G13G 9G 7
  20707532.785    20707536.833     9261123.842 9 -24429446.752 8
  20941753.208    20941755.230    35958900.839 9 -47564733.563 9
  22098725.792    22098729.994    72439148.060 9-102746651.497 8
  26025767.723    26025771.229    -6745102.522 9   7467538.826 9
 86  6 17  3  7 53.0800000  0  4G12G13G 9G 7
  20707014.608    20707017.644     9258397.334 9 -24431571.302 8
  20943141.963    20943145.525    35966202.114 9 -47559044.252 9
  22102764.147    22102766.694    72460363.677 9-102730119.844 8
  26022080.460    26022084.533    -6764476.235 9   7452442.435 9
 86  6 17  3  7 59.0800000  0  4G12G13G 9G 7
  20706500.409    20706503.045     9255696.512 9 -24433675.843 9
  20944532.797    20944535.409    35973510.964 9 -47553349.052 9
  22106804.058    22106807.437    72481592.976 9-102713577.541 9
  26018396.267    26018399.269    -6783841.326 9   7437352.748 9
 86  6 17  3  8  5.0800000  0  4G12G13G 9G 7
  20705990.818    20705994.917     9253021.437 9 -24435760.313 9
  20945925.174    20945928.299    35980827.419 9 -47547647.915 8
  22110846.171    22110849.097    72502835.923 8-102697024.607 8
  26014712.486    26014715.528    -6803199.701 9   7422268.298 9
 86  6 17  3  8 11.0800000  0  4G12G13G 9G 7
  20705486.840    20705488.818     9250372.110 9 -24437824.721 8
  20947318.718    20947322.496    35988151.496 9 -47541940.842 8
  22114891.117    22114895.182    72524092.532 9-102680461.031 9
  26011029.449    26011032.646    -6822551.023 9   7407189.360 9
 86  6 17  3  8 17.0800000  0  4G12G13G 9G 7
  20704988.012    20704991.350     9247748.523 9 -24439869.076 9
  20948714.182    20948717.126    35995483.191 9 -47536227.830 9
  22118938.563    22118942.722    72545362.762 9-102663886.834 8
                  26007352.389                     7392119.137 8
 86  6 17  3  8 23.0800000  0  4G12G13G 9G 7
  20704493.929    20704495.805     9245150.627 9 -24441893.407 9
  20950111.300    20950113.742    36002822.461 9 -47530508.919 9
  22122988.788    22122992.382    72566646.619 9-102647302.016 9
  26003727.899    26003676.618    -6878112.928 9   7377063.377 9
 86  6 17  3  8 29.0800000  0  4G12G13G 9G 7
  20704003.740    20704007.085     9242578.469 9 -24443897.687 8
  20951509.040    20951512.315    36010169.253 9 -47524784.151 9
  22127040.693    22127044.156    72587944.038 9-102630706.635 9
  25999999.794    26000004.060    -6897411.086 9   7362026.097 9
 86  6 17  3  8 35.0800000  0  4G12G13G 9G 7
  20703519.661    20703522.527     9240032.085 8 -24445881.892 8
  20952908.804    20952911.606    36017523.556 9 -47519053.518 9
  22131097.281    22131099.178    72609254.943 9-102614100.722 9
  25996332.307    25996336.357    -6916685.733 9   7347006.900 9
 86  6 17  3  8 41.0800000  0  4G12G13G 9G 7
  20703040.584    20703041.669     9237511.447 9 -24447846.021 9
  20954309.222    20954312.129    36024885.423 9 -47513316.996 9
  22135155.160    22135158.619    72630579.373 9-102597484.279 8
  25992668.146    25992671.372    -6935941.699 9   7332002.648 9
 86  6 17  3  8 47.0800000  0  4G12G13G 9G 7
  20702565.163    20702567.756     9235016.593 8 -24449790.063 8
  20955711.473    20955715.408    36032254.732 9 -47507574.684 9
  22139215.404    22139219.223    72651917.268 9-102580857.365 8
  25989006.917    25989010.815    -6955182.625 9   7317009.729 9
 86  6 17  3  8 53.0800000  0  4G12G13G 9G 7
  20702095.437    20702097.587     9232547.463 8 -24451714.069 9
  20957115.744    20957118.879    36039631.481 9 -47501826.561 9
  22143278.278    22143282.939    72673268.656 9-102564219.938 9
  25985347.987    25985351.496    -6974412.691 9   7302025.269 8
 86  6 17  3  8 59.0800000  0  4G12G13G 9G 7
  20701629.987    20701632.599     9230104.051 9 -24453618.025 8
  20958521.572    20958523.675    36047015.722 9 -47496072.604 9
  22147344.378    22147349.210    72694633.486 9-102547572.043 9
  25981690.639    25981693.666    -6993634.030 9   7287047.609 9
 86  6 17  3  9  5.0800000  0  4G12G13G 9G 7
  20701169.293    20701173.073     9227686.507 9 -24455501.827 8
  20959927.879    20959930.211    36054407.410 9 -47490312.842 9
  22151412.884    22151415.178    72716011.680 9-102530913.708 9
  25978033.392    25978036.496    -7012848.455 8   7272075.340 9
 86  6 17  3  9 11.0800000  0  4G12G13G 9G 7
  20700714.763    20700717.868     9225294.732 9 -24457365.551 9
  20961335.780    20961338.235    36061806.596 9 -47484547.253 9
  22155483.402    22155485.484    72737403.355 8-102514244.851 8
  25974378.422    25974382.272    -7032055.410 9   7257108.894 9
 86  6 17  3  9 17.0800000  0  4G12G13G 9G 7
  20700264.554    20700267.479     9222928.828 9 -24459209.115 9
  20962745.158    20962747.825    36069213.274 9 -47478775.813 9
  22159555.616    22159559.509    72758808.348 9-102497565.650 8
                  25970728.702                     7242151.883 9
 86  6 17  3  9 23.0800000  0  4G12G13G 9G 7
  20699819.182    20699822.173     9220588.758 9 -24461032.544 8
  20964155.714    20964157.887    36076627.362 9 -47472998.598 9
  22163631.540    22163634.332    72780226.715 9-102480876.018 9
  25967043.488    25967080.176    -7087470.558 9   7227209.958 9
 86  6 17  3  9 29.0800000  0  4G12G13G 9G 7
  20699378.954    20699382.116     9218274.536 9 -24462835.833 9
  20965568.661    20965570.683    36084048.816 9 -47467215.644 9
  22167709.858    22167713.774    72801658.346 9-102464176.049 9
  25963433.415    25963435.841    -7106621.778 9   7212287.057 9
 86  6 17  3  9 35.0800000  0  4G12G13G 9G 7
  20698943.550    20698946.891     9215986.166 9 -24464618.984 9
  20966981.786    20966985.208    36091477.700 9 -47461426.898 9
  22171791.229    22171794.529    72823103.249 9-102447465.756 9
  25959792.825    25959795.617    -7125749.718 9   7197382.175 9
 86  6 17  3  9 41.0800000  0  4G12G13G 9G 7
  20698513.755    20698516.309     9213723.693 9 -24466381.966 9
  20968396.364    20968399.416    36098914.034 9 -47455632.357 9
  22175875.697    22175878.789    72844561.435 9-102430745.106 9
  25956156.470    25956159.447    -7144858.716 9   7182492.048 9
 86  6 17  3  9 47.0800000  0  4G12G13G 9G 7
  20698087.679    20698090.860     9211487.018 9 -24468124.818 8
  20969813.146    20969815.289    36106357.709 9 -47449832.084 9
  22179960.976    22179964.076    72866032.853 9-102414014.134 8
  25952523.125    25952525.300    -7163953.365 9   7167613.100 8
 86  6 17  3  9 53.0800000  0  4G12G13G 9G 7
  20697666.569    20697669.596     9209276.183 9 -24469847.554 9
  20971230.573    20971233.949    36113808.699 9 -47444026.109 9
  22184048.192    22184052.802    72887517.447 9-102397272.908 9
  25948891.910    25948894.102    -7183037.085 9   7152742.671 9
 86  6 17  3  9 59.0800000  0  4G12G13G 9G 7
  20697250.551    20697254.702     9207091.119 9 -24471550.202 8
  20972650.611    20972653.680    36121267.044 9 -47438214.427 9
  22188139.773    22188143.321    72909015.187 9-102380521.428 8
  25945262.046    25945264.492    -7202112.133 9   7137879.012 9
 86  6 17  3 10  5.0800000  0  4G12G13G 9G 7
  20696840.469    20696843.402     9204931.896 9 -24473232.722 8
  20974070.782    20974073.580    36128732.690 9 -47432397.027 9
  22192232.412    22192235.616    72930526.076 9-102363759.692 8
  25941633.006    25941636.729    -7221180.084 9   7123020.866 8
 86  6 17  3 10 11.0800000  0  4G12G13G 9G 7
  20696434.145    20696437.070     9202798.515 9 -24474895.089 9
  20975492.766    20975495.767    36136205.697 9 -47426573.905 9
  22196328.301    22196332.216    72952050.275 9-102346987.599 8
  25938006.004    25938009.500    -7240239.902 9   7108169.065 8
 86  6 17  3 10 17.0800000  0  4G12G13G 9G 7
  20696032.858    20696036.010     9200691.046 8 -24476537.282 9
  20976916.378    20976919.592    36143686.043 9 -47420745.055 9
  22200426.615    22200431.245    72973587.573 9-102330205.297 8
                  25934384.174                     7093327.444 8
 86  6 17  3 10 23.0800000  0  4G12G13G 9G 7
  20695637.005    20695639.936     9198609.482 9 -24478159.269 9
  20978341.497    20978344.098    36151173.612 9 -47414910.588 9
  22204528.298    22204532.716    72995137.946 9-102313412.804 9
  25930661.026    25930763.620    -7295506.132 9   7078501.733 8
 86  6 17  3 10 29.0800000  0  4G12G13G 9G 7
  20695246.401    20695249.012     9196553.810 9 -24479761.098 9
  20979766.762    20979770.182    36158668.404 9 -47409070.489 9
  22208631.618    22208635.544    73016701.336 9-102296610.175 8
  25927146.292    25927148.603    -7314507.541 9   7063695.347 9
 86  6 17  3 10 35.0800000  0  4G12G13G 9G 7
  20694859.010    20694863.267     9194524.054 8 -24481342.730 9
  20981194.610    20981197.236    36166170.412 9 -47403224.761 9
  22212737.419    22212741.092    73038277.625 9-102279797.501 9
  25923534.097    25923536.282    -7333486.136 9   7048906.828 9
 86  6 17  3 10 41.0800000  0  4G12G13G 9G 7
  20694478.041    20694480.786     9192520.196 9 -24482904.172 8
  20982624.016    20982626.634    36173679.684 9 -47397373.383 8
  22216844.823    22216849.144    73059866.947 9-102262974.673 9
  25919926.483    25919928.270    -7352445.863 9   7034133.027 8
 86  6 17  3 10 47.0800000  0  4G12G13G 9G 7
  20694101.326    20694105.382     9190542.246 8 -24484445.431 9
  20984054.286    20984057.014    36181196.152 9 -47391516.391 9
  22220956.541    22220959.696    73081469.212 9-102246141.745 8
  25916321.744    25916324.073    -7371391.296 9   7019370.357 8
 86  6 17  3 10 53.0800000  0  4G12G13G 9G 7
  20693728.943    20693733.055     9188590.156 9 -24485966.533 9
  20985485.422    20985488.822    36188719.809 9 -47385653.801 8
  22225069.398    22225073.255    73103084.489 9-102229298.681 8
  25912717.848    25912720.314    -7390325.808 9   7004616.193 9
 86  6 17  3 10 59.0800000  0  4G12G13G 9G 7
  20693363.506    20693367.083     9186663.960 9 -24487467.473 8
  20986920.017    20986921.602    36196250.751 9 -47379785.530 9
  22229185.237    22229187.382    73124712.717 9-102212445.518 9
  25909116.111    25909119.434    -7409251.742 9   6989868.728 8
 86  6 17  3 11  5.0800000  0  4G12G13G 9G 7
  20693001.435    20693005.404     9184763.675 9 -24488948.206 9
  20988352.987    20988357.086    36203788.859 9 -47373911.685 9
  22233304.573    22233306.753    73146353.884 9-102195582.267 8
  25905516.506    25905518.774    -7428170.303 9   6975127.000 9
 86  6 17  3 11 11.0800000  0  4G12G13G 9G 7
  20692645.958    20692648.306     9182889.352 8 -24490408.711 9
  20989790.024    20989791.618    36211334.136 9 -47368032.243 9
  22237424.663    22237428.831    73168007.925 9-102178709.002 9
  25901917.562    25901920.568    -7447080.191 9   6960392.023 9
 86  6 17  3 11 17.0800000  0  4G12G13G 9G 7
  20692293.260    20692296.273     9181040.956 9 -24491849.030 9
  20991226.654    20991229.928    36218886.532 9 -47362147.259 9
  22241549.056    22241552.054    73189674.744 9-102161825.768 9
                  25898325.241                     6945668.113 8
 86  6 17  3 11 23.0800000  0  4G12G13G 9G 7
  20691946.965    20691950.078     9179218.476 9 -24493269.141 9
  20992666.060    20992667.392    36226446.011 9 -47356256.756 9
  22245673.131    22245676.956    73211354.400 9-102144932.555 8
  25894729.786    25894731.624    -7502195.211 9   6930960.846 9
 86  6 17  3 11 29.0800000  0  4G12G13G 9G 7
  20691605.618    20691608.659     9177421.961 9 -24494669.027 8
  20994105.152    20994107.727    36234012.642 9 -47350360.671 9
  22249800.212    22249805.262    73233046.859 9-102128029.366 9
  25891143.188    25891146.152    -7521044.527 9   6916273.076 8
 86  6 17  3 11 35.0800000  0  4G12G13G 9G 7
  20691268.325    20691271.223     9175651.367 9 -24496048.706 9
  20995546.367    20995549.094    36241586.493 9 -47344458.972 9
  22253931.549    22253934.782    73254752.087 9-102111116.213 8
  25887560.740    25887564.715    -7539870.923 9   6901603.156 9
 86  6 17  3 11 41.0800000  0  4G12G13G 9G 7
  20690936.282    20690937.996     9173906.745 9 -24497408.163 9
  20996988.816    20996990.941    36249167.353 9 -47338551.808 8
  22258065.376    22258066.951    73276470.094 9-102094193.095 9
  25883981.804    25883984.619    -7558678.742 9   6886947.718 9
 86  6 17  3 11 47.0800000  0  4G12G13G 9G 7
  20690609.097    20690612.262     9172188.121 8 -24498747.347 9
  20998432.449    20998434.890    36256755.244 9 -47332639.164 8
  22262200.292    22262201.849    73298200.728 9-102077260.129 8
  25880405.964    25880408.792    -7577472.277 9   6872303.414 8
 86  6 17  3 11 53.0800000  0  4G12G13G 9G 7
  20690287.295    20690289.737     9170495.385 8 -24500066.361 9
  20999877.874    20999880.602    36264350.306 9 -47326720.934 9
  22266337.991    22266340.143    73319944.126 9-102060317.226 9
  25876831.676    25876834.468    -7596254.845 9   6857667.643 9
 86  6 17  3 11 59.0800000  0  4G12G13G 9G 7
  20689969.185    20689972.713     9168828.720 9 -24501365.070 8
  21001325.016    21001326.431    36271952.444 9 -47320797.183 9
  22270478.020    22270480.421    73341700.219 9-102043364.430 9
  25873259.045    25873261.363    -7615028.702 8   6843038.660 9
 86  6 17  3 12  5.0800000  0  4G12G13G 9G 7
  20689656.823    20689660.390     9167188.117 9 -24502643.461 9
  21002772.137    21002774.121    36279561.611 9 -47314867.960 9
  22274618.517    22274623.449    73363468.953 9-102026401.801 8
  25869687.864    25869690.443    -7633794.977 9   6828415.588 9
 86  6 17  3 12 11.0800000  0  4G12G13G 9G 7
  20689349.241    20689353.780     9165573.454 8 -24503901.647 8
  21004222.269    21004224.097    36287177.784 9 -47308933.281 9
  22278763.682    22278768.620    73385250.244 9-102009429.383 9
  25866117.761    25866121.640    -7652552.010 9   6813799.716 9
 86  6 17  3 12 17.0800000  0  4G12G13G 9G 7
  20689046.609    20689051.659     9163984.811 9 -24505139.553 9
  21005672.629    21005675.305    36294801.040 9 -47302993.085 9
  22282911.883    22282915.424    73407044.125 9-101992447.163 8
                  25862554.608                     6799195.640 9
 86  6 17  3 12 23.0800000  0  4G12G13G 9G 7
  20688749.988    20688754.255     9162422.151 8 -24506357.203 9
  21007123.423    21007127.395    36302431.291 9 -47297047.436 9
  22287062.207    22287064.442    73428850.591 9-101975455.116 9
  25858990.634    25858993.948    -7707511.649 9   6784608.860 8
 86  6 17  3 12 29.0800000  0  4G12G13G 9G 7
  20688457.296    20688461.350     9160885.444 8 -24507554.644 8
  21008577.732    21008579.951    36310068.601 9 -47291096.281 9
  22291214.745    22291215.576    73450669.569 9-101958453.314 8
  25855432.466    25855435.675    -7726205.969 9   6770041.827 9
 86  6 17  3 12 35.0800000  0  4G12G13G 9G 7
  20688170.514    20688174.313     9159374.773 9 -24508731.793 9
  21010032.323    21010033.970    36317712.872 9 -47285139.705 9
  22295369.829    22295370.052    73472501.134 9-101941441.699 8
  25851879.717    25851882.319    -7744877.468 9   6755492.611 8
 86  6 17  3 12 41.0800000  0  4G12G13G 9G 7
  20687888.010    20687890.991     9157890.096 9 -24509888.684 9
  21011487.859    21011491.486    36325364.145 9 -47279177.673 9
  22299524.550    22299527.002    73494345.162 9-101924420.382 8
  25848329.961    25848332.552    -7763530.481 9   6740957.798 9
 86  6 17  3 12 47.0800000  0  4G12G13G 9G 7
  20687610.252    20687613.320     9156431.387 9 -24511025.343 9
  21012946.081    21012948.182    36333022.370 9 -47273210.226 9
  22303683.837    22303686.531    73516201.628 9-101907389.385 8
  25844782.699    25844785.422    -7782169.534 9   6726433.869 9
 86  6 17  3 12 53.0800000  0  4G12G13G 9G 7
  20687338.994    20687340.893     9154998.671 9 -24512141.739 9
  21014404.118    21014406.966    36340687.488 9 -47267237.403 9
  22307844.950    22307847.691    73538070.497 9-101890348.738 8
  25841237.375    25841241.165    -7800797.629 9   6711918.472 9
 86  6 17  3 12 59.0800000  0  4G12G13G 9G 7
  20687070.014    20687073.148     9153591.975 8 -24513237.875 8
  21015864.889    21015866.966    36348359.472 9 -47261259.232 9
  22312010.075    22312012.909    73559951.770 9-101873298.395 9
  25837694.590    25837697.791    -7819416.910 9   6697409.939 9
 86  6 17  3 13  5.0800000  0  4G12G13G 9G 7
  20686807.603    20686810.458     9152211.283 9 -24514313.736 8
  21017325.711    21017327.847    36356038.339 9 -47255275.699 9
  22316177.094    22316179.591    73581845.387 9-101856238.446 9
  25834152.447    25834156.801    -7838028.276 9   6682907.573 9
 86  6 17  3 13 11.0800000  0  4G12G13G 9G 7
  20686550.062    20686552.544     9150856.583 9 -24515369.349 8
  21018789.103    21018790.908    36363724.019 9 -47249286.862 9
  22320345.185    22320346.989    73603751.366 9-101839168.853 8
  25830613.462    25830616.544    -7856629.760 9   6668412.911 9
 86  6 17  3 13 17.0800000  0  4G12G13G 9G 7
  20686296.393    20686300.601     9149527.902 9 -24516404.690 8
  21020253.486    21020254.759    36371416.568 9 -47243292.658 9
  22324515.388    22324518.301    73625669.722 9-101822089.622 8
                  25827080.488                     6653930.797 9
 86  6 17  3 13 23.0800000  0  4G12G13G 9G 7
  20686048.386    20686052.704     9148225.318 9 -24517419.690 9
  21021717.247    21021719.050    36379116.013 9 -47237293.097 9
  22328686.642    22328690.268    73647600.375 9-101805000.813 9
  25823542.868    25823547.434    -7911434.575 9   6639466.570 8
 86  6 17  3 13 29.0800000  0  4G12G13G 9G 7
  20685806.846    20685809.616     9146948.860 8 -24518414.330 9
  21023183.535    21023186.143    36386822.292 9 -47231288.200 9
  22332863.381    22332866.361    73669543.367 9-101787902.400 9
  25820016.625    25820020.020    -7929971.393 9   6625022.309 9
 86  6 17  3 13 35.0800000  0  4G12G13G 9G 7
  20685567.654    20685571.402     9145698.537 8 -24519388.610 8
  21024650.898    21024653.354    36394535.484 9 -47225277.920 9
  22337041.265    22337043.920    73691498.550 9-101770794.475 8
  25816492.797    25816496.355    -7948485.474 9   6610595.742 9
 86  6 17  3 13 41.0800000  0  4G12G13G 9G 7
  20685334.614    20685338.449     9144474.249 8 -24520342.599 9
  21026120.528    21026123.248    36402255.511 9 -47219262.314 9
  22341223.149    22341223.423    73713465.914 9-101753677.055 8
  25812973.515    25812977.390    -7966981.338 9   6596183.381 9
 86  6 17  3 13 47.0800000  0  4G12G13G 9G 7
  20685107.634    20685111.390     9143276.021 9 -24521276.287 9
  21027591.240    21027593.945    36409982.400 9 -47213241.369 9
  22345405.664    22345407.593    73735445.495 9-101736550.111 8
  25809456.818    25809460.659    -7985463.413 9   6581781.770 9
 86  6 17  3 13 53.0800000  0  4G12G13G 9G 7
  20684884.520    20684887.028     9142103.861 8 -24522189.654 8
  21029062.543    21029066.132    36417716.118 9 -47207215.087 9
  22349591.435    22349592.344    73757437.335 9-101719413.599 9
  25805942.028    25805944.625    -8003934.378 9   6567388.816 9
 86  6 17  3 13 59.0800000  0  4G12G13G 9G 7
  20684665.505    20684670.393     9140957.735 8 -24523082.741 8
  21030535.067    21030537.430    36425456.670 9 -47201183.490 9
  22353776.937    22353780.930    73779441.292 8-101702267.677 9
  25802428.813    25802432.262    -8022396.239 9   6553002.943 9
 86  6 17  3 14  5.0800000  0  4G12G13G 9G 7
  20684452.173    20684456.216     9139837.677 8 -24523955.526 9
  21032009.581    21032012.823    36433204.049 9 -47195146.577 9
  22357964.826    22357970.559    73801457.427 8-101685112.294 8
  25798917.176    25798920.119    -8040850.005 9   6538623.389 9
 86  6 17  3 14 11.0800000  0  4G12G13G 9G 7
  20684245.059    20684247.502     9138743.716 8 -24524807.953 9
  21033484.964    21033488.123    36440958.111 9 -47189104.452 8
  22362156.951    22362160.440    73823485.565 8-101667947.519 8
  25795407.350    25795410.094    -8059293.311 9   6524251.986 8
 86  6 17  3 14 17.0800000  0  4G12G13G 9G 7
  20684040.662    20684044.539     9137675.887 9 -24525640.035 8
  21034962.136    21034965.322    36448718.934 9 -47183057.051 9
  22366352.700    22366354.779    73845525.696 9-101650773.390 7
                  25791904.424                     6509893.870 9
 86  6 17  3 14 23.0800000  0  4G12G13G 9G 7
  20683843.088    20683846.044     9136634.123 8 -24526451.804 8
  21036439.971    21036442.768    36456486.539 9 -47177004.364 9
  22370549.779    22370549.319    73867578.036 9-101633589.740 8
  25788399.361    25788402.652    -8113935.994 9   6495554.331 8
 86  6 17  3 14 29.0800000  0  4G12G13G 9G 7
  20683648.316    20683653.858     9135618.419 8 -24527243.264 9
  21037919.217    21037922.608    36464260.834 9 -47170946.482 9
  22374748.158    22374749.159    73889642.327 9-101616396.759 8
  25784902.698    25784905.514    -8132312.620 9   6481234.866 9
 86  6 17  3 14 35.0800000  0  4G12G13G 9G 7
  20683461.160    20683464.519     9134628.760 8 -24528014.435 8
  21039400.431    21039402.852    36472041.774 9 -47164883.405 9
  22378949.865    22378951.378    73911718.618 9-101599194.459 8
  25781410.031    25781412.614    -8150666.568 9   6466933.089 9
 86  6 17  3 14 41.0800000  0  4G12G13G 9G 7
  20683277.335    20683281.357     9133665.166 9 -24528765.284 8
  21040882.148    21040884.670    36479829.471 9 -47158815.072 9
  22383152.272    22383153.796    73933806.895 9-101581982.840 9
  25777920.824    25777924.603    -8169002.641 9   6452645.243 8
 86  6 17  3 14 47.0800000  0  4G12G13G 9G 7
  20683099.485    20683103.118     9132727.703 9 -24529495.780 8
  21042366.084    21042368.294    36487623.856 9 -47152741.523 8
  22387356.372    22387360.699    73955907.160 9-101564761.883 8
  25774434.510    25774436.918    -8187324.835 9   6438368.219 9
 86  6 17  3 14 53.0800000  0  4G12G13G 9G 7
  20682925.881    20682929.987     9131816.413 9 -24530205.875 9
  21043850.421    21043852.334    36495424.842 9 -47146662.834 9
  22391564.591    22391568.138    73978019.320 9-101547531.658 8
  25770949.227    25770953.164    -8205635.801 9   6424099.941 9
 86  6 17  3 14 59.0800000  0  4G12G13G 9G 7
  20682757.515    20682760.915     9130931.261 9 -24530895.605 9
  21045335.856    21045338.023    36503232.496 9 -47140578.946 9
  22395776.526    22395777.120    74000143.318 8-101530292.185 9
  25767466.644    25767469.565    -8223937.657 9   6409838.748 8
 86  6 17  3 15  5.0800000  0  4G12G13G 9G 7
  20682594.667    20682597.477     9130072.238 9 -24531564.979 9
  21046822.813    21046825.557    36511046.781 9 -47134489.893 9
  22399989.146    22399990.367    74022279.141 9-101513043.484 9
  25763986.854    25763988.205    -8242231.104 9   6395584.119 9
 86  6 17  3 15 11.0800000  0  4G12G13G 9G 7
  20682435.287    20682439.670     9129239.372 9 -24532213.952 8
  21048311.210    21048313.683    36518867.673 9 -47128395.687 9
  22404203.992    22404204.478    74044426.711 8-101495785.634 7
  25760507.201    25760509.601    -8260513.359 9   6381338.201 9
 86  6 17  3 15 17.0800000  0  4G12G13G 9G 7
  20682282.293    20682285.884     9128432.663 9 -24532842.567 8
  21049800.711    21049803.007    36526695.266 9 -47122296.259 9
  22408419.779    22408421.217    74066586.297 9-101478518.406 7
                  25757033.861                     6367106.411 8
 86  6 17  3 15 23.0800000  0  4G12G13G 9G 7
  20682133.625    20682137.757     9127652.118 8 -24533450.787 9
  21051291.125    21051293.484    36534529.481 9 -47116191.672 9
  22412637.999    22412640.338    74088757.643 9-101461242.031 8
  25753562.146    25753561.755    -8314994.218 9   6352893.658 9
 86  6 17  3 15 29.0800000  0  4G12G13G 9G 7
  20681990.663    20681994.295     9126897.711 9 -24534038.638 9
  21052783.799    21052786.133    36542370.287 9 -47110081.956 9
  22416857.238    22416861.379    74110940.799 9-101443956.468 9
  25750095.407    25750096.610    -8333208.029 9   6338701.080 9
 86  6 17  3 15 35.0800000  0  4G12G13G 9G 7
  20681852.379    20681854.754     9126169.396 9 -24534606.165 8
  21054276.967    21054279.548    36550217.616 9 -47103967.147 8
  22421083.159    22421086.398    74133135.660 9-101426661.804 9
  25746633.562    25746635.320    -8351399.239 9   6324526.112 9
 86  6 17  3 15 41.0800000  0  4G12G13G 9G 7
  20681718.155    20681721.251     9125467.231 9 -24535153.306 9
  21055771.448    21055773.347    36558071.449 9 -47097847.283 9
  22425309.715    22425312.233    74155342.176 9-101409358.039 8
  25743175.556    25743177.072    -8369572.769 9   6310364.925 9
 86  6 17  3 15 47.0800000  0  4G12G13G 9G 7
  20681590.448    20681593.267     9124791.172 9 -24535680.106 9
  21057266.123    21057269.085    36565931.806 9 -47091722.324 9
  22429538.414    22429539.846    74177560.443 9-101392045.111 8
  25739720.155    25739720.885    -8387732.453 9   6296214.518 9
 86  6 17  3 15 53.0800000  0  4G12G13G 9G 7
  20681466.668    20681469.606     9124141.237 9 -24536186.551 9
  21058763.716    21058766.678    36573798.691 9 -47085592.289 9
  22433769.624    22433769.512    74199790.300 9-101374723.124 8
  25736265.859    25736267.718    -8405880.843 9   6282072.930 9
 86  6 17  3 15 59.0800000  0  4G12G13G 9G 7
  20681346.839    20681350.954     9123517.500 9 -24536672.586 9
  21060262.658    21060264.885    36581672.057 9 -47079457.193 9
  22438000.412    22438001.605    74222031.797 9-101357392.088 8
  25732813.514    25732817.107    -8424020.069 9   6267938.467 8
 86  6 17  3 16  5.0800000  0  4G12G13G 9G 7
  20681234.021    20681236.973     9122919.853 9 -24537138.290 9
  21061762.356    21061765.427    36589551.899 9 -47073317.058 9
  22442233.186    22442235.468    74244284.877 9-101340052.040 8
  25729364.169    25729365.756    -8442150.563 9   6253810.805 9
 86  6 17  3 16 11.0800000  0  4G12G13G 9G 7
  20681124.748    20681127.967     9122348.379 8 -24537583.597 9
  21063263.479    21063264.889    36597438.266 9 -47067171.832 9
  22446470.579    22446472.065    74266549.484 8-101322703.010 8
  25725915.883    25725917.723    -8460269.036 9   6239692.525 9
 86  6 17  3 16 17.0800000  0  4G12G13G 9G 7
  20681020.794    20681025.374     9121803.097 9 -24538008.483 9
  21064764.832    21064767.925    36605331.193 9 -47061021.501 9
  22450709.592    22450712.634    74288825.693 9-101305344.922 9
                  25722473.164                     6225589.048 9
 86  6 17  3 16 23.0800000  0  4G12G13G 9G 7
  20680922.367    20680925.562     9121283.982 9 -24538412.998 8
  21066268.029    21066270.281    36613230.645 9 -47054866.076 9
  22454952.564    22454954.411    74311113.377 9-101287977.903 9
  25719032.167    25719035.329    -8514587.389 9   6211505.127 9
 86  6 17  3 16 29.0800000  0  4G12G13G 9G 7
  20680828.277    20680832.007     9120791.073 8 -24538797.086 8
  21067771.982    21067774.780    36621136.570 9 -47048705.623 9
  22459196.483    22459198.262    74333412.555 9-101270601.927 9
  25715597.949    25715600.768    -8532635.813 9   6197441.409 8
 86  6 17  3 16 35.0800000  0  4G12G13G 9G 7
  20680740.145    20680742.733     9120324.387 9 -24539160.743 9
  21069278.174    21069280.753    36629048.994 9 -47042540.095 9
  22463442.239    22463443.252    74355723.158 9-101253217.042 9
  25712167.011    25712169.555    -8550661.382 9   6183395.126 8
 86  6 17  3 16 41.0800000  0  4G12G13G 9G 7
  20680655.745    20680659.272     9119883.788 8 -24539504.066 8
  21070784.454    21070787.548    36636967.836 9 -47036369.573 9
  22467688.754    22467692.227    74378045.201 9-101235823.259 9
  25708740.147    25708743.215    -8568669.829 9   6169362.572 9
 86  6 17  3 16 47.0800000  0  4G12G13G 9G 7
  20680577.032    20680580.094     9119469.364 9 -24539827.001 9
  21072292.402    21072295.990    36644893.085 9 -47030194.050 9
  22471937.107    22471940.565    74400378.723 9-101218420.529 8
  25705315.889    25705319.243    -8586664.482 9   6155340.778 9
 86  6 17  3 16 53.0800000  0  4G12G13G 9G 7
  20680502.607    20680505.965     9119081.155 9 -24540129.495 9
  21073801.926    21073804.441    36652824.755 9 -47024013.536 9
  22476188.982    22476191.503    74422723.657 9-101201008.906 8
  25701893.605    25701896.088    -8604647.929 9   6141327.695 9
 86  6 17  3 16 59.0800000  0  4G12G13G 9G 7
  20680434.675    20680436.951     9118719.169 9 -24540411.570 8
  21075313.091    21075315.630    36660762.791 9 -47017828.043 9
  22480444.566    22480446.866    74445079.910 9-101183588.453 8
  25698473.439    25698475.718    -8622622.234 9   6127321.758 9
 86  6 17  3 17  5.0800000  0  4G12G13G 9G 7
  20680370.276    20680373.380     9118383.380 9 -24540673.231 8
  21076824.949    21076827.168    36668707.294 9 -47011637.527 9
  22484701.640    22484702.552    74467447.532 9-101166159.134 9
  25695054.115    25695058.254    -8640587.270 9   6113323.037 9
 86  6 17  3 17 11.0800000  0  4G12G13G 9G 7
  20680311.174    20680315.144     9118073.756 9 -24540914.498 8
  21078337.380    21078339.105    36676658.186 9 -47005442.041 9
  22488960.784    22488961.921    74489826.394 9-101148721.050 9
                  25691641.216                     6099334.311 8
 86  6 17  3 17 17.0800000  0  4G12G13G 9G 7
  20680257.805    20680260.593     9117790.350 9 -24541135.336 8
  21079851.837    21079853.842    36684615.414 9 -46999241.595 9
  22493220.963    22493223.810    74512216.644 9-101131274.100 8
  25688243.854    25688229.180    -8694778.323 9   6085361.051 9
 86  6 17  3 17 23.0800000  0  4G12G13G 9G 7
  20680207.869    20680211.862     9117533.142 9 -24541335.751 8
  21081367.295    21081369.044    36692578.922 9 -46993036.260 9
  22497482.569    22497485.715    74534618.213 9-101113818.344 9
  25684818.090    25684821.742    -8712684.913 9   6071407.875 9
 86  6 17  3 17 29.0800000  0  4G12G13G 9G 7
  20680163.585    20680167.766     9117302.128 9 -24541515.769 9
  21082883.624    21082885.938    36700548.747 9 -46986826.009 8
  22501747.233    22501751.212    74557030.922 9-101096353.919 9
  25681415.015    25681419.419    -8730565.475 9   6057474.979 9
 86  6 17  3 17 35.0800000  0  4G12G13G 9G 7
  20680125.028    20680129.078     9117097.341 9 -24541675.348 8
  21084401.085    21084403.655    36708524.950 9 -46980610.786 9
  22506013.285    22506019.051    74579454.811 9-101078880.780 9
  25678016.981    25678020.936    -8748424.250 9   6043559.444 9
 86  6 17  3 17 41.0800000  0  4G12G13G 9G 7
  20680092.040    20680094.627     9116918.690 8 -24541814.560 8
  21085920.606    21085922.889    36716507.348 9 -46974390.733 9
  22510282.883    22510287.427    74601889.843 9-101061398.961 9
  25674622.165    25674625.098    -8766265.027 9   6029657.551 9
 86  6 17  3 17 47.0800000  0  4G12G13G 9G 7
  20680061.756    20680065.778     9116766.253 9 -24541933.351 8
  21087441.133    21087442.664    36724496.078 9 -46968165.746 9
  22514556.031    22514558.106    74624336.029 9-101043908.419 8
  25671230.073    25671233.249    -8784091.991 9   6015766.422 9
 86  6 17  3 17 53.0800000  0  4G12G13G 9G 7
  20680039.086    20680042.578     9116640.091 8 -24542031.653 9
  21088962.487    21088964.818    36732491.191 9 -46961935.786 9
  22518830.364    22518830.128    74646793.422 9-101026409.134 9
  25667839.905    25667842.906    -8801907.649 8   6001884.095 8
 86  6 17  3 17 59.0800000  0  4G12G13G 9G 7
  20680020.262    20680023.490     9116540.127 9 -24542109.545 9
  21090484.679    21090486.751    36740492.536 9 -46955700.965 9
  22523105.877    22523106.172    74669261.953 9-101008901.171 9
  25664449.996    25664454.309    -8819713.903 9   5988009.109 9
 86  6 17  3 18  5.0800000  0  4G12G13G 9G 7
  20680005.349    20680008.774     9116466.373 9 -24542167.026 8
  21092008.532    21092011.370    36748499.991 9 -46949461.399 9
  22527381.646    22527384.619    74691741.572 9-100991384.589 9
  25661064.028    25661067.873    -8837510.694 9   5974141.484 9
 86  6 17  3 18 11.0800000  0  4G12G13G 9G 7
  20679996.738    20679999.903     9116418.963 9 -24542203.970 9
  21093533.211    21093536.063    36756513.750 9 -46943216.908 9
  22531660.875    22531665.129    74714232.238 8-100973859.417 9
                  25657683.841                     5960284.643 9
 86  6 17  3 18 17.0800000  0  4G12G13G 9G 7
  20679993.189    20679995.824     9116397.928 9 -24542220.360 9
  21095058.622    21095062.173    36764533.899 9 -46936967.447 9
  22535942.336    22535948.690    74736734.123 8-100956325.501 9
  25654303.362    25654303.411    -8891534.042 9   5946444.068 9
 86  6 17  3 18 23.0800000  0  4G12G13G 9G 7
  20679993.374    20679996.936     9116403.116 9 -24542216.320 8
  21096586.777    21096589.694    36772560.251 9 -46930713.140 9
  22540227.908    22540232.252    74759246.950 8-100938783.059 9
  25650925.453    25650929.576    -8909269.948 9   5932624.027 8
 86  6 17  3 18 29.0800000  0  4G12G13G 9G 7
  20680000.128    20680002.947     9116434.422 9 -24542191.929 8
  21098114.983    21098118.789    36780592.790 9 -46924454.022 9
  22544514.094    22544517.260    74781770.691 8-100921232.112 9
  25647555.626    25647558.108    -8926979.692 8   5918824.240 9
 86  6 17  3 18 35.0800000  0  4G12G13G 9G 7
  20680010.344    20680013.710     9116491.697 8 -24542147.300 8
  21099645.633    21099648.031    36788631.301 9 -46918190.253 9
  22548801.908    22548806.338    74804305.146 9-100903672.802 9
  25644189.916    25644192.626    -8944667.216 9   5905041.372 9
 86  6 17  3 18 41.0800000  0  4G12G13G 9G 7
  20680026.493    20680029.822     9116575.395 9 -24542082.090 9
  21101174.860    21101179.852    36796676.165 9 -46911921.521 9
  22553092.985    22553094.874    74826850.657 9-100886104.869 8
  25640827.678    25640830.384    -8962337.682 9   5891272.187 8
 86  6 17  3 18 47.0800000  0  4G12G13G 9G 7
  20680048.153    20680050.311     9116685.149 9 -24541996.563 8
  21102707.788    21102711.832    36804727.010 9 -46905648.146 9
  22557384.806    22557388.123    74849406.910 9-100868528.558 8
  25637467.239    25637469.069    -8979994.497 9   5877513.632 9
 86  6 17  3 18 53.0800000  0  4G12G13G 9G 7
  20680073.247    20680076.882     9116821.216 9 -24541890.539 9
  21104241.772    21104243.864    36812784.066 9 -46899369.915 9
  22561678.094    22561681.317    74871974.193 8-100850943.667 9
  25634109.754    25634111.272    -8997639.917 8   5863763.952 9
 86  6 17  3 18 59.0800000  0  4G12G13G 9G 7
  20680104.179    20680106.788     9116983.481 8 -24541764.095 8
  21105776.277    21105778.506    36820847.280 9 -46893086.894 9
  22565974.391    22565979.734    74894552.357 8-100833350.302 9
  25630753.161    25630757.005    -9015275.774 9   5850021.743 9
 86  6 17  3 19  5.0800000  0  4G12G13G 9G 7
  20680140.058    20680142.878     9117172.024 9 -24541617.185 9
  21107310.966    21107313.576    36828916.668 9 -46886799.054 9
  22570273.986    22570277.879    74917141.347 9-100815748.520 8
  25627398.920    25627401.676    -9032901.542 9   5836287.379 8
 86  6 17  3 19 11.0800000  0  4G12G13G 9G 7
  20680180.982    20680184.234     9117386.850 9 -24541449.797 9
  21108847.297    21108850.164    36836992.217 9 -46880506.426 9
  22574575.204    22574578.918    74939741.087 9-100798138.345 9
                  25624050.901                     5822564.373 8
 86  6 17  3 19 17.0800000  0  4G12G13G 9G 7
  20680225.905    20680230.076     9117627.887 8 -24541261.978 8
  21110385.268    21110387.733    36845073.736 9 -46874209.134 9
  22578877.869    22578880.968    74962351.448 9-100780519.882 9
  25620645.380    25620703.897    -9086752.886 9   5808858.043 8
 86  6 17  3 19 23.0800000  0  4G12G13G 9G 7
  20680276.452    20680281.078     9117895.249 9 -24541053.645 9
  21111924.676    21111926.890    36853161.387 9 -46867907.064 9
  22583182.961    22583184.849    74984972.547 9-100762893.059 8
  25617359.222    25617361.167    -9104315.759 9   5795172.828 9
 86  6 17  3 19 29.0800000  0  4G12G13G 9G 7
  20680333.485    20680335.919     9118188.840 9 -24540824.878 9
  21113464.879    21113467.355    36861255.158 9 -46861600.236 9
  22587488.677    22587492.420    75007604.330 9-100745257.906 8
  25614021.421    25614024.864    -9121853.057 9   5781507.789 9
 86  6 17  3 19 35.0800000  0  4G12G13G 9G 7
  20680394.061    20680397.334     9118508.683 9 -24540575.654 9
  21115006.754    21115008.860    36869355.054 9 -46855288.625 8
  22591797.438    22591800.764    75030246.868 9-100727614.377 9
  25610689.016    25610691.588    -9139368.090 9   5767859.718 8
 86  6 17  3 19 41.0800000  0  4G12G13G 9G 7
  20680461.036    20680463.211     9118854.751 9 -24540305.991 9
  21116548.745    21116550.387    36877461.034 9 -46848972.273 9
  22596107.288    22596111.056    75052900.067 8-100709962.543 9
  25607358.918    25607361.588    -9156865.935 9   5754225.043 9
 86  6 17  3 19 47.0800000  0  4G12G13G 9G 7
  20680531.217    20680534.706     9119227.088 9 -24540015.849 8
  21118092.490    21118094.521    36885573.103 9 -46842651.184 9
  22600421.197    22600424.170    75075563.936 9-100692302.399 8
  25604032.310    25604034.675    -9174349.898 9   5740601.191 9
 86  6 17  3 19 53.0800000  0  4G12G13G 9G 7
  20680606.769    20680609.804     9119625.604 9 -24539705.321 9
  21119636.758    21119640.486    36893691.144 9 -46836325.435 9
  22604735.994    22604739.306    75098238.368 9-100674634.013 9
  25600706.786    25600710.231    -9191822.547 9   5726986.135 9
 86  6 17  3 19 59.0800000  0  4G12G13G 9G 7
  20680687.640    20680690.823     9120050.456 9 -24539374.269 9
  21121183.559    21121185.942    36901815.170 9 -46829995.022 9
  22609053.498    22609055.780    75120923.385 9-100656957.378 9
  25597383.744    25597386.778    -9209285.391 9   5713378.739 9
 86  6 17  3 20  5.0800000  0  4G12G13G 9G 7
  20680774.624    20680776.954     9120501.578 9 -24539022.741 8
  21122729.448    21122732.473    36909945.196 9 -46823659.944 9
  22613372.679    22613374.425    75143618.931 9-100639272.545 9
  25594063.152    25594065.461    -9226737.658 9   5699779.571 9
 86  6 17  3 20 11.0800000  0  4G12G13G 9G 7
  20680864.269    20680867.747     9120978.925 9 -24538650.792 9
  21124278.517    21124280.701    36918081.121 9 -46817320.259 9
  22617692.510    22617695.280    75166324.976 8-100621579.537 9
                  25590747.674                     5686192.476 9
 86  6 17  3 20 17.0800000  0  4G12G13G 9G 7
  20680961.465    20680962.789     9121482.523 9 -24538258.379 9
  21125827.172    21125831.097    36926223.033 9 -46810975.913 9
  22622015.036    22622019.153    75189041.535 9-100603878.338 9
  25587411.491    25587433.683    -9280418.298 9   5672622.863 9
 86  6 17  3 20 23.0800000  0  4G12G13G 9G 7
  20681061.531    20681063.928     9122012.379 9 -24537845.503 8
  21127378.050    21127381.277    36934370.860 9 -46804626.958 9
  22626339.687    22626343.295    75211768.513 9-100586169.001 9
  25584122.190    25584125.022    -9297805.191 9   5659074.631 9
 86  6 17  3 20 29.0800000  0  4G12G13G 9G 7
  20681167.419    20681170.274     9122568.520 9 -24537412.140 9
  21128929.402    21128933.388    36942524.641 9 -46798273.368 9
  22630665.585    22630669.497    75234505.986 9-100568451.521 8
  25580819.399    25580820.640    -9315165.704 9   5645546.583 8
 86  6 17  3 20 35.0800000  0  4G12G13G 9G 7
  20681278.070    20681281.634     9123150.961 9 -24536958.304 8
  21130482.308    21130485.337    36950684.365 9 -46791915.141 9
  22634995.224    22634998.714    75257253.893 9-100550725.876 8
  25577519.070    25577522.547    -9332504.992 9   5632035.467 9
 86  6 17  3 20 41.0800000  0  4G12G13G 9G 7
  20681393.794    20681396.567     9123759.653 9 -24536483.994 8
  21132036.128    21132039.136    36958850.079 9 -46785552.245 9
  22639326.710    22639328.426    75280012.197 9-100532992.128 8
  25574222.627    25574226.627    -9349827.233 9   5618537.617 9
 86  6 17  3 20 47.0800000  0  4G12G13G 9G 7
  20681514.735    20681517.509     9124394.680 9 -24535989.163 9
  21133591.524    21133594.663    36967021.594 9 -46779184.832 9
  22643659.793    22643662.798    75302780.861 9-100515250.333 9
  25570929.497    25570931.951    -9367135.630 9   5605050.557 9
 86  6 17  3 20 53.0800000  0  4G12G13G 9G 7
  20681640.231    20681643.004     9125056.025 9 -24535473.854 8
  21135147.321    21135151.016    36975198.910 9 -46772812.897 9
  22647994.524    22647997.516    75325559.851 9-100497500.464 9
  25567637.891    25567640.381    -9384432.669 9   5591572.356 8
 86  6 17  3 20 59.0800000  0  4G12G13G 9G 7
  20681771.253    20681774.656     9125743.613 9 -24534938.058 8
  21136704.025    21136709.394    36983382.072 9 -46766436.414 9
  22652331.461    22652333.489    75348349.113 9-100479742.607 9
  25564348.517    25564351.479    -9401719.696 9   5578101.949 9
 86  6 17  3 21  5.0800000  0  4G12G13G 9G 7
  20681907.653    20681910.855     9126457.596 9 -24534381.723 9
  21138263.701    21138266.238    36991571.102 9 -46760055.352 9
  22656669.045    22656672.933    75371148.752 8-100461976.661 8
  25561060.460    25561062.513    -9418995.673 9   5564640.165 8
 86  6 17  3 21 11.0800000  0  4G12G13G 9G 7
  20682047.916    20682051.533     9127197.874 9 -24533804.876 9
  21139822.945    21139825.318    36999766.079 9 -46753669.655 9
  22661010.649    22661012.970    75393958.695 9-100444202.712 9
                  25557778.627                     5551191.113 8
 86  6 17  3 21 17.0800000  0  4G12G13G 9G 7
  20682194.707    20682196.829     9127964.347 9 -24533207.625 8
  21141382.990    21141385.983    37007966.870 9 -46747279.434 9
  22665352.938    22665355.873    75416778.845 9-100426420.797 9
  25554498.953    25554499.016    -9472497.442 9   5537760.357 9
 86  6 17  3 21 23.0800000  0  4G12G13G 9G 7
  20682344.324    20682347.947     9128757.036 8 -24532589.956 9
  21142945.293    21142948.715    37016173.503 9 -46740884.656 8
  22669697.510    22669700.831    75439609.134 9-100408630.963 9
  25551221.964    25551223.803    -9489705.896 9   5524351.167 9
 86  6 17  3 21 29.0800000  0  4G12G13G 9G 7
  20682501.046    20682504.724     9129576.006 9 -24531951.791 9
  21144508.064    21144510.952    37024385.973 9 -46734485.324 8
  22674043.097    22674045.380    75462449.667 9-100390833.163 8
  25547951.730    25547955.114    -9506888.617 9   5510962.046 9
 86  6 17  3 21 35.0800000  0  4G12G13G 9G 7
  20682661.484    20682664.377     9130421.222 9 -24531293.191 9
  21146071.543    21146074.079    37032604.296 9 -46728081.442 9
  22678391.556    22678393.751    75485300.383 9-100373027.411 8
  25544686.028    25544688.722    -9524049.698 9   5497589.780 9
 86  6 17  3 21 41.0800000  0  4G12G13G 9G 7
  20682827.312    20682829.450     9131292.735 9 -24530614.086 9
  21147636.333    21147638.986    37040828.392 9 -46721673.059 8
  22682743.200    22682743.842    75508161.164 9-100355213.811 8
  25541423.453    25541426.323    -9541193.745 9   5484230.777 9
 86  6 17  3 21 47.0800000  0  4G12G13G 9G 7
  20682997.690    20683000.856     9132190.550 9 -24529914.494 8
  21149202.751    21149205.184    37049058.260 9 -46715260.168 9
  22687095.193    22687097.344    75531032.081 9-100337392.311 7
  25538163.716    25538166.440    -9558323.999 9   5470882.546 9
 86  6 17  3 21 53.0800000  0  4G12G13G 9G 7
  20683173.863    20683177.257     9133114.619 9 -24529194.447 8
  21150770.090    21150772.755    37057293.951 9 -46708842.756 9
  22691448.465    22691451.880    75553912.972 9-100319563.063 9
  25534906.039    25534909.837    -9575442.811 9   5457543.203 8
 86  6 17  3 21 59.0800000  0  4G12G13G 9G 7
  20683354.597    20683358.503     9134065.003 9 -24528453.887 9
  21152338.677    21152342.382    37065535.423 9 -46702420.828 9
  22695804.220    22695807.673    75576803.988 9-100301725.926 9
  25531650.469    25531653.576    -9592551.366 9   5444211.868 9
 86  6 17  3 22  5.0800000  0  4G12G13G 9G 7
  20683540.367    20683544.158     9135041.634 9 -24527692.887 8
  21153908.084    21153910.898    37073782.624 9 -46695994.440 9
  22700162.729    22700165.532    75599705.038 9-100283880.968 8
  25528397.485    25528399.941    -9609648.187 9   5430889.674 9
 86  6 17  3 22 11.0800000  0  4G12G13G 9G 7
  20683731.881    20683735.017     9136044.544 9 -24526911.396 9
  21155478.355    21155481.819    37082035.607 9 -46689563.551 9
  22704522.438    22704525.463    75622616.105 9-100266028.212 8
                  25525149.947                     5417580.867 8
 86  6 17  3 22 17.0800000  0  4G12G13G 9G 7
  20683926.813    20683929.926     9137073.754 9 -24526109.410 8
  21157049.572    21157051.891    37090294.340 9 -46683128.164 9
  22708884.458    22708886.965    75645537.157 9-100248167.661 9
  25521900.542    25521905.090    -9662967.492 9   5404291.111 9
 86  6 17  3 22 23.0800000  0  4G12G13G 9G 7
  20684127.052    20684131.496     9138129.229 8 -24525286.971 9
  21158622.342    21158626.232    37098558.761 9 -46676688.370 8
  22713246.586    22713250.036    75668468.139 9-100230299.366 8
  25518661.364    25518664.415    -9679994.752 9   5391023.147 8
 86  6 17  3 22 29.0800000  0  4G12G13G 9G 7
  20684333.869    20684336.578     9139211.012 9 -24524444.023 9
  21160196.299    21160199.044    37106828.897 9 -46670244.103 9
  22717613.835    22717616.218    75691409.071 9-100212423.321 8
  25515426.112    25515428.388    -9696996.685 9   5377775.278 9
 86  6 17  3 22 35.0800000  0  4G12G13G 9G 7
  20684544.695    20684547.606     9140319.054 9 -24523580.606 8
  21161770.844    21161773.298    37115104.704 9 -46663795.428 9
  22721981.060    22721981.192    75714359.879 8-100194539.563 8
  25512195.601    25512198.106    -9713976.813 9   5364544.023 9
 86  6 17  3 22 41.0800000  0  4G12G13G 9G 7
  20684760.490    20684763.286     9141453.376 9 -24522696.713 8
  21163346.624    21163349.853    37123386.122 9 -46657342.377 9
  22726350.078    22726352.162    75737320.507 9-100176648.171 8
  25508967.057    25508970.219    -9730940.022 9   5351325.940 9
 86  6 17  3 22 47.0800000  0  4G12G13G 9G 7
  20684981.367    20684984.765     9142613.931 9 -24521792.391 8
  21164924.082    21164926.779    37131673.116 9 -46650884.977 9
  22730721.880    22730723.933    75760291.002 9-100158749.079 7
  25505741.719    25505744.169    -9747889.400 9   5338118.634 9
 86  6 17  3 22 53.0800000  0  4G12G13G 9G 7
  20685207.763    20685209.925     9143800.767 9 -24520867.586 9
  21166502.042    21166504.966    37139965.781 9 -46644423.163 9
  22735094.149    22735097.349    75783271.354 9-100140842.335 9
  25502518.626    25502520.788    -9764827.061 9   5324920.459 9
 86  6 17  3 22 59.0800000  0  4G12G13G 9G 7
  20685439.318    20685441.117     9145013.970 9 -24519922.230 9
  21168081.758    21168083.785    37148264.087 9 -46637956.952 9
  22739468.834    22739471.963    75806261.455 9-100122928.001 9
  25499296.928    25499300.253    -9781754.209 9   5311730.485 9
 86  6 17  3 23  5.0800000  0  4G12G13G 9G 7
  20685674.291    20685677.437     9146253.388 9 -24518956.447 9
  21169660.870    21169663.785    37156567.989 9 -46631486.378 9
  22743845.527    22743849.937    75829261.350 9-100105006.030 9
  25496078.281    25496080.608    -9798669.311 9   5298549.900 9
 86  6 17  3 23 11.0800000  0  4G12G13G 9G 7
  20685915.413    20685917.205     9147519.144 9 -24517970.143 9
  21171242.084    21171245.712    37164877.483 9 -46625011.441 9
  22748225.011    22748226.795    75852270.920 9-100087076.501 8
                  25492865.935                     5285383.387 9
 86  6 17  3 23 17.0800000  0  4G12G13G 9G 7
  20686161.036    20686164.108     9148811.338 9 -24516963.255 9
  21172825.319    21172827.531    37173192.636 9 -46618532.108 9
  22752605.403    22752607.371    75875290.219 8-100069139.384 8
  25489654.782    25489654.882    -9851812.718 9   5272236.501 9
 86  6 17  3 23 23.0800000  0  4G12G13G 9G 7
  20686411.312    20686414.293     9150129.721 9 -24515935.930 8
  21174407.979    21174409.969    37181513.357 9 -46612048.432 9
  22756987.866    22756989.208    75898319.125 9-100051194.784 8
  25486447.399    25486449.937    -9868656.324 9   5259111.578 9
 86  6 17  3 23 29.0800000  0  4G12G13G 9G 7
  20686667.545    20686670.424     9151474.443 9 -24514888.108 9
  21175992.140    21175996.135    37189839.747 9 -46605560.338 9
  22761371.425    22761372.877    75921357.760 9-100033242.616 9
  25483246.798    25483250.263    -9885473.884 9   5246006.598 9
 86  6 17  3 23 35.0800000  0  4G12G13G 9G 7
  20686928.586    20686932.341     9152845.405 8 -24513819.827 9
  21177578.073    21177581.822    37198171.676 9 -46599067.930 9
  22765757.112    22765758.224    75944406.011 9-100015282.925 9
  25480050.159    25480054.045    -9902270.752 9   5232918.141 9
 86  6 17  3 23 41.0800000  0  4G12G13G 9G 7
  20687194.257    20687198.447     9154242.646 8 -24512731.066 9
  21179164.300    21179168.227    37206509.083 9 -46592571.259 9
  22770144.269    22770146.357    75967463.824 8 -99997315.819 9
  25476857.377    25476860.812    -9919050.892 9   5219842.701 9
 86  6 17  3 23 47.0800000  0  4G12G13G 9G 7
  20687465.008    20687468.455     9155666.144 9 -24511621.858 9
  21180752.551    21180754.887    37214852.055 9 -46586070.235 9
  22774533.309    22774538.345    75990531.293 8 -99979341.191 8
  25473666.930    25473668.667    -9935817.159 9   5206778.093 8
 86  6 17  3 23 53.0800000  0  4G12G13G 9G 7
  20687740.361    20687744.827     9157115.983 9 -24510492.116 9
  21182341.424    21182344.327    37223200.674 9 -46579564.821 9
  22778925.648    22778928.119    76013608.303 9 -99961359.123 8
  25470478.739    25470481.475    -9952571.540 9   5193722.728 9
 86  6 17  3 23 59.0800000  0  4G12G13G 9G 7
  20688021.332    20688026.208     9158592.099 9 -24509341.895 9
  21183930.247    21183934.590    37231554.847 9 -46573055.084 9
  22783320.170    22783321.896    76036694.849 9 -99943369.610 9
  25467291.711    25467295.300    -9969315.343 9   5180675.617 9
 86  6 17  3 24  5.0800000  0  4G12G13G 9G 7
  20688307.009    20688311.587     9160094.548 9 -24508171.160 9
  21185521.817    21185524.167    37239914.474 9 -46566541.078 9
  22787714.679    22787716.989    76059790.882 8 -99925372.724 9
  25464108.453    25464111.489    -9986046.438 9   5167638.403 8
 86  6 17  3 24 11.0800000  0  4G12G13G 9G 7
  20688598.159    20688602.218     9161623.331 9 -24506979.907 8
  21187113.032    21187117.178    37248279.660 9 -46560022.759 9
  22792110.403    22792113.114    76082896.467 9 -99907368.383 8
                  25460930.885                     5154615.873 9
 86  6 17  3 24 17.0800000  0  4G12G13G 9G 7
  20688894.581    20688898.932     9163178.355 9 -24505768.191 8
  21188705.968    21188708.675    37256650.322 9 -46553500.162 9
  22796508.841    22796512.322    76106011.486 8 -99889356.699 8
  25457752.501    25457757.678   -10038999.429 9   5141613.598 8
 86  6 17  3 24 23.0800000  0  4G12G13G 9G 7
  20689195.712    20689199.883     9164759.678 9 -24504535.997 9
  21190299.936    21190302.958    37265026.427 9 -46546973.330 9
  22800909.924    22800911.007    76129135.871 8 -99871337.703 8
  25454583.040    25454586.068   -10055657.345 9   5128633.422 9
 86  6 17  3 24 29.0800000  0  4G12G13G 9G 7
  20689501.556    20689504.695     9166367.237 9 -24503283.354 8
  21191895.182    21191898.115    37273407.972 9 -46540442.263 9
  22805311.926    22805313.632    76152269.700 9 -99853311.330 7
  25451417.412    25451419.990   -10072290.255 9   5115673.108 9
 86  6 17  3 24 35.0800000  0  4G12G13G 9G 7
  20689812.814    20689816.086     9168001.019 9 -24502010.279 9
  21193490.581    21193494.664    37281794.975 9 -46533906.936 9
  22809716.665    22809718.476    76175412.822 9 -99835277.733 7
  25448256.670    25448259.928   -10088901.654 9   5102729.170 8
 86  6 17  3 24 41.0800000  0  4G12G13G 9G 7
  20690128.814    20690131.556     9169661.073 8 -24500716.723 9
  21195088.008    21195091.004    37290187.539 9 -46527367.266 9
  22814121.807    22814125.145    76198565.254 9 -99817236.892 8
  25445099.307    25445101.220   -10105496.004 9   5089798.507 9
 86  6 17  3 24 47.0800000  0  4G12G13G 9G 7
  20690449.785    20690452.340     9171347.409 9 -24499402.694 9
  21196685.728    21196688.254    37298585.449 9 -46520823.437 9
  22818528.309    22818532.605    76221727.082 9 -99799188.730 8
  25441943.455    25441946.635   -10122076.343 9   5076878.765 9
 86  6 17  3 24 53.0800000  0  4G12G13G 9G 7
  20690775.720    20690778.286     9173060.038 9 -24498068.181 8
  21198285.388    21198287.564    37306988.721 9 -46514275.443 9
  22822937.952    22822942.694    76244898.114 9 -99781133.414 9
  25438790.259    25438793.473   -10138644.999 9   5063968.128 8
 86  6 17  3 24 59.0800000  0  4G12G13G 9G 7
  20691106.115    20691109.082     9174798.989 9 -24496713.144 8
  21199884.401    21199888.357    37315397.442 9 -46507723.190 9
  22827349.747    22827352.331    76268078.470 9 -99763070.801 9
  25435639.671    25435642.342   -10155202.568 9   5051066.137 9
 86  6 17  3 25  5.0800000  0  4G12G13G 9G 7
  20691442.205    20691445.546     9176564.170 9 -24495337.683 8
  21201486.351    21201489.158    37323811.473 9 -46501166.811 9
  22831763.360    22831765.686    76291267.995 9 -99745001.071 9
  25432491.551    25432494.472   -10171746.807 9   5038174.513 9
 86  6 17  3 25 11.0800000  0  4G12G13G 9G 7
  20691783.654    20691786.336     9178355.643 9 -24493941.736 8
  21203088.691    21203091.673    37332230.893 9 -46494606.219 8
  22836176.526    22836179.480    76314466.794 8 -99726924.095 9
                  25429349.795                     5025298.362 9
 86  6 17  3 25 17.0800000  0  4G12G13G 9G 7
  20692129.066    20692132.504     9180173.418 9 -24492525.281 9
  21204692.248    21204694.927    37340655.659 9 -46488041.469 9
  22840592.040    22840595.256    76337674.755 9 -99708839.973 8
  25426207.416    25426212.574   -10224511.986 9   5012442.940 9
 86  6 17  3 25 23.0800000  0  4G12G13G 9G 7
  20692479.441    20692482.745     9182017.467 9 -24491088.370 9
  21206296.023    21206298.338    37349085.704 9 -46481472.605 9
  22845011.369    22845012.832    76360891.761 9 -99690748.811 8
  25423073.570    25423076.589   -10240981.245 9   4999609.769 8
 86  6 17  3 25 29.0800000  0  4G12G13G 9G 7
  20692835.323    20692839.155     9183887.804 8 -24489630.961 9
  21207901.625    21207904.024    37357521.097 9 -46474899.576 9
  22849430.365    22849432.818    76384117.806 9 -99672650.593 8
  25419944.321    25419946.584   -10257425.054 9   4986796.427 9
 86  6 17  3 25 35.0800000  0  4G12G13G 9G 7
  20693196.850    20693200.905     9185784.465 9 -24488153.051 9
  21209507.021    21209510.202    37365961.876 9 -46468322.341 9
  22853853.170    22853854.119    76407353.076 9 -99654545.184 8
  25416819.411    25416821.916   -10273847.888 9   4973999.410 9
 86  6 17  3 25 41.0800000  0  4G12G13G 9G 7
  20693562.245    20693566.081     9187707.409 9 -24486654.643 9
  21211115.019    21211117.074    37374407.966 9 -46461740.970 9
  22858275.488    22858278.155    76430597.416 9 -99636432.722 8
  25413698.256    25413700.533   -10290253.918 9   4961215.506 8
 86  6 17  3 25 47.0800000  0  4G12G13G 9G 7
  20693932.252    20693938.059     9189656.648 8 -24485135.760 9
  21212723.676    21212726.680    37382859.405 9 -46455155.441 9
  22862701.150    22862704.333    76453850.797 9 -99618313.209 9
  25410578.542    25410581.143   -10306646.117 9   4948442.355 9
 86  6 17  3 25 53.0800000  0  4G12G13G 9G 7
  20694309.164    20694313.276     9191632.117 9 -24483596.441 9
  21214333.276    21214335.437    37391316.106 9 -46448565.798 9
  22867127.779    22867131.331    76477113.164 9 -99600186.718 9
  25407461.673    25407463.134   -10323026.348 9   4935678.544 8
 86  6 17  3 25 59.0800000  0  4G12G13G 9G 7
  20694689.732    20694694.134     9193633.802 9 -24482036.684 9
  21215942.425    21215946.132    37399778.111 9 -46441972.021 9
  22871556.687    22871559.946    76500384.577 9 -99582053.179 9
  25404346.540    25404349.133   -10339395.338 9   4922923.484 9
 86  6 17  3 26  5.0800000  0  4G12G13G 9G 7
  20695075.127    20695080.001     9195661.772 9 -24480456.449 9
  21217554.777    21217557.098    37408245.353 9 -46435374.169 9
  22875985.835    22875990.006    76523665.028 9 -99563912.596 8
  25401234.050    25401236.282   -10355750.169 9   4910179.458 8
 86  6 17  3 26 11.0800000  0  4G12G13G 9G 7
  20695466.826    20695470.936     9197716.097 9 -24478855.690 8
  21219166.451    21219170.069    37416717.896 9 -46428772.197 9
  22880417.532    22880421.136    76546954.383 8 -99545765.064 8
                  25398128.422                     4897451.716 9
 86  6 17  3 26 17.0800000  0  4G12G13G 9G 7
  20695862.062    20695866.781     9199796.681 9 -24477234.454 8
  21220780.210    21220783.370    37425195.598 9 -46422166.196 9
  22884851.311    22884853.360    76570252.544 8 -99527610.654 8
  25395023.400    25395025.311   -10408322.866 9   4884745.160 8
 86  6 17  3 26 23.0800000  0  4G12G13G 9G 7
  20696263.362    20696266.514     9201903.529 9 -24475592.757 8
  21222393.842    21222396.514    37433678.560 9 -46415556.089 9
  22889287.717    22889287.720    76593559.683 9 -99509449.229 7
  25391925.661    25391927.807   -10424600.973 9   4872060.926 9
 86  6 17  3 26 29.0800000  0  4G12G13G 9G 7
  20696670.110    20696673.269     9204036.620 9 -24473930.613 9
  21224008.510    21224012.276    37442166.815 9 -46408941.858 9
  22893724.327    22893725.794    76616875.651 8 -99491280.921 8
  25388832.894    25388834.585   -10440853.709 9   4859396.455 9
 86  6 17  3 26 35.0800000  0  4G12G13G 9G 7
  20697080.065    20697084.297     9206195.985 8 -24472247.999 9
  21225625.551    21225628.844    37450660.253 9 -46402323.598 8
  22898162.718    22898164.313    76640200.540 9 -99473105.699 9
  25385743.449    25385747.182   -10457085.792 9   4846748.082 9
 86  6 17  3 26 41.0800000  0  4G12G13G 9G 7
  20697495.866    20697499.432     9208381.580 8 -24470544.933 8
  21227241.834    21227245.322    37459158.899 9 -46395701.277 9
  22902602.100    22902606.267    76663534.232 9 -99454923.614 9
  25382658.145    25382660.846   -10473301.153 9   4834112.741 9
 86  6 17  3 26 47.0800000  0  4G12G13G 9G 7
  20697916.874    20697921.251     9210593.462 9 -24468821.388 8
  21228861.272    21228862.957    37467662.735 9 -46389074.905 9
  22907044.043    22907047.649    76686876.663 9 -99436734.740 9
  25379575.201    25379578.706   -10489502.404 9   4821488.402 9
 86  6 17  3 26 53.0800000  0  4G12G13G 9G 7
  20698344.028    20698347.234     9212831.631 9 -24467077.366 8
  21230480.048    21230483.237    37476171.748 9 -46382444.516 9
  22911487.380    22911491.434    76710227.894 9 -99418539.003 9
  25376494.742    25376496.189   -10505691.623 9   4808873.425 9
 86  6 17  3 26 59.0800000  0  4G12G13G 9G 7
  20698774.881    20698776.615     9215096.021 8 -24465312.914 8
  21232101.201    21232102.321    37484685.864 9 -46375810.133 9
  22915933.694    22915936.330    76733587.743 9 -99400336.539 9
  25373416.160    25373418.552   -10521869.185 9   4796267.529 9
 86  6 17  3 27  5.0800000  0  4G12G13G 9G 7
  20699210.670    20699212.967     9217386.634 9 -24463528.012 9
  21233721.841    21233723.923    37493205.187 9 -46369171.700 9
  22920380.652    22920384.065    76756956.350 9 -99382127.252 9
  25370339.831    25370344.013   -10538031.975 9   4783673.144 9
 86  6 17  3 27 11.0800000  0  4G12G13G 9G 7
  20699650.722    20699654.405     9219703.549 9 -24461722.626 8
  21235343.905    21235346.075    37501729.775 9 -46362529.169 8
  22924828.590    22924832.516    76780333.652 8 -99363911.181 8
                  25367271.575                     4771095.690 8
 86  6 17  3 27 17.0800000  0  4G12G13G 9G 7
  20700097.140    20700100.204     9222046.706 9 -24459896.784 9
  21236967.254    21236968.899    37510259.436 9 -46355882.666 9
  22929279.209    22929282.673    76803719.608 9 -99345688.374 8
  25364201.984    25364205.481   -10590411.363 9   4758539.880 9
 86  6 17  3 27 23.0800000  0  4G12G13G 9G 7
  20700548.689    20700551.811     9224416.212 9 -24458050.415 8
  21238591.147    21238592.659    37518794.134 9 -46349232.254 9
  22933731.142    22933734.175    76827114.233 9 -99327458.785 9
  25361141.986    25361144.465   -10606495.928 9   4746006.439 9
 86  6 17  3 27 29.0800000  0  4G12G13G 9G 7
  20701003.007    20701007.416     9226811.951 9 -24456183.614 8
  21240216.831    21240218.032    37527333.920 9 -46342577.876 9
  22938184.821    22938185.441    76850517.390 9 -99309222.565 8
  25358085.210    25358088.481   -10622555.330 9   4733492.626 9
 86  6 17  3 27 35.0800000  0  4G12G13G 9G 7
  20701465.507    20701467.288     9229233.961 8 -24454296.330 9
  21241842.933    21241844.017    37535878.804 9 -46335919.527 9
  22942639.049    22942639.932    76873929.111 8 -99290979.659 8
  25355033.396    25355037.304   -10638594.079 9   4720994.906 9
 86  6 17  3 27 41.0800000  0  4G12G13G 9G 7
  20701932.510    20701933.253     9231682.162 9 -24452388.644 9
  21243469.552    21243471.292    37544428.702 9 -46329257.265 9
  22947096.096    22947098.009    76897349.432 9 -99272730.066 8
  25351984.629    25351988.257   -10654616.176 9   4708510.158 9
 86  6 17  3 27 47.0800000  0  4G12G13G 9G 7
  20702401.884    20702404.819     9234156.582 9 -24450460.525 8
  21245097.591    21245100.478    37552983.744 9 -46322591.004 9
  22951554.019    22951558.021    76920778.241 9 -99254473.870 8
  25348938.659    25348941.896   -10670624.166 9   4696036.406 9
 86  6 17  3 27 53.0800000  0  4G12G13G 9G 7
  20702877.898    20702880.810     9236657.267 9 -24448511.941 8
  21246725.977    21246728.142    37561543.946 9 -46315920.721 9
  22956015.442    22956019.495    76944215.463 9 -99236211.122 9
  25345894.384    25345897.184   -10686619.987 9   4683572.136 9
 86  6 17  3 27 59.0800000  0  4G12G13G 9G 7
  20703358.523    20703361.742     9239184.153 8 -24446542.945 9
  21248355.050    21248358.908    37570109.126 9 -46309246.549 9
  22960477.376    22960480.681    76967661.182 9 -99217941.749 9
  25342852.285    25342855.681   -10702603.744 9   4671117.271 9
 86  6 17  3 28  5.0800000  0  4G12G13G 9G 7
  20703844.810    20703847.403     9241737.250 9 -24444553.524 8
  21249986.692    21249989.867    37578679.341 9 -46302568.457 9
  22964940.728    22964943.804    76991115.337 9 -99199665.796 9
                  25339817.076                     4658674.590 9
 86  6 17  3 28 11.0800000  0  4G12G13G 9G 7
  20704334.933    20704338.230     9244316.579 9 -24442543.658 9
  21251618.335    21251620.973    37587254.567 9 -46295886.461 9
  22969405.123    22969407.851    77014577.937 9 -99181383.264 8
  25336798.293    25336783.669   -10754836.975 9   4646249.245 8
 86  6 17  3 28 17.0800000  0  4G12G13G 9G 7
  20704831.008    20704834.194     9246922.090 9 -24440513.383 9
  21253251.458    21253253.561    37595834.833 9 -46289200.545 8
  22973870.700    22973873.446    77038048.909 9 -99163094.214 8
  25333750.545    25333753.671   -10770754.371 9   4633846.282 8
 86  6 17  3 28 23.0800000  0  4G12G13G 9G 7
  20705331.666    20705335.149     9249553.839 9 -24438462.679 8
  21254884.118    21254887.563    37604420.120 9 -46282510.702 9
  22978338.620    22978341.660    77061528.265 8 -99144798.620 8
  25330727.756    25330730.401   -10786642.796 9   4621465.687 9
 86  6 17  3 28 29.0800000  0  4G12G13G 9G 7
  20705836.654    20705839.846     9252211.837 9 -24436391.519 8
  21256519.929    21256522.431    37613010.451 9 -46275816.941 8
  22982807.599    22982809.869    77085015.923 9 -99126496.546 8
  25327708.722    25327711.108   -10802505.533 9   4609104.718 9
 86  6 17  3 28 35.0800000  0  4G12G13G 9G 7
  20706347.078    20706350.978     9254896.006 9 -24434299.956 9
  21258154.573    21258156.840    37621605.690 9 -46269119.349 9
  22987279.365    22987281.367    77108511.853 9 -99108188.031 7
  25324693.420    25324696.677   -10818348.338 9   4596759.683 9
 86  6 17  3 28 41.0800000  0  4G12G13G 9G 7
  20706862.872    20706867.705     9257606.355 9 -24432187.994 8
  21259791.290    21259794.239    37630205.857 9 -46262417.925 9
  22991751.986    22991753.179    77132016.102 9 -99089873.030 8
  25321682.170    25321684.755   -10834174.543 9   4584427.574 9
 86  6 17  3 28 47.0800000  0  4G12G13G 9G 7
  20707385.288    20707388.098     9260342.921 9 -24430055.615 9
  21261429.343    21261431.689    37638810.989 9 -46255712.619 9
  22996227.371    22996228.599    77155528.601 9 -99071551.603 7
  25318673.171    25318676.525   -10849986.494 9   4572106.586 8
 86  6 17  3 28 53.0800000  0  4G12G13G 9G 7
  20707909.645    20707913.719     9263105.752 9 -24427902.761 9
  21263067.650    21263070.019    37647421.075 9 -46249003.465 9
  23000702.703    23000705.391    77179049.272 9 -99053223.803 9
  25315666.780    25315668.693   -10865786.179 9   4559795.140 8
 86  6 17  3 28 59.0800000  0  4G12G13G 9G 7
  20708441.698    20708443.928     9265894.836 9 -24425729.450 9
  21264707.484    21264709.755    37656036.033 9 -46242290.494 9
  23005180.817    23005182.890    77202578.195 9 -99034889.583 9
  25312661.598    25312664.671   -10881573.513 9   4547493.327 9
 86  6 17  3 29  5.0800000  0  4G12G13G 9G 7
  20708977.038    20708979.578     9268710.117 9 -24423535.733 9
  21266347.336    21266350.534    37664655.903 9 -46235573.714 9
  23009658.751    23009662.028    77226115.331 9 -99016548.985 8
                  25309664.245                     4535204.279 9
 86  6 17  3 29 11.0800000  0  4G12G13G 9G 7
  20709517.704    20709520.908     9271551.621 9 -24421321.571 8
  21267988.581    21267991.394    37673280.755 9 -46228853.047 9
  23014139.381    23014142.639    77249660.558 8 -98998202.082 9
  25306718.228    25306666.951   -10933613.892 9   4522933.236 8
 86  6 17  3 29 17.0800000  0  4G12G13G 9G 7
  20710063.637    20710066.709     9274419.273 8 -24419087.034 9
  21269630.819    21269632.837    37681910.604 9 -46222128.487 9
  23018620.531    23018624.389    77273213.880 8 -98979848.884 9
  25303673.621    25303676.485   -10949333.049 9   4510684.860 8
 86  6 17  3 29 23.0800000  0  4G12G13G 9G 7
  20710613.715    20710618.066     9277313.040 9 -24416832.156 9
  21271273.310    21271277.075    37690545.317 9 -46215400.138 8
  23023104.699    23023108.396    77296775.410 9 -98961489.270 9
  25300687.497    25300690.344   -10965022.790 9   4498459.101 8
 86  6 17  3 29 29.0800000  0  4G12G13G 9G 7
  20711169.659    20711173.589     9280233.039 9 -24414556.840 8
  21272917.246    21272920.509    37699184.939 9 -46208667.965 9
  23027590.479    23027592.135    77320344.983 8 -98943123.373 7
  25297707.236    25297708.920   -10980687.454 9   4486252.876 9
 86  6 17  3 29 35.0800000  0  4G12G13G 9G 7
  20711730.694    20711733.657     9283179.237 9 -24412261.104 9
  21274562.656    21274565.756    37707829.378 9 -46201932.035 9
  23032077.311    23032076.586    77343922.483 9 -98924751.266 8
  25294729.447    25294732.478   -10996331.772 9   4474062.498 9
 86  6 17  3 29 41.0800000  0  4G12G13G 9G 7
  20712295.759    20712300.018     9286151.580 9 -24409944.991 8
  21276208.131    21276212.142    37716478.663 9 -46195192.328 9
  23036565.912    23036566.305    77367508.005 9 -98906372.920 8
  25291755.825    25291758.340   -11011959.541 9   4461885.028 9
 86  6 17  3 29 47.0800000  0  4G12G13G 9G 7
  20712867.137    20712869.805     9289150.141 9 -24407608.452 8
  21277855.901    21277858.466    37725132.815 9 -46188448.839 9
  23041055.080    23041056.700    77391101.488 9 -98887988.389 8
  25288785.179    25288787.637   -11027572.968 9   4449718.716 9
 86  6 17  3 29 53.0800000  0  4G12G13G 9G 7
  20713442.830    20713444.586     9292174.805 8 -24405251.567 9
  21279503.055    21279505.919    37733791.778 9 -46181701.598 9
  23045546.184    23045548.089    77414702.993 9 -98869597.625 8
  25285815.290    25285818.250   -11043173.948 9   4437562.121 9
 86  6 17  3 29 59.0800000  0  4G12G13G 9G 7
  20714023.529    20714026.058     9295225.643 9 -24402874.306 8
  21281151.705    21281154.508    37742455.527 9 -46174950.618 9
  23050039.260    23050041.080    77438312.379 8 -98851200.714 9
  25282849.200    25282852.030   -11058762.236 9   4425415.409 8
 86  6 17  3 30  5.0800000  0  4G12G13G 9G 7
  20714608.194    20714611.132     9298302.657 9 -24400476.627 9
  21282800.891    21282804.587    37751124.032 9 -46168195.933 9
  23054531.743    23054535.170    77461929.713 7 -98832797.636 8
                  25279888.382                     4413281.910 9
 86  6 17  3 30 11.0800000  0  4G12G13G 9G 7
  20715199.315    20715202.156     9301405.878 9 -24398058.537 9
  21284451.980    21284454.463    37759797.440 9 -46161437.437 8
  23059027.538    23059032.378    77485554.936 7 -98814388.416 8
  25276952.440    25276930.378   -11110604.165 9   4401167.123 9
 86  6 17  3 30 17.0800000  0  4G12G13G 9G 7
  20715793.919    20715797.572     9304535.221 9 -24395620.086 9
  21286102.918    21286106.838    37768475.567 9 -46154675.267 9
  23063524.820    23063529.508    77509187.988 9 -98795973.066 8
  25273974.072    25273977.106   -11126122.072 9   4389075.410 9
 86  6 17  3 30 23.0800000  0  4G12G13G 9G 7
  20716394.957    20716397.715     9307690.800 9 -24393161.208 9
  21287755.649    21287758.203    37777158.440 9 -46147909.379 9
  23068024.432    23068026.960    77532828.860 9 -98777551.626 9
  25271026.471    25271029.069   -11141610.920 9   4377006.184 9
 86  6 17  3 30 29.0800000  0  4G12G13G 9G 7
  20717000.699    20717002.198     9310872.618 9 -24390681.866 9
  21289408.596    21289411.309    37785846.174 9 -46141139.716 9
  23072525.412    23072527.806    77556477.568 9 -98759124.062 8
  25268084.694    25268087.044   -11157075.325 9   4364956.397 9
 86  6 17  3 30 35.0800000  0  4G12G13G 9G 7
  20717610.144    20717614.384     9314080.630 9 -24388182.124 9
  21291062.970    21291066.367    37794538.714 9 -46134366.319 9
  23077026.607    23077029.847    77580133.972 9 -98740690.486 8
  25265145.157    25265148.832   -11172519.000 9   4352922.376 8
 86  6 17  3 30 41.0800000  0  4G12G13G 9G 7
  20718225.405    20718228.962     9317314.768 9 -24385662.024 9
  21292718.054    21292721.517    37803236.038 9 -46127589.179 9
  23081530.176    23081531.787    77603798.166 9 -98722250.858 9
  25262209.311    25262212.302   -11187945.991 9   4340901.343 9
 86  6 17  3 30 47.0800000  0  4G12G13G 9G 7
  20718846.633    20718849.809     9320575.055 9 -24383121.546 8
  21294373.930    21294376.511    37811938.049 9 -46120808.387 9
  23086034.132    23086037.233    77627470.055 8 -98703805.223 8
  25259276.075    25259279.774   -11203358.577 9   4328891.538 9
 86  6 17  3 30 53.0800000  0  4G12G13G 9G 7
  20719471.270    20719474.426     9323861.509 9 -24380560.680 9
  21296030.692    21296034.206    37820644.710 9 -46114023.973 9
  23090539.321    23090542.064    77651149.678 8 -98685353.576 9
  25256345.977    25256349.174   -11218758.560 9   4316891.558 8
 86  6 17  3 30 59.0800000  0  4G12G13G 9G 7
  20720101.958    20720106.083     9327174.067 9 -24377979.470 9
  21297688.359    21297691.153    37829356.061 9 -46107235.904 9
  23095045.512    23095048.811    77674837.029 8 -98666895.930 8
  25253419.179    25253421.404   -11234145.445 9   4304901.784 9
 86  6 17  3 31  5.0800000  0  4G12G13G 9G 7
  20720737.392    20720741.322     9330512.684 8 -24375377.950 8
  21299346.947    21299350.100    37838072.129 9 -46100444.156 8
  23099555.093    23099559.917    77698531.997 9 -98648432.336 8
                  25250496.212                     4292925.786 8
 86  6 17  3 31 11.0800000  0  4G12G13G 9G 7
  20721378.513    20721380.287     9333877.484 8 -24372756.035 9
  21301006.527    21301009.505    37846792.941 9 -46093648.727 9
  23104065.900    23104070.186    77722234.558 9 -98629962.831 9
  25247579.851    25247576.629   -11285781.254 9   4280969.295 9
 86  6 17  3 31 17.0800000  0  4G12G13G 9G 7
  20722022.357    20722026.118     9337268.427 9 -24370113.749 9
  21302666.654    21302668.947    37855518.388 9 -46086849.664 9
  23108579.289    23108583.134    77745944.661 9 -98611487.449 8
  25244660.581    25244662.694   -11301095.563 9   4269036.119 9
 86  6 17  3 31 23.0800000  0  4G12G13G 9G 7
  20722672.799    20722676.226     9340685.432 9 -24367451.145 9
  21304327.035    21304331.831    37864248.557 9 -46080046.935 9
  23113092.955    23113096.134    77769662.297 9 -98593006.185 9
  25241750.848    25241754.311   -11316380.354 9   4257125.513 9
 86  6 17  3 31 29.0800000  0  4G12G13G 9G 7
  20723328.454    20723332.217     9344128.535 9 -24364768.213 9
  21305990.259    21305993.086    37872983.354 9 -46073240.606 9
  23117607.526    23117609.562    77793387.545 9 -98574518.994 9
  25238847.135    25238851.104   -11331640.969 9   4245234.134 9
 86  6 17  3 31 35.0800000  0  4G12G13G 9G 7
  20723989.126    20723992.948     9347597.744 9 -24362064.938 9
  21307653.458    21307656.666    37881722.814 9 -46066430.622 9
  23122123.450    23122124.893    77817120.240 9 -98556025.993 8
  25235947.262    25235950.190   -11346881.486 9   4233358.401 9
 86  6 17  3 31 41.0800000  0  4G12G13G 9G 7
  20724654.687    20724657.939     9351093.027 9 -24359341.339 9
  21309317.617    21309320.399    37890466.878 9 -46059617.070 9
  23126640.216    23126643.335    77840860.509 8 -98537527.078 8
  25233050.074    25233053.398   -11362105.339 9   4221495.670 8
 86  6 17  3 31 47.0800000  0  4G12G13G 9G 7
  20725323.769    20725327.435     9354614.429 9 -24356597.396 8
  21310982.570    21310984.679    37899215.534 9 -46052799.937 9
  23131158.864    23131162.968    77864608.174 9 -98519022.405 8
  25230155.908    25230158.628   -11377314.914 9   4209644.048 9
 86  6 17  3 31 53.0800000  0  4G12G13G 9G 7
  20725999.163    20726002.722     9358162.006 9 -24353833.038 9
  21312649.245    21312651.121    37907968.820 9 -46045979.193 9
  23135679.231    23135683.290    77888363.414 9 -98500511.834 8
  25227264.009    25227267.680   -11392511.764 9   4197802.352 9
 86  6 17  3 31 59.0800000  0  4G12G13G 9G 7
  20726679.233    20726682.582     9361735.713 8 -24351048.338 9
  21314315.357    21314316.687    37916726.738 9 -46039154.838 9
  23140201.438    23140205.414    77912125.995 9 -98481995.574 9
  25224374.147    25224377.860   -11407694.921 9   4185971.324 9
 86  6 17  3 32  5.0800000  0  4G12G13G 9G 7
  20727364.618    20727367.983     9365335.538 9 -24348243.277 9
  21315982.740    21315984.876    37925489.245 9 -46032326.906 9
  23144725.443    23144728.673    77935895.968 8 -98463473.542 8
                  25221492.274                     4174154.782 8
 86  6 17  3 32 11.0800000  0  4G12G13G 9G 7
  20728053.799    20728057.804     9368961.417 9 -24345417.923 9
  21317650.861    21317652.927    37934256.400 9 -46025495.356 9
  23149250.686    23149252.574    77959673.191 9 -98444945.828 7
  25218523.233    25218611.134   -11459129.855 9   4162358.248 9
 86  6 17  3 32 17.0800000  0  4G12G13G 9G 7
  20728748.927    20728752.008     9372613.387 9 -24342572.232 9
  21319320.560    21319322.268    37943028.090 9 -46018660.274 9
  23153777.084    23153780.444    77983457.768 9 -98426412.387 7
  25215732.511    25215735.863   -11474238.385 9   4150585.392 9
 86  6 17  3 32 23.0800000  0  4G12G13G 9G 7
  20729449.050    20729452.550     9376291.413 8 -24339706.243 9
  21320990.042    21320991.097    37951804.323 9 -46011821.653 9
  23158303.597    23158307.153    78007249.670 9 -98407873.246 9
  25212863.381    25212866.330   -11489318.476 9   4138835.060 9
 86  6 17  3 32 29.0800000  0  4G12G13G 9G 7
  20730154.195    20730156.942     9379995.467 9 -24336819.971 9
  21322660.579    21322661.926    37960585.022 9 -46004979.543 9
  23162832.409    23162835.126    78031048.770 9 -98389328.508 9
  25209998.789    25210001.991   -11504373.468 9   4127103.905 9
 86  6 17  3 32 35.0800000  0  4G12G13G 9G 7
  20730863.338    20730868.008     9383725.554 9 -24333913.408 9
  21324332.402    21324334.351    37969370.301 9 -45998133.871 9
  23167362.385    23167364.721    78054855.147 9 -98370778.094 9
  25207137.499    25207139.926   -11519408.452 9   4115388.331 9
 86  6 17  3 32 41.0800000  0  4G12G13G 9G 7
  20731579.296    20731581.577     9387481.692 8 -24330986.555 8
  21326004.739    21326006.950    37978160.084 9 -45991284.692 8
  23171893.976    23171897.413    78078668.781 8 -98352222.053 9
  25204280.021    25204283.201   -11534426.756 9   4103685.763 9
 86  6 17  3 32 47.0800000  0  4G12G13G 9G 7
  20732297.581    20732302.143     9391263.917 8 -24328039.376 8
  21327679.149    21327680.520    37986954.258 9 -45984432.082 9
  23176426.508    23176430.518    78102489.557 8 -98333660.439 9
  25201424.108    25201428.174   -11549430.597 9   4091994.469 9
 86  6 17  3 32 53.0800000  0  4G12G13G 9G 7
  20733022.991    20733026.240     9395072.195 9 -24325071.891 9
  21329353.135    21329355.692    37995752.992 9 -45977575.936 9
  23180961.310    23180964.251    78126317.489 8 -98315093.237 8
  25198572.503    25198575.044   -11564421.438 9   4080313.285 9
 86  6 17  3 32 59.0800000  0  4G12G13G 9G 7
  20733753.136    20733754.984     9398906.620 8 -24322084.028 9
  21331028.735    21331030.622    38004556.197 9 -45970716.296 8
  23185496.421    23185499.681    78150152.606 9 -98296520.426 8
  25195721.563    25195725.972   -11579398.248 9   4068643.064 9
 86  6 17  3 33  5.0800000  0  4G12G13G 9G 7
  20734486.784    20734489.838     9402767.088 9 -24319075.871 8
  21332703.727    21332706.417    38013363.843 9 -45963853.194 9
  23190033.580    23190036.700    78173994.716 9 -98277942.133 9
                  25192879.684                     4056987.961 8
 86  6 17  3 33 11.0800000  0  4G12G13G 9G 7
  20735227.010    20735229.688     9406653.585 9 -24316047.434 9
  21334381.391    21334383.890    38022175.996 9 -45956986.575 9
  23194573.340    23194574.351    78197843.993 9 -98259358.269 7
  25190040.054    25190037.115   -11630627.074 9   4045353.454 9
 86  6 17  3 33 17.0800000  0  4G12G13G 9G 7
  20735971.220    20735973.453     9410566.039 9 -24312998.777 8
  21336059.376    21336061.557    38030992.625 9 -45950116.481 8
  23199113.035    23199114.516    78221700.335 9 -98240768.897 8
  25187198.997    25187202.437   -11645527.154 9   4033743.022 9
 86  6 17  3 33 23.0800000  0  4G12G13G 9G 7
  20736721.830    20736723.487     9414504.573 8 -24309929.788 9
  21337738.404    21337738.961    38039813.676 9 -45943242.928 8
  23203652.959    23203656.082    78245563.628 9 -98222174.141 8
  25184369.383    25184372.337   -11660398.073 9   4022154.899 9
 86  6 17  3 33 29.0800000  0  4G12G13G 9G 7
  20737475.831    20737477.463     9418469.120 9 -24306840.540 9
  21339417.248    21339419.806    38048639.181 9 -45936365.912 9
  23208196.118    23208199.288    78269433.919 9 -98203573.928 9
  25181544.450    25181546.930   -11675245.025 9   4010585.860 8
 86  6 17  3 33 35.0800000  0  4G12G13G 9G 7
  20738235.174    20738236.402     9422459.707 9 -24303730.984 8
  21341098.037    21341099.704    38057469.092 9 -45929485.469 9
  23212739.275    23212743.403    78293311.276 9 -98184968.229 9
  25178722.449    25178725.357   -11690072.112 9   3999032.295 9
 86  6 17  3 33 41.0800000  0  4G12G13G 9G 7
  20738999.158    20739002.407     9426476.316 9 -24300601.165 7
  21342779.672    21342781.039    38066303.379 9 -45922601.595 8
  23217283.569    23217288.184    78317195.536 9 -98166357.133 8
  25175904.466    25175907.267   -11704882.293 9   3987491.899 9
 86  6 17  3 33 47.0800000  0  4G12G13G 9G 7
  20739768.769    20739770.691     9430518.883 9 -24297451.117 7
  21344460.271    21344463.684    38075142.076 9 -45915714.305 9
  23221830.676    23221834.412    78341086.776 9 -98147740.620 9
  25173088.817    25173091.306   -11719677.988 9   3975962.797 9
 86  6 17  3 33 53.0800000  0  4G12G13G 9G 7
  20740542.777    20740545.102     9434587.495 9 -24294280.769 9
  21346143.251    21346145.731    38083985.228 9 -45908823.548 9
  23226377.978    23226381.616    78364984.857 9 -98129118.746 9
  25170275.938    25170279.121   -11734460.434 9   3964444.015 9
 86  6 17  3 33 59.0800000  0  4G12G13G 9G 7
  20741322.510    20741324.727     9438682.134 9 -24291090.146 8
  21347827.281    21347828.980    38092832.807 9 -45901929.312 9
  23230927.437    23230930.604    78388889.847 9 -98110491.487 8
  25167465.813    25167467.384   -11749228.408 9   3952936.513 8
 86  6 17  3 34  5.0800000  0  4G12G13G 9G 7
  20742106.469    20742108.847     9442802.767 9 -24287879.266 8
  21349511.412    21349514.115    38101684.772 9 -45895031.678 9
  23235477.469    23235480.736    78412801.727 9 -98091858.870 8
                  25164661.950                     3941444.719 9
 86  6 17  3 34 11.0800000  0  4G12G13G 9G 7
  20742894.945    20742897.776     9446949.405 9 -24284648.124 9
  21351196.495    21351198.330    38110541.146 9 -45888130.604 9
  23240029.697    23240031.966    78436720.424 9 -98073220.914 8
  25161858.079    25161859.718   -11800245.773 9   3929974.188 9
 86  6 17  3 34 17.0800000  0  4G12G13G 9G 7
  20743689.265    20743691.589     9451122.039 9 -24281396.723 9
  21352882.766    21352884.753    38119401.838 9 -45881226.162 9
  23244581.633    23244584.807    78460645.837 9 -98054577.737 8
  25159063.237    25159065.152   -11814935.486 9   3918527.645 9
 86  6 17  3 34 23.0800000  0  4G12G13G 9G 7
  20744487.501    20744491.053     9455320.705 9 -24278125.042 9
  21354569.101    21354571.524    38128266.975 9 -45874318.260 9
  23249136.171    23249139.383    78484578.044 9 -98035929.264 7
  25156272.395    25156274.309   -11829596.492 9   3907103.492 9
 86  6 17  3 34 29.0800000  0  4G12G13G 9G 7
  20745292.213    20745294.800     9459545.337 9 -24274833.119 8
  21356256.237    21356259.577    38137136.402 9 -45867407.025 9
  23253691.702    23253693.313    78508516.994 9 -98017275.525 8
  25153487.311    25153489.663   -11844233.264 9   3895698.217 9
 86  6 17  3 34 35.0800000  0  4G12G13G 9G 7
  20746100.842    20746104.701     9463795.906 9 -24271520.989 9
  21357945.797    21357947.806    38146010.140 9 -45860492.415 9
  23258249.084    23258250.702    78532462.662 9 -97998616.573 8
  25150705.478    25150707.602   -11858850.137 9   3884308.458 9
 86  6 17  3 34 41.0800000  0  4G12G13G 9G 7
  20746913.498    20746917.411     9468072.443 8 -24268188.633 8
  21359635.554    21359637.715    38154888.204 9 -45853574.444 8
  23262805.305    23262808.611    78556414.977 9 -97979952.449 9
  25147926.827    25147928.871   -11873450.223 9   3872931.768 9
 86  6 17  3 34 47.0800000  0  4G12G13G 9G 7
  20747733.737    20747737.013     9472374.939 8 -24264836.040 9
  21361325.965    21361327.247    38163770.640 9 -45846653.067 9
  23267365.005    23267369.104    78580373.964 8 -97961283.143 9
  25145151.817    25145153.161   -11888035.787 9   3861566.406 9
 86  6 17  3 34 53.0800000  0  4G12G13G 9G 7
  20748556.654    20748560.089     9476703.344 9 -24261463.262 8
  21363016.240    21363019.385    38172657.337 9 -45839728.369 9
  23271926.026    23271929.480    78604339.548 9 -97942608.695 9
  25142378.392    25142380.931   -11902607.783 9   3850211.611 9
 86  6 17  3 34 59.0800000  0  4G12G13G 9G 7
  20749385.587    20749388.872     9481057.735 8 -24258070.234 8
  21364708.782    21364711.017    38181548.321 9 -45832800.325 9
  23276488.519    23276492.139    78628311.762 9 -97923929.063 9
  25139609.037    25139610.350   -11917164.682 9   3838868.578 9
 86  6 17  3 35  5.0800000  0  4G12G13G 9G 7
  20750218.651    20750222.207     9485438.070 9 -24254656.994 9
  21366400.625    21366402.933    38190443.503 9 -45825869.008 9
  23281051.731    23281054.709    78652290.562 9 -97905244.298 8
                  25136844.034                     3827541.921 8
 86  6 17  3 35 11.0800000  0  4G12G13G 9G 7
  20751057.177    20751060.611     9489844.331 9 -24251223.547 8
  21368094.146    21368097.143    38199342.998 9 -45818934.342 9
  23285616.077    23285618.941    78676275.901 9 -97886554.441 8
  25134084.098    25134084.107   -11967977.002 8   3816237.019 9
 86  6 17  3 35 17.0800000  0  4G12G13G 9G 7
  20751900.165    20751904.004     9494276.481 8 -24247769.916 8
  21369788.425    21369792.215    38208246.695 9 -45811996.388 9
  23290181.391    23290183.937    78700267.748 9 -97867859.482 7
  25131326.981    25131328.755   -11982453.819 9   3804956.417 9
 86  6 17  3 35 23.0800000  0  4G12G13G 9G 7
  20752748.618    20752752.082     9498734.528 9 -24244296.130 8
  21371483.876    21371486.756    38217154.574 9 -45805055.187 9
  23294747.707    23294748.931    78724266.123 9 -97849159.444 8
  25128578.168    25128580.408   -11996902.505 9   3793698.089 9
 86  6 17  3 35 29.0800000  0  4G12G13G 9G 7
  20753602.439    20753605.228     9503218.424 9 -24240802.191 9
  21373179.325    21373182.431    38226066.748 9 -45798110.639 9
  23299315.081    23299317.567    78748271.005 8 -97830454.349 8
  25125833.332    25125835.374   -12011326.499 9   3782458.621 9
 86  6 17  3 35 35.0800000  0  4G12G13G 9G 7
  20754459.640    20754464.235     9507728.186 8 -24237288.083 8
  21374876.913    21374879.732    38234983.146 9 -45791162.790 9
  23303885.162    23303887.122    78772282.301 9 -97811744.247 8
  25123091.816    25123093.520   -12025730.688 9   3771234.587 9
 86  6 17  3 35 41.0800000  0  4G12G13G 9G 7
  20755323.532    20755327.259     9512263.849 8 -24233753.803 8
  21376574.110    21376576.651    38243903.702 9 -45784211.701 9
  23308455.434    23308457.491    78796300.079 8 -97793029.103 8
  25120353.490    25120356.097   -12040118.053 9   3760023.654 9
 86  6 17  3 35 47.0800000  0  4G12G13G 9G 7
  20756191.854    20756194.772     9516825.440 9 -24230199.321 9
  21378272.160    21378275.643    38252828.435 9 -45777257.362 9
  23313026.904    23313029.762    78820324.183 9 -97774309.048 8
  25117618.487    25117622.488   -12054490.724 9   3748824.183 9
 86  6 17  3 35 53.0800000  0  4G12G13G 9G 7
  20757065.173    20757068.211     9521412.976 9 -24226624.626 9
  21379971.437    21379974.966    38261757.426 9 -45770299.710 8
  23317599.195    23317603.191    78844354.720 8 -97755583.969 9
  25114886.342    25114889.041   -12068849.715 9   3737635.363 8
 86  6 17  3 35 59.0800000  0  4G12G13G 9G 7
  20757942.677    20757946.853     9526026.411 9 -24223029.747 8
  21381671.070    21381672.817    38270690.587 9 -45763338.801 8
  23322173.339    23322177.401    78868391.536 9 -97736854.007 9
  25112156.828    25112159.151   -12083193.059 9   3726458.739 9
 86  6 17  3 36  5.0800000  0  4G12G13G 9G 7
  20758825.260    20758829.035     9530665.751 9 -24219414.668 9
  21383372.182    21383374.807    38279627.889 9 -45756374.668 9
  23326749.203    23326752.697    78892434.659 9 -97718119.129 9
                  25109434.702                     3715298.977 8
 86  6 17  3 36 11.0800000  0  4G12G13G 9G 7
  20759713.963    20759716.447     9535330.940 9 -24215779.467 9
  21385073.377    21385076.622    38288569.237 9 -45749407.373 8
  23331326.360    23331328.661    78916484.064 8 -97699379.346 9
  25106711.064    25106712.007   -12133785.765 9   3704161.575 8
 86  6 17  3 36 17.0800000  0  4G12G13G 9G 7
  20760606.933    20760608.845     9540021.954 9 -24212124.128 9
  21386775.493    21386778.076    38297514.728 9 -45742436.865 9
  23335902.965    23335907.240    78940539.663 9 -97680634.733 9
  25103997.543    25104000.985   -12148047.463 9   3693048.583 8
 86  6 17  3 36 23.0800000  0  4G12G13G 9G 7
  20761503.666    20761506.386     9544738.814 9 -24208448.662 8
  21388478.131    21388482.389    38306464.398 9 -45735463.089 9
  23340481.745    23340485.097    78964601.591 9 -97661885.195 9
  25101288.367    25101292.290   -12162280.600 9   3681957.836 9
 86  6 17  3 36 29.0800000  0  4G12G13G 9G 7
  20762405.378    20762409.146     9549481.531 9 -24204753.029 8
  21390182.744    21390185.775    38315418.175 9 -45728486.129 8
  23345061.410    23345065.142    78988669.767 9 -97643130.787 9
  25098584.702    25098587.379   -12176489.782 9   3670885.757 9
 86  6 17  3 36 35.0800000  0  4G12G13G 9G 7
  20763312.842    20763316.903     9554250.102 9 -24201037.272 9
  21391886.765    21391889.808    38324376.057 9 -45721505.958 8
  23349643.156    23349645.534    79012744.078 9 -97624371.595 8
  25095884.489    25095888.265   -12190679.230 9   3659829.042 8
 86  6 17  3 36 41.0800000  0  4G12G13G 9G 7
  20764225.491    20764229.227     9559044.505 9 -24197301.383 8
  21393592.637    21393595.147    38333337.958 9 -45714522.663 9
  23354224.507    23354228.470    79036824.541 8 -97605607.617 8
  25093188.625    25093190.388   -12204851.927 9   3648785.393 8
 86  6 17  3 36 47.0800000  0  4G12G13G 9G 7
  20765142.919    20765145.817     9563864.749 9 -24193545.337 9
  21395299.002    21395302.176    38342303.953 9 -45707536.169 9
  23358808.474    23358811.057    79060911.119 9 -97586838.866 9
  25090493.976    25090496.108   -12219009.703 9   3637753.365 8
 86  6 17  3 36 53.0800000  0  4G12G13G 9G 7
  20766064.135    20766067.905     9568710.781 9 -24189769.212 9
  21397005.252    21397008.829    38351274.099 9 -45700546.452 9
  23363394.043    23363395.457    79085003.740 9 -97568065.376 9
  25087802.267    25087805.112   -12233153.516 9   3626732.225 9
 86  6 17  3 36 59.0800000  0  4G12G13G 9G 7
  20766991.813    20766995.201     9573582.581 9 -24185973.007 9
  21398713.420    21398716.974    38360248.385 9 -45693553.498 9
  23367979.452    23367982.240    79109102.450 9 -97549287.173 9
  25085114.091    25085116.563   -12247281.251 9   3615723.606 9
 86  6 17  3 37  5.0800000  0  4G12G13G 9G 7
  20767923.330    20767927.594     9578480.198 9 -24182156.683 8
  21400421.473    21400425.381    38369226.799 9 -45686557.323 8
  23372565.543    23372569.832    79133207.276 8 -97530504.209 9
                  25082432.482                     3604732.652 8
 86  6 17  3 37 11.0800000  0  4G12G13G 9G 7
  20768861.488    20768864.415     9583403.557 9 -24178320.291 8
  21402131.523    21402134.636    38378209.307 9 -45679557.978 9
  23377154.730    23377158.466    79157318.034 8 -97511716.621 9
  25079751.936    25079753.882   -12297655.492 9   3593764.595 9
 86  6 17  3 37 17.0800000  0  4G12G13G 9G 7
  20769802.722    20769805.509     9588352.680 9 -24174463.844 8
  21403841.663    21403844.843    38387195.874 9 -45672555.455 8
  23381744.403    23381747.481    79181434.824 9 -97492924.346 9
  25077079.162    25077082.116   -12311699.540 9   3582821.192 9
 86  6 17  3 37 23.0800000  0  4G12G13G 9G 7
  20770749.137    20770752.242     9593327.639 9 -24170587.258 9
  21405552.527    21405554.768    38396186.472 9 -45665549.786 9
  23386333.905    23386338.308    79205557.551 9 -97474127.438 9
  25074411.604    25074414.753   -12325714.677 9   3571899.921 9
 86  6 17  3 37 29.0800000  0  4G12G13G 9G 7
  20771700.477    20771704.652     9598328.373 9 -24166690.568 9
  21407264.094    21407267.290    38405181.103 9 -45658540.994 8
  23390925.149    23390929.480    79229686.158 9 -97455325.944 9
  25071748.983    25071752.517   -12339706.419 9   3560997.259 9
 86  6 17  3 37 35.0800000  0  4G12G13G 9G 7
  20772657.063    20772660.806     9603354.861 9 -24162773.829 8
  21408975.868    21408979.875    38414179.695 9 -45651529.097 9
  23395519.087    23395521.863    79253820.796 8 -97436519.759 9
  25069090.913    25069092.739   -12353678.517 9   3550109.918 9
 86  6 17  3 37 41.0800000  0  4G12G13G 9G 7
  20773619.041    20773622.725     9608407.100 9 -24158837.024 8
  21410690.071    21410692.164    38423182.289 9 -45644514.085 9
  23400111.099    23400115.867    79277961.305 8 -97417708.990 8
  25066434.691    25066437.220   -12367633.657 9   3539235.796 8
 86  6 17  3 37 47.0800000  0  4G12G13G 9G 7
  20774584.314    20774589.694     9613485.094 8 -24154880.151 9
  21412403.822    21412407.038    38432188.878 9 -45637495.961 8
  23404706.525    23404709.823    79302107.635 8 -97398893.675 8
  25063782.260    25063784.392   -12381573.949 9   3528373.235 9
 86  6 17  3 37 53.0800000  0  4G12G13G 9G 7
  20775555.405    20775560.011     9618588.845 9 -24150903.206 8
  21414118.521    21414121.202    38441199.460 9 -45630474.727 9
  23409303.012    23409305.258    79326259.938 8 -97380073.710 9
  25061132.941    25061134.473   -12395500.123 9   3517521.681 8
 86  6 17  3 37 59.0800000  0  4G12G13G 9G 7
  20776531.946    20776535.958     9623718.391 9 -24146906.161 9
  21415834.066    21415836.207    38450214.007 9 -45623450.394 9
  23413899.192    23413903.181    79350417.971 9 -97361249.272 8
  25058485.957    25058487.354   -12409409.577 9   3506683.146 9
 86  6 17  3 38  5.0800000  0  4G12G13G 9G 7
  20777513.671    20777517.433     9628873.683 9 -24142889.058 9
  21417550.413    21417553.474    38459232.587 9 -45616422.937 9
  23418497.953    23418501.125    79374581.821 9 -97342420.309 7
                  25055846.209                     3495862.850 8
 86  6 17  3 38 11.0800000  0  4G12G13G 9G 7
  20778500.077    20778502.335     9634054.695 8 -24138851.908 8
  21419267.102    21419270.183    38468255.028 9 -45609392.456 9
  23423098.062    23423100.652    79398751.439 9 -97323586.840 8
  25053207.136    25053209.461   -12459568.274 9   3485065.875 8
 86  6 17  3 38 17.0800000  0  4G12G13G 9G 7
  20779490.683    20779494.550     9639261.444 9 -24134794.701 8
  21420984.434    21420987.626    38477281.421 9 -45602358.904 9
  23427698.056    23427700.792    79422926.724 8 -97304748.968 9
  25050575.961    25050577.685   -12473392.922 9   3474293.421 8
 86  6 17  3 38 23.0800000  0  4G12G13G 9G 7
  20780486.406    20780489.235     9644493.913 9 -24130717.458 9
  21422703.076    21422704.678    38486311.759 9 -45595322.275 8
  23432298.388    23432303.467    79447107.724 8 -97285906.651 8
  25047950.888    25047952.823   -12487189.796 9   3463543.002 8
 86  6 17  3 38 29.0800000  0  4G12G13G 9G 7
  20781487.043    20781489.869     9649752.077 8 -24126620.195 9
  21424421.667    21424425.007    38495345.997 9 -45588282.615 9
  23436900.844    23436905.114    79471294.319 8 -97267059.969 9
  25045328.974    25045332.059   -12500962.346 9   3452811.155 9
 86  6 17  3 38 35.0800000  0  4G12G13G 9G 7
  20782491.384    20782494.554     9655035.963 9 -24122502.885 9
  21426141.416    21426143.857    38504384.034 9 -45581239.993 9
  23441504.949    23441509.239    79495486.671 8 -97248208.823 8
  25042712.041    25042714.697   -12514715.037 9   3442094.775 9
 86  6 17  3 38 41.0800000  0  4G12G13G 9G 7
  20783502.758    20783506.212     9660345.533 9 -24118365.567 9
  21427862.888    21427864.831    38513426.096 9 -45574194.226 8
  23446109.815    23446112.868    79519684.634 8 -97229353.275 8
  25040099.513    25040100.735   -12528450.745 9   3431391.640 9
 86  6 17  3 38 47.0800000  0  4G12G13G 9G 7
  20784517.909    20784520.854     9665680.754 9 -24114208.263 8
  21429584.150    21429585.966    38522472.050 9 -45567145.424 8
  23450715.789    23450719.621    79543888.193 8 -97210493.381 8
  25037487.560    25037490.714   -12542171.554 9   3420700.102 8
 86  6 17  3 38 53.0800000  0  4G12G13G 9G 7
  20785537.512    20785540.624     9671041.581 9 -24110030.993 9
  21431306.252    21431308.412    38531521.864 9 -45560093.621 9
  23455322.834    23455327.233    79568097.252 8 -97191629.184 9
  25034879.423    25034881.512   -12555877.963 9   3410019.782 8
 86  6 17  3 38 59.0800000  0  4G12G13G 9G 7
  20786562.974    20786566.527     9676428.037 9 -24105833.757 9
  21433028.723    21433032.128    38540575.520 9 -45553038.836 9
  23459930.591    23459935.164    79592311.925 9 -97172760.627 9
  25032274.521    25032277.373   -12569566.896 9   3399353.088 9
 86  6 17  3 39  5.0800000  0  4G12G13G 9G 7
  20787593.599    20787596.506     9681840.229 9 -24101616.473 8
  21434752.026    21434754.550    38549633.072 9 -45545981.006 9
  23464539.894    23464544.688    79616532.113 8 -97153887.756 8
                  25029676.591                     3388705.249 9
 86  6 17  3 39 11.0800000  0  4G12G13G 9G 7
  20788627.512    20788631.314     9687278.057 8 -24097379.210 9
  21436476.793    21436479.158    38558694.450 9 -45538920.181 9
  23469151.237    23469152.510    79640757.782 9 -97135010.627 7
  25027080.143    25027082.402   -12619503.491 9   3378081.083 9
 86  6 17  3 39 17.0800000  0  4G12G13G 9G 7
  20789667.484    20789670.974     9692741.465 8 -24093122.007 9
  21438202.024    21438204.022    38567759.650 8 -45531856.386 8
  23473761.341    23473764.990    79664988.815 8 -97116129.308 8
  25024491.575    25024493.641   -12633106.090 9   3367481.643 9
 86  6 17  3 39 23.0800000  0  4G12G13G 9G 7
  20790711.862    20790715.412     9698230.514 8 -24088844.827 9
  21439928.323    21439930.357    38576828.720 9 -45524789.579 9
  23478373.522    23478375.639    79689225.330 8 -97097243.692 8
  25021907.295    25021910.536   -12646679.870 9   3356904.293 9
 86  6 17  3 39 29.0800000  0  4G12G13G 9G 7
  20791760.968    20791764.504     9703745.204 9 -24084547.658 8
  21441654.116    21441656.141    38585901.626 9 -45517719.778 9
  23482986.925    23482989.086    79713467.352 8 -97078353.814 8
  25019329.493    25019331.454   -12660230.673 9   3346345.230 8
 86  6 17  3 39 35.0800000  0  4G12G13G 9G 7
  20792815.748    20792818.541     9709285.500 9 -24080230.545 9
  21443382.170    21443383.651    38594978.343 9 -45510647.020 9
  23487599.480    23487604.621    79737714.689 9 -97059459.800 7
  25016754.480    25016756.335   -12673761.883 9   3335801.436 8
 86  6 17  3 39 41.0800000  0  4G12G13G 9G 7
  20793874.705    20793878.863     9714851.417 8 -24075893.475 8
  21445109.690    21445112.432    38604058.901 9 -45503571.248 8
  23492215.295    23492219.155    79761967.378 8 -97040561.617 9
  25014182.637    25014185.063   -12687275.899 9   3325271.029 8
 86  6 17  3 39 47.0800000  0  4G12G13G 9G 7
  20794937.440    20794942.660     9720442.949 9 -24071536.439 8
  21446838.333    21446840.959    38613143.297 9 -45496492.505 8
  23496832.093    23496835.529    79786225.507 8 -97021659.208 7
  25011613.680    25011617.316   -12700775.087 9   3314752.182 9
 86  6 17  3 39 53.0800000  0  4G12G13G 9G 7
  20796007.077    20796011.267     9726060.091 9 -24067159.447 9
  21448567.411    21448570.826    38622231.393 9 -45489410.880 9
  23501449.118    23501452.494    79810488.859 9 -97002752.721 8
  25009047.685    25009051.182   -12714259.352 9   3304244.965 8
 86  6 17  3 39 59.0800000  0  4G12G13G 9G 7
  20797080.744    20797084.201     9731702.840 8 -24062762.502 8
  21450297.895    21450300.256    38631323.284 9 -45482326.290 9
  23506066.892    23506070.557    79834757.469 9 -96983842.119 9
                  25006488.236                     3293751.813 8
 86  6 17  3 40  5.0800000  0  4G12G13G 9G 7
  20798159.620    20798163.471     9737371.232 9 -24058345.573 8
  21452028.258    21452030.786    38640418.968 9 -45475238.736 9
  23510686.758    23510689.422    79859031.342 9 -96964927.430 9
  25003981.435    25003930.345   -12764025.649 9   3283278.034 8
 86  6 17  3 40 11.0800000  0  4G12G13G 9G 7
  20799242.835    20799246.903     9743065.190 9 -24053908.734 8
  21453760.275    21453763.338    38649518.352 9 -45468148.315 9
  23515307.094    23515309.993    79883310.441 9 -96946008.647 8
  25001374.820    25001378.226   -12777436.134 9   3272828.526 9
 86  6 17  3 40 17.0800000  0  4G12G13G 9G 7
  20800332.230    20800335.371     9748784.743 9 -24049451.933 9
  21455492.272    21455495.844    38658621.535 9 -45461054.921 9
  23519927.179    23519930.220    79907594.767 9 -96927085.799 8
  24998829.427    24998832.363   -12790814.529 9   3262403.806 9
 86  6 17  3 40 23.0800000  0  4G12G13G 9G 7
  20801425.128    20801428.878     9754529.856 8 -24044975.225 9
  21457224.832    21457229.025    38667728.492 9 -45453958.597 8
  23524549.386    23524552.130    79931884.170 8 -96908158.993 8
  24996288.618    24996291.572   -12804164.905 9   3252000.904 9
 86  6 17  3 40 29.0800000  0  4G12G13G 9G 7
  20802523.445    20802526.118     9760300.451 8 -24040478.655 9
  21458959.221    21458962.266    38676839.102 9 -45446859.415 9
  23529172.816    23529175.305    79956178.725 9 -96889228.183 8
  24993752.891    24993755.950   -12817491.843 9   3241616.291 9
 86  6 17  3 40 35.0800000  0  4G12G13G 9G 7
  20803626.156    20803629.126     9766096.556 9 -24035962.221 8
  21460694.448    21460696.149    38685953.449 9 -45439757.328 9
  23533796.647    23533801.425    79980478.469 8 -96870293.331 8
  24991220.896    24991223.908   -12830799.194 9   3231246.924 9
 86  6 17  3 40 41.0800000  0  4G12G13G 9G 7
  20804734.203    20804737.117     9771918.175 9 -24031425.903 8
  21462429.461    21462431.848    38695071.495 9 -45432652.372 9
  23538421.909    23538424.307    80004783.362 9 -96851354.468 8
  24988691.134    24988695.497   -12844089.394 9   3220890.929 9
 86  6 17  3 40 47.0800000  0  4G12G13G 9G 7
  20805846.722    20805850.519     9777765.324 9 -24026869.672 9
  21464164.790    21464167.470    38704193.216 9 -45425544.530 9
  23543047.451    23543051.985    80029093.276 9 -96832411.681 9
  24986165.688    24986168.710   -12857364.401 9   3210546.774 9
 86  6 17  3 40 53.0800000  0  4G12G13G 9G 7
  20806964.658    20806967.531     9783637.919 9 -24022293.630 8
  21465901.659    21465904.374    38713318.594 9 -45418433.851 9
  23547675.044    23547678.817    80053408.201 9 -96813465.005 9
  24983641.993    24983644.423   -12870624.323 9   3200214.363 9
 86  6 17  3 40 59.0800000  0  4G12G13G 9G 7
  20808086.605    20808089.906     9789536.009 9 -24017697.723 8
  21467638.286    21467640.537    38722447.662 9 -45411320.287 9
  23552303.006    23552306.181    80077728.153 8 -96794514.414 9
  24981122.092    24981125.142   -12883865.651 9   3189896.452 8
 86  6 17  3 41  5.0800000  0  4G12G13G 9G 7
  20809214.520    20809217.657     9795459.637 9 -24013081.918 8
  21469376.595    21469378.730    38731580.453 9 -45404203.821 9
  23556931.598    23556935.757    80102053.073 8 -96775559.945 9
                  24978610.740                     3179598.660 8
 86  6 17  3 41 11.0800000  0  4G12G13G 9G 7
  20810346.357    20810349.772     9801408.714 9 -24008446.274 9
  21471115.067    21471117.665    38740716.898 9 -45397084.513 9
  23561560.575    23561565.332    80126382.939 9 -96756601.624 9
  24976099.509    24976100.593   -12933356.574 9   3169325.475 9
 86  6 17  3 41 17.0800000  0  4G12G13G 9G 7
  20811484.297    20811487.131     9807383.283 9 -24003790.769 8
  21472854.105    21472857.357    38749857.007 9 -45389962.355 9
  23566192.999    23566197.450    80150717.861 8 -96737639.363 9
  24973595.760    24973598.998   -12946508.778 9   3159076.993 9
 86  6 17  3 41 23.0800000  0  4G12G13G 9G 7
  20812626.339    20812628.430     9813383.264 9 -23999115.462 9
  21474594.407    21474596.954    38759000.738 9 -45382837.373 9
  23570823.859    23570828.159    80175057.670 9 -96718673.301 9
  24971098.538    24971101.025   -12959633.483 9   3148850.346 9
 86  6 17  3 41 29.0800000  0  4G12G13G 9G 7
  20813772.627    20813775.568     9819408.707 9 -23994420.317 9
  21476335.092    21476338.438    38768148.128 9 -45375709.523 9
  23575457.384    23575460.130    80199402.361 9 -96699703.425 9
  24968606.235    24968608.396   -12972734.158 9   3138642.025 8
 86  6 17  3 41 35.0800000  0  4G12G13G 9G 7
  20814923.986    20814926.859     9825459.607 9 -23989705.341 9
  21478076.196    21478079.007    38777299.134 9 -45368578.883 9
  23580092.105    23580094.325    80223751.855 8 -96680729.802 9
  24966116.156    24966119.334   -12985815.270 9   3128448.958 9
 86  6 17  3 41 41.0800000  0  4G12G13G 9G 7
  20816079.911    20816083.358     9831535.883 9 -23984970.577 8
  21479818.693    21479821.242    38786453.802 9 -45361445.377 9
  23584725.411    23584728.402    80248106.199 8 -96661752.403 9
  24963630.129    24963632.835   -12998879.255 9   3118269.241 9
 86  6 17  3 41 47.0800000  0  4G12G13G 9G 7
  20817240.778    20817244.332     9837637.552 9 -23980216.035 8
  21481561.794    21481563.073    38795611.974 9 -45354309.133 8
  23589360.117    23589363.648    80272465.330 8 -96642771.283 8
  24961147.785    24961150.917   -13011927.932 9   3108101.424 9
 86  6 17  3 41 53.0800000  0  4G12G13G 9G 7
  20818406.830    20818409.604     9843764.655 9 -23975441.674 9
  21483304.641    21483307.151    38804773.742 9 -45347170.096 9
  23593996.623    23594000.849    80296829.335 8 -96623786.356 8
  24958667.992    24958670.143   -13024961.071 9   3097945.738 9
 86  6 17  3 41 59.0800000  0  4G12G13G 9G 7
  20819578.233    20819581.389     9849917.177 9 -23970647.504 9
  21485048.554    21485051.213    38813939.148 9 -45340028.217 8
  23598633.202    23598637.283    80321198.012 8 -96604797.794 9
                  24956193.741                     3087805.036 8
 86  6 17  3 42  5.0800000  0  4G12G13G 9G 7
  20820753.590    20820756.238     9856095.152 9 -23965833.496 8
  21486792.940    21486795.567    38823108.156 9 -45332883.543 9
  23603270.970    23603275.273    80345571.512 9 -96585805.471 8
  24953743.037    24953721.171   -13074279.527 9   3077684.825 8
 86  6 17  3 42 11.0800000  0  4G12G13G 9G 7
  20821933.383    20821936.037     9862298.498 9 -23960999.733 9
  21488538.407    21488541.423    38832280.624 9 -45325736.156 9
  23607910.161    23607915.396    80369949.582 9 -96566809.568 8
  24951254.707    24951256.701   -13087235.117 9   3067589.610 8
 86  6 17  3 42 17.0800000  0  4G12G13G 9G 7
  20823119.529    20823121.514     9868527.262 8 -23956146.154 8
  21490284.745    21490287.828    38841456.654 9 -45318586.021 9
  23612550.361    23612555.224    80394332.421 9 -96547809.980 8
  24948795.030    24948797.380   -13100158.887 9   3057519.136 9
 86  6 17  3 42 23.0800000  0  4G12G13G 9G 7
  20824308.186    20824311.928     9874781.326 9 -23951272.859 9
  21492031.703    21492034.644    38850636.218 9 -45311433.106 9
  23617190.770    23617195.468    80418719.786 8 -96528806.837 8
  24946341.490    24946342.592   -13113054.833 9   3047470.351 9
 86  6 17  3 42 29.0800000  0  4G12G13G 9G 7
  20825502.925    20825507.077     9881060.774 9 -23946379.789 9
  21493779.186    21493781.513    38859819.343 9 -45304277.428 9
  23621834.500    23621837.346    80443111.926 9 -96509799.996 9
  24943891.996    24943893.039   -13125927.564 9   3037439.661 9
 86  6 17  3 42 35.0800000  0  4G12G13G 9G 7
  20826703.151    20826706.382     9887365.560 9 -23941466.969 8
  21495527.865    21495529.528    38869005.989 9 -45297119.005 9
  23626475.809    23626479.746    80467508.599 9 -96490789.623 9
  24941445.777    24941448.472   -13138780.653 9   3027424.260 8
 86  6 17  3 42 41.0800000  0  4G12G13G 9G 7
  20827908.316    20827910.465     9893695.723 9 -23936534.376 8
  21497275.946    21497278.591    38878196.175 9 -45289957.826 9
  23631118.630    23631122.830    80491909.792 9 -96471775.731 9
  24939003.336    24939006.005   -13151616.606 9   3017422.224 9
 86  6 17  3 42 47.0800000  0  4G12G13G 9G 7
  20829118.567    20829120.681     9900051.224 9 -23931582.049 8
  21499026.494    21499028.174    38887389.851 9 -45282793.920 9
  23635763.347    23635767.995    80516315.522 8 -96452758.310 9
  24936562.954    24936565.401   -13164437.079 9   3007432.239 9
 86  6 17  3 42 53.0800000  0  4G12G13G 9G 7
  20830331.978    20830335.258     9906432.010 9 -23926610.002 9
  21500776.019    21500777.764    38896587.067 9 -45275627.260 8
  23640408.867    23640413.655    80540725.813 8 -96433737.314 9
  24934126.271    24934128.431   -13177241.863 9   2997454.491 8
 86  6 17  3 42 59.0800000  0  4G12G13G 9G 7
  20831550.288    20831553.495     9912838.081 9 -23921618.276 8
  21502527.794    21502528.325    38905787.872 9 -45268457.806 8
  23645054.334    23645058.743    80565140.524 8 -96414712.890 9
  24931693.754    24931695.505   -13190026.615 9   2987492.339 9
 86  6 17  3 43  5.0800000  0  4G12G13G 9G 7
  20832774.692    20832776.912     9919269.434 9 -23916606.817 8
  21504278.063    21504280.486    38914992.195 9 -45261285.601 9
  23649700.934    23649705.205    80589559.890 9 -96395684.813 8
                  24929268.373                     2977551.480 8
 86  6 17  3 43 11.0800000  0  4G12G13G 9G 7
  20834003.415    20834006.602     9925726.099 8 -23911575.655 9
  21506030.418    21506033.323    38924199.940 9 -45254110.742 9
  23654348.981    23654353.801    80613983.521 9 -96376653.432 8
  24926844.516    24926846.689   -13239216.736 9   2967635.767 9
 86  6 17  3 43 17.0800000  0  4G12G13G 9G 7
  20835236.347    20835239.882     9932208.065 9 -23906524.767 9
  21507783.183    21507785.567    38933411.187 9 -45246933.151 9
  23658997.392    23659001.244    80638411.637 9 -96357618.545 8
  24924429.828    24924432.119   -13251909.967 9   2957744.934 9
 86  6 17  3 43 23.0800000  0  4G12G13G 9G 7
  20836475.123    20836478.542     9938715.330 9 -23901454.174 9
  21509537.480    21509538.030    38942625.913 9 -45239752.836 9
  23663646.665    23663650.628    80662844.074 9 -96338580.280 8
  24922018.644    24922020.956   -13264574.879 9   2947875.781 8
 86  6 17  3 43 29.0800000  0  4G12G13G 9G 7
  20837717.524    20837720.774     9945247.859 9 -23896363.892 8
  21511291.119    21511293.532    38951844.082 9 -45232569.861 9
  23668296.939    23668299.894    80687280.861 9 -96319538.636 9
  24919613.960    24919616.171   -13277217.188 9   2938024.637 8
 86  6 17  3 43 35.0800000  0  4G12G13G 9G 7
  20838966.606    20838969.781     9951805.634 9 -23891253.942 9
  21513045.929    21513048.402    38961065.616 9 -45225384.247 8
  23672948.249    23672951.756    80711722.092 9 -96300493.533 9
  24917211.468    24917213.653   -13289840.101 9   2928188.597 9
 86  6 17  3 43 41.0800000  0  4G12G13G 9G 7
  20840218.390    20840222.349     9958388.583 9 -23886124.375 8
  21514801.367    21514803.828    38970290.635 9 -45218195.925 9
  23677600.204    23677603.273    80736167.572 9 -96281445.111 8
  24914811.795    24914814.871   -13302445.896 9   2918365.894 9
 86  6 17  3 43 47.0800000  0  4G12G13G 9G 7
  20841475.825    20841478.895     9964996.798 9 -23880975.111 8
  21516558.034    21516560.098    38979519.042 9 -45211004.958 9
  23682252.866    23682255.925    80760617.333 9 -96262393.373 8
  24912416.218    24912419.819   -13315036.052 9   2908555.389 9
 86  6 17  3 43 53.0800000  0  4G12G13G 9G 7
  20842737.772    20842742.121     9971630.176 9 -23875806.257 8
  21518314.137    21518316.937    38988750.835 9 -45203811.343 9
  23686905.487    23686909.827    80785071.335 9 -96243338.315 9
  24910023.286    24910026.654   -13327610.026 9   2898757.489 9
 86  6 17  3 43 59.0800000  0  4G12G13G 9G 7
  20844004.830    20844008.418     9978288.784 9 -23870617.731 9
  21520071.751    21520074.446    38997986.107 9 -45196615.036 9
  23691560.147    23691565.697    80809529.591 9 -96224279.963 9
                  24907637.683                     2888975.793 8
 86  6 17  3 44  5.0800000  0  4G12G13G 9G 7
  20845276.860    20845281.177     9984972.687 9 -23865409.510 9
  21521829.524    21521832.735    39007224.795 9 -45189416.056 9
  23696215.110    23696219.888    80833992.051 7 -96205218.323 9
  24905239.046    24905253.631   -13376471.972 9   2879215.690 8
 86  6 17  3 44 11.0800000  0  4G12G13G 9G 7
  20846553.760    20846557.006     9991681.790 9 -23860181.632 8
  21523588.175    21523591.672    39016466.900 9 -45182214.415 9
  23700870.863    23700875.942    80858458.683 9 -96186153.451 9
  24902873.921    24902876.046   -13388964.793 9   2869481.189 9
 86  6 17  3 44 17.0800000  0  4G12G13G 9G 7
  20847834.637    20847839.466     9998416.023 8 -23854934.184 9
  21525348.034    21525350.302    39025712.319 9 -45175010.190 9
  23705527.772    23705531.877    80882929.443 8 -96167085.349 9
  24900502.670    24900505.728   -13401426.125 9   2859771.444 9
 86  6 17  3 44 23.0800000  0  4G12G13G 9G 7
  20849121.528    20849124.828    10005175.405 9 -23849667.134 8
  21527107.409    21527110.252    39034961.099 9 -45167803.356 9
  23710184.610    23710189.099    80907404.286 9 -96148014.054 9
  24898137.028    24898139.521   -13413859.326 9   2850083.236 9
 86  6 17  3 44 29.0800000  0  4G12G13G 9G 7
  20850412.592    20850416.296    10011959.984 8 -23844380.453 9
  21528868.578    21528871.131    39044213.214 9 -45160593.919 9
  23714843.553    23714847.267    80931883.307 9 -96128939.510 9
  24895775.485    24895777.399   -13426269.361 9   2840413.089 9
 86  6 17  3 44 35.0800000  0  4G12G13G 9G 7
  20851707.644    20851711.695    10018769.651 9 -23839074.220 9
  21530629.633    21530632.741    39053468.699 9 -45153381.847 9
  23719502.568    23719506.817    80956366.361 9 -96109861.827 9
  24893416.940    24893420.952   -13438660.080 9   2830757.982 9
 86  6 17  3 44 41.0800000  0  4G12G13G 9G 7
  20853008.317    20853011.953    10025604.496 9 -23833748.384 8
  21532391.953    21532394.024    39062727.527 9 -45146167.170 9
  23724161.136    23724166.319    80980853.521 8 -96090780.936 8
  24891062.654    24891065.563   -13451033.558 9   2821116.321 9
 86  6 17  3 44 47.0800000  0  4G12G13G 9G 7
  20854314.121    20854317.706    10032464.448 8 -23828402.965 8
  21534154.120    21534156.323    39071989.667 9 -45138949.919 9
  23728821.723    23728826.013    81005344.673 8 -96071696.920 8
  24888711.608    24888713.745   -13463391.090 9   2811487.077 9
 86  6 17  3 44 53.0800000  0  4G12G13G 9G 7
  20855624.131    20855627.677    10039349.524 9 -23823037.968 9
  21535917.878    21535920.041    39081255.108 9 -45131730.100 9
  23733483.778    23733487.259    81029839.743 9 -96052609.868 9
  24886362.658    24886366.170   -13475732.099 9   2801870.715 9
 86  6 17  3 44 59.0800000  0  4G12G13G 9G 7
  20856939.631    20856943.224    10046259.760 9 -23817653.370 8
  21537681.380    21537683.023    39090523.797 9 -45124507.740 9
  23738145.057    23738150.358    81054338.788 8 -96033519.704 8
                  24884021.935                     2792270.897 9
 86  6 17  3 45  5.0800000  0  4G12G13G 9G 7
  20858258.461    20858261.940    10053195.101 9 -23812249.213 9
  21539445.475    21539447.452    39099795.879 9 -45117282.746 9
  23742807.918    23742813.077    81078841.866 8 -96014426.407 8
  24881678.794    24881682.217   -13524353.100 9   2782693.350 8
 86  6 17  3 45 11.0800000  0  4G12G13G 9G 7
  20859584.293    20859586.876    10060155.467 9 -23806825.555 8
  21541210.091    21541213.068    39109071.293 9 -45110055.143 8
  23747472.015    23747476.400    81103348.822 8 -95995330.098 8
  24879346.532    24879349.336   -13536611.180 9   2773141.576 9
 86  6 17  3 45 17.0800000  0  4G12G13G 9G 7
  20860912.661    20860916.432    10067140.919 9 -23801382.349 9
  21542976.860    21542979.082    39118350.007 9 -45102824.984 9
  23752136.780    23752141.609    81127859.676 8 -95976230.746 8
  24877021.419    24877022.550   -13548837.384 9   2763614.673 9
 86  6 17  3 45 23.0800000  0  4G12G13G 9G 7
  20862247.680    20862250.025    10074151.429 9 -23795919.607 8
  21544742.779    21544744.658    39127631.933 9 -45095592.307 9
  23756800.940    23756806.003    81152374.303 9 -95957128.460 9
  24874699.049    24874701.176   -13561035.762 9   2754109.441 9
 86  6 17  3 45 29.0800000  0  4G12G13G 9G 7
  20863586.586    20863589.876    10081186.955 9 -23790437.379 8
  21546508.692    21546511.609    39136917.100 9 -45088357.121 9
  23761467.386    23761472.176    81176892.830 8 -95938023.149 8
  24872382.231    24872385.684   -13573211.280 9   2744622.035 9
 86  6 17  3 45 35.0800000  0  4G12G13G 9G 7
  20864929.459    20864933.628    10088247.452 9 -23784935.696 9
  21548276.082    21548278.604    39146205.488 9 -45081119.409 9
  23766134.464    23766137.964    81201415.092 8 -95918914.898 9
  24870069.030    24870070.609   -13585367.154 9   2735149.932 8
 86  6 17  3 45 41.0800000  0  4G12G13G 9G 7
  20866277.789    20866281.128    10095332.966 9 -23779414.501 8
  21550045.066    21550047.365    39155497.141 9 -45073879.164 9
  23770800.585    23770804.705    81225941.133 9 -95899803.731 9
  24867759.747    24867761.693   -13597505.654 9   2725691.361 9
 86  6 17  3 45 47.0800000  0  4G12G13G 9G 7
  20867630.969    20867634.953    10102443.598 9 -23773873.761 8
  21551813.231    21551815.547    39164792.059 9 -45066636.382 9
  23775468.834    23775472.203    81250470.979 8 -95880689.582 8
  24865452.345    24865454.862   -13609628.424 9   2716245.055 9
 86  6 17  3 45 53.0800000  0  4G12G13G 9G 7
  20868989.854    20868992.233    10109579.232 9 -23768313.530 8
  21553583.144    21553585.193    39174090.272 9 -45059391.024 9
  23780136.591    23780142.228    81275004.530 8 -95861572.547 9
  24863148.920    24863149.807   -13621734.334 9   2706811.893 8
 86  6 17  3 45 59.0800000  0  4G12G13G 9G 7
  20870351.938    20870354.608    10116739.842 9 -23762733.815 8
  21555353.809    21555355.732    39183391.725 9 -45052143.131 9
  23784805.608    23784810.524    81299541.804 9 -95842452.611 9
                  24860850.106                     2697395.952 8
 86  6 17  3 46  5.0800000  0  4G12G13G 9G 7
  20871719.149    20871721.920    10123925.468 9 -23757134.635 9
  21557123.881    21557125.749    39192696.364 9 -45044892.767 9
  23789476.630    23789481.255    81324082.778 9 -95823329.791 8
  24858555.488    24858557.322   -13670125.614 9   2688002.865 9
 86  6 17  3 46 11.0800000  0  4G12G13G 9G 7
  20873090.661    20873094.858    10131136.051 9 -23751516.004 8
  21558895.445    21558897.023    39202004.146 9 -45037639.945 8
  23794146.709    23794150.936    81348627.357 8 -95804204.162 9
  24856266.957    24856269.623   -13682146.744 9   2678635.737 9
 86  6 17  3 46 17.0800000  0  4G12G13G 9G 7
  20874468.030    20874470.920    10138371.630 9 -23745877.891 8
  21560667.568    21560668.989    39211315.222 9 -45030384.564 9
  23798818.680    23798823.249    81373175.653 9 -95785075.616 8
  24853985.366    24853988.242   -13694136.303 9   2669293.240 8
 86  6 17  3 46 23.0800000  0  4G12G13G 9G 7
  20875849.153    20875852.899    10145632.209 9 -23740220.298 8
  21562439.988    21562441.499    39220629.453 9 -45023126.723 9
  23803491.157    23803494.417    81397727.500 8 -95765944.317 8
  24851709.129    24851711.804   -13706098.388 9   2659972.133 9
 86  6 17  3 46 29.0800000  0  4G12G13G 9G 7
  20877234.982    20877239.378    10152917.674 9 -23734543.312 8
  21564212.814    21564214.526    39229946.879 9 -45015866.390 9
  23808163.749    23808167.305    81422282.959 9 -95746810.220 8
  24849436.852    24849439.828   -13718037.591 9   2650668.870 9
 86  6 17  3 46 35.0800000  0  4G12G13G 9G 7
  20878626.709    20878630.521    10160227.986 8 -23728846.971 9
  21565985.920    21565988.314    39239267.564 9 -45008603.511 9
  23812837.463    23812841.411    81446841.887 9 -95727673.410 8
  24847168.908    24847171.936   -13729957.261 9   2641380.818 9
 86  6 17  3 46 41.0800000  0  4G12G13G 9G 7
  20880022.020    20880027.066    10167563.221 9 -23723131.206 9
  21567760.876    21567762.771    39248591.448 9 -45001338.145 9
  23817511.132    23817514.117    81471404.366 8 -95708533.831 8
  24844904.757    24844906.506   -13741859.652 9   2632106.237 9
 86  6 17  3 46 47.0800000  0  4G12G13G 9G 7
  20881422.804    20881427.139    10174923.361 9 -23717396.035 9
  21569535.667    21569537.303    39257918.502 9 -44994070.320 9
  23822186.208    23822190.475    81495970.438 9 -95689391.449 8
  24842642.555    24842645.057   -13753745.959 9   2622844.187 9
 86  6 17  3 46 53.0800000  0  4G12G13G 9G 7
  20882828.879    20882832.763    10182308.373 9 -23711641.479 8
  21571311.044    21571312.824    39267248.682 9 -44986800.040 9
  23826861.858    23826866.329    81520539.898 7 -95670246.436 9
  24840384.249    24840386.664   -13765614.888 9   2613595.671 9
 86  6 17  3 46 59.0800000  0  4G12G13G 9G 7
  20884238.971    20884243.184    10189718.243 9 -23705867.555 9
  21573087.209    21573088.790    39276581.995 9 -44979527.331 9
  23831537.717    23831542.229    81545112.765 8 -95651098.760 9
                  24838133.507                     2604364.813 8
 86  6 17  3 47  5.0800000  0  4G12G13G 9G 7
  20885653.730    20885657.455    10197152.992 9 -23700074.246 9
  21574863.387    21574865.763    39285918.456 9 -44972252.168 8
  23836214.693    23836217.793    81569689.048 8 -95631948.420 9
  24835884.684    24835883.487   -13813772.444 9   2595157.312 9
 86  6 17  3 47 11.0800000  0  4G12G13G 9G 7
  20887073.507    20887077.356    10204612.573 9 -23694261.600 9
  21576641.129    21576642.574    39295258.010 9 -44964974.585 8
  23840891.878    23840895.680    81594268.764 9 -95612795.409 8
  24833639.408    24833641.855   -13825555.293 9   2585975.914 9
 86  6 17  3 47 17.0800000  0  4G12G13G 9G 7
  20888497.967    20888502.012    10212097.056 9 -23688429.534 8
  21578419.435    21578420.884    39304600.695 9 -44957694.570 9
  23845569.946    23845574.659    81618851.920 8 -95593639.717 8
  24831403.035    24831405.194   -13837306.577 9   2576819.070 9
 86  6 17  3 47 23.0800000  0  4G12G13G 9G 7
  20889926.008    20889931.401    10219606.389 9 -23682578.114 7
  21580197.882    21580198.803    39313946.479 9 -44950412.132 9
  23850248.646    23850252.984    81643438.358 8 -95574481.468 9
  24829172.140    24829174.377   -13849030.652 9   2567683.432 9
 86  6 17  3 47 29.0800000  0  4G12G13G 9G 7
  20891360.807    20891364.226    10227140.517 9 -23676707.353 9
  21581976.858    21581978.268    39323295.353 9 -44943127.297 9
  23854927.835    23854932.091    81668028.153 8 -95555320.610 8
  24826944.765    24826948.514   -13860731.953 9   2558565.542 8
 86  6 17  3 47 35.0800000  0  4G12G13G 9G 7
  20892798.966    20892801.903    10234699.407 8 -23670817.310 8
  21583756.191    21583757.820    39332647.317 9 -44935840.052 9
  23859607.527    23859612.161    81692621.232 8 -95536157.189 9
  24824722.353    24824725.020   -13872413.632 9   2549462.940 9
 86  6 17  3 47 41.0800000  0  4G12G13G 9G 7
  20894242.387    20894246.271    10242283.153 9 -23664907.909 9
  21585536.305    21585537.616    39342002.397 9 -44928550.379 9
  23864288.953    23864292.419    81717217.520 8 -95516991.275 8
  24822501.691    24822505.703   -13884077.654 9   2540374.103 9
 86  6 17  3 47 47.0800000  0  4G12G13G 9G 7
  20895690.301    20895694.508    10249891.657 9 -23658979.193 9
  21587317.806    21587318.513    39351360.480 9 -44921258.365 9
  23868969.167    23868973.120    81741817.020 8 -95497822.858 8
  24820285.164    24820289.379   -13895725.478 9   2531297.874 9
 86  6 17  3 47 53.0800000  0  4G12G13G 9G 7
  20897142.660    20897146.605    10257524.948 9 -23653031.174 9
  21589098.496    21589100.354    39360721.657 9 -44913963.944 9
  23873651.588    23873654.855    81766419.834 8 -95478651.852 8
  24818072.424    24818075.307   -13907355.487 9   2522235.534 9
 86  6 17  3 47 59.0800000  0  4G12G13G 9G 7
  20898600.235    20898603.489    10265183.016 9 -23647063.850 9
  21590880.874    21590883.668    39370085.831 9 -44906667.181 9
  23878333.772    23878338.207    81791025.800 8 -95459478.394 8
                  24815868.642                     2513191.551 9
 86  6 17  3 48  5.0800000  0  4G12G13G 9G 7
  20900062.564    20900065.030    10272865.837 9 -23641077.236 8
  21592662.470    21592665.338    39379453.035 9 -44899368.059 9
  23883016.106    23883020.940    81815634.875 7 -95440302.500 9
  24813659.160    24813664.542   -13955273.909 9   2504171.336 8
 86  6 17  3 48 11.0800000  0  4G12G13G 9G 7
  20901529.429    20901532.241    10280573.403 8 -23635071.339 8
  21594445.596    21594447.435    39388823.260 9 -44892066.586 9
  23887700.662    23887704.396    81840247.081 8 -95421124.178 9
  24811464.587    24811468.253   -13966816.032 9   2495177.481 9
 86  6 17  3 48 17.0800000  0  4G12G13G 9G 7
  20903000.430    20903003.136    10288305.760 9 -23629046.123 8
  21596229.285    21596231.588    39398196.484 9 -44884762.773 9
  23892384.266    23892388.281    81864862.474 8 -95401943.366 8
  24809274.386    24809277.412   -13978326.523 8   2486208.272 9
 86  6 17  3 48 23.0800000  0  4G12G13G 9G 7
  20904476.018    20904480.571    10296062.811 9 -23623001.658 9
  21598013.965    21598016.432    39407572.717 9 -44877456.620 9
  23897068.758    23897071.721    81889480.893 8 -95382760.188 8
  24807088.848    24807092.438   -13989809.915 9   2477260.172 9
 86  6 17  3 48 29.0800000  0  4G12G13G 9G 7
  20905957.420    20905960.716    10303844.533 9 -23616937.984 8
  21599798.321    21599800.327    39416952.016 9 -44870148.076 9
  23901754.435    23901757.786    81914102.346 8 -95363574.633 8
  24804908.641    24804912.015   -14001270.649 9   2468329.746 9
 86  6 17  3 48 35.0800000  0  4G12G13G 9G 7
  20907442.959    20907445.957    10311650.965 9 -23610855.050 8
  21601583.530    21601586.973    39426334.346 9 -44862837.169 9
  23906439.998    23906444.000    81938726.835 9 -95344386.749 9
  24802730.175    24802733.552   -14012711.790 9   2459414.581 8
 86  6 17  3 48 41.0800000  0  4G12G13G 9G 7
  20908932.979    20908936.109    10319482.074 9 -23604752.888 7
  21603370.449    21603371.792    39435719.718 9 -44855523.894 9
  23911126.030    23911130.276    81963354.367 8 -95325196.468 9
  24800556.609    24800559.759   -14024135.513 9   2450512.985 8
 86  6 17  3 48 47.0800000  0  4G12G13G 9G 7
  20910427.844    20910430.141    10327337.810 9 -23598631.527 8
  21605155.396    21605158.609    39445108.043 9 -44848208.305 9
  23915813.305    23915818.389    81987984.845 8 -95306003.912 9
  24798386.076    24798389.550   -14035542.770 9   2441624.210 9
 86  6 17  3 48 53.0800000  0  4G12G13G 9G 7
  20911926.581    20911930.551    10335218.154 8 -23592491.002 9
  21606943.416    21606946.107    39454499.293 9 -44840890.451 9
  23920500.434    23920506.642    82012618.246 9 -95286809.071 9
  24796218.885    24796221.401   -14046931.796 9   2432749.653 9
 86  6 17  3 48 59.0800000  0  4G12G13G 9G 7
  20913430.529    20913434.953    10343123.164 9 -23586331.258 9
  21608731.067    21608733.330    39463893.599 9 -44833570.206 9
  23925189.973    23925193.169    82037254.639 8 -95267611.904 9
                  24794059.521                     2423894.030 8
 86  6 17  3 49  5.0800000  0  4G12G13G 9G 7
  20914939.646    20914942.800    10351052.787 9 -23580152.331 8
  21610519.092    21610521.432    39473290.892 9 -44826247.642 8
  23929877.888    23929883.554    82061893.936 9 -95248412.478 9
  24791900.122    24791904.085   -14094603.500 9   2415062.752 8
 86  6 17  3 49 11.0800000  0  4G12G13G 9G 7
  20916454.353    20916456.383    10359007.007 9 -23573954.238 8
  21612308.098    21612310.663    39482691.113 9 -44818922.780 9
  23934566.963    23934572.206    82086536.059 8 -95229210.848 9
  24789749.950    24789752.362   -14105902.949 9   2406257.997 9
 86  6 17  3 49 17.0800000  0  4G12G13G 9G 7
  20917972.361    20917975.355    10366985.833 8 -23567736.976 8
  21614098.317    21614100.309    39492094.321 9 -44811595.608 9
  23939257.038    23939260.931    82111181.018 9 -95210007.005 7
  24787605.661    24787608.000   -14117170.526 9   2397477.681 9
 86  6 17  3 49 23.0800000  0  4G12G13G 9G 7
  20919495.382    20919498.238    10374989.269 9 -23561500.533 8
  21615887.049    21615888.904    39501500.502 9 -44804266.126 9
  23943947.407    23943951.369    82135828.786 9 -95190800.973 8
  24785466.837    24785468.912   -14128411.670 9   2388718.365 9
 86  6 17  3 49 29.0800000  0  4G12G13G 9G 7
  20921022.058    20921024.751    10383017.290 9 -23555244.926 8
  21617677.307    21617680.349    39510909.580 9 -44796934.365 8
  23948638.173    23948642.037    82160479.427 8 -95171592.692 8
  24783332.632    24783333.802   -14139630.166 9   2379976.679 8
 86  6 17  3 49 35.0800000  0  4G12G13G 9G 7
  20922555.517    20922558.252    10391069.818 9 -23548970.231 8
  21619468.799    21619471.832    39520321.619 9 -44789600.303 9
  23953329.200    23953333.984    82185132.792 9 -95152382.291 8
  24781201.650    24781202.692   -14150828.879 9   2371250.423 9
 86  6 17  3 49 41.0800000  0  4G12G13G 9G 7
  20924092.341    20924095.578    10399146.934 9 -23542676.377 8
  21621260.421    21621263.056    39529736.564 9 -44782263.981 9
  23958021.340    23958025.966    82209788.873 9 -95133169.769 8
  24779074.209    24779075.279   -14162009.982 9   2362537.877 9
 86  6 17  3 49 47.0800000  0  4G12G13G 9G 7
  20925633.310    20925638.021    10407248.562 9 -23536363.425 8
  21623052.803    21623054.598    39539154.433 9 -44774925.390 8
  23962714.203    23962718.780    82234447.639 9 -95113955.151 7
  24776949.375    24776951.189   -14173174.414 9   2353838.327 9
 86  6 17  3 49 53.0800000  0  4G12G13G 9G 7
  20927179.925    20927183.507    10415374.639 9 -23530031.419 9
  21624845.287    21624848.196    39548575.189 9 -44767584.528 9
  23967407.556    23967410.841    82259109.186 9 -95094738.367 8
  24774827.803    24774829.538   -14184320.240 9   2345153.276 9
 86  6 17  3 49 59.0800000  0  4G12G13G 9G 7
  20928731.993    20928734.685    10423525.278 9 -23523680.272 9
  21626639.112    21626641.368    39557998.895 9 -44760241.384 9
  23972100.776    23972104.604    82283773.345 9 -95075519.552 8
                  24772713.778                     2336487.691 8
 86  6 17  3 50  5.0800000  0  4G12G13G 9G 7
  20930286.863    20930290.727    10431700.429 9 -23517310.023 8
  21628432.271    21628434.998    39567425.464 9 -44752896.001 9
  23976795.762    23976798.081    82308440.189 9 -95056298.637 8
  24770602.126    24770603.576   -14231755.804 9   2327846.741 9
 86  6 17  3 50 11.0800000  0  4G12G13G 9G 7
  20931847.464    20931850.549    10439900.110 9 -23510920.662 8
  21630226.942    21630228.822    39576854.907 9 -44745548.390 9
  23981488.483    23981493.326    82333109.701 9 -95037075.664 8
  24768497.921    24768499.427   -14242810.860 9   2319232.427 9
 86  6 17  3 50 17.0800000  0  4G12G13G 9G 7
  20933413.160    20933416.656    10448124.303 9 -23504512.205 8
  21632021.468    21632024.774    39586287.209 9 -44738198.537 9
  23986184.239    23986188.058    82357781.740 8 -95017850.706 8
  24766400.239    24766402.102   -14253835.055 9   2310642.535 9
 86  6 17  3 50 23.0800000  0  4G12G13G 9G 7
  20934982.882    20934985.735    10456372.908 9 -23498084.712 9
  21633816.286    21633819.514    39595722.393 9 -44730846.434 9
  23990878.875    23990883.410    82382456.443 8 -94998623.680 8
  24764307.033    24764309.528   -14264832.021 9   2302073.478 9
 86  6 17  3 50 29.0800000  0  4G12G13G 9G 7
  20936556.311    20936560.187    10464645.967 9 -23491638.170 8
  21635613.196    21635615.321    39605160.478 9 -44723492.092 9
  23995574.920    23995578.123    82407133.542 9 -94979394.778 8
  24762218.898    24762221.793   -14275806.390 9   2293522.029 9
 86  6 17  3 50 35.0800000  0  4G12G13G 9G 7
  20938136.374    20938138.760    10472943.524 9 -23485172.547 8
  21637409.674    21637411.783    39614601.451 9 -44716135.484 9
  24000271.347    24000276.421    82431813.247 9 -94960163.857 7
  24760134.049    24760135.814   -14286760.956 9   2284986.009 9
 86  6 17  3 50 41.0800000  0  4G12G13G 9G 7
  20939718.145    20939722.032    10481265.430 9 -23478687.938 8
  21639206.475    21639208.276    39624045.256 9 -44708776.679 9
  24004968.873    24004973.534    82456495.412 9 -94940931.012 8
  24758052.702    24758055.231   -14297697.840 9   2276463.765 9
 86  6 17  3 50 47.0800000  0  4G12G13G 9G 7
  20941307.287    20941310.759    10489611.748 9 -23472184.320 9
  21641004.982    21641007.248    39633491.814 9 -44701415.717 9
  24009666.833    24009670.367    82481179.982 8 -94921696.291 7
  24755974.325    24755976.771   -14308617.810 9   2267954.702 9
 86  6 17  3 50 53.0800000  0  4G12G13G 9G 7
  20942899.568    20942903.032    10497982.491 9 -23465661.659 8
  21642802.007    21642805.264    39642941.122 9 -44694052.613 9
  24014362.936    24014367.234    82505866.976 9 -94902459.690 8
  24753900.162    24753902.384   -14319518.864 9   2259460.386 8
 86  6 17  3 50 59.0800000  0  4G12G13G 9G 7
  20944498.027    20944499.967    10506377.643 9 -23459119.985 9
  21644600.717    21644604.175    39652393.275 9 -44686687.293 9
  24019062.064    24019065.323    82530556.372 9 -94883221.208 8
                  24751833.571                     2250986.162 9
 86  6 17  3 51  5.0800000  0  4G12G13G 9G 7
  20946099.295    20946102.655    10514797.110 9 -23452559.369 9
  21646400.298    21646402.100    39661848.247 9 -44679319.783 9
  24023760.373    24023763.528    82555248.273 9 -94863980.784 8
  24749767.302    24749771.905   -14366705.126 9   2242537.061 9
 86  6 17  3 51 11.0800000  0  4G12G13G 9G 7
  20947705.976    20947709.225    10523240.835 9 -23445979.833 8
  21648200.133    21648201.513    39671306.029 9 -44671950.085 9
  24028460.198    24028464.189    82579942.395 8 -94844738.619 8
  24747710.528    24747713.968   -14377513.768 9   2234114.738 8
 86  6 17  3 51 17.0800000  0  4G12G13G 9G 7
  20949317.306    20949320.016    10531708.921 9 -23439381.326 8
  21650000.567    21650002.182    39680766.577 9 -44664578.216 8
  24033160.035    24033162.339    82604638.845 9 -94825494.639 9
  24745659.627    24745661.261   -14388291.215 9   2225716.744 9
 86  6 17  3 51 23.0800000  0  4G12G13G 9G 7
  20950934.277    20950935.658    10540201.352 9 -23432763.845 8
  21651801.839    21651803.251    39690229.887 9 -44657204.215 9
  24037859.397    24037861.919    82629337.679 9 -94806248.808 8
  24743613.950    24743617.048   -14399042.083 9   2217339.444 9
 86  6 17  3 51 29.0800000  0  4G12G13G 9G 7
  20952553.784    20952558.406    10548718.149 9 -23426127.392 8
  21653603.094    21653604.253    39699696.061 9 -44649827.966 8
  24042560.247    24042563.612    82654038.758 9 -94787001.224 7
  24741572.365    24741575.107   -14409770.433 9   2208979.692 8
 86  6 17  3 51 35.0800000  0  4G12G13G 9G 7
  20954179.155    20954182.913    10557259.195 9 -23419472.023 8
  21655404.602    21655406.676    39709165.012 9 -44642449.562 9
  24047261.267    24047264.704    82678742.164 8 -94767751.827 8
  24739534.266    24739537.169   -14420479.029 9   2200635.331 8
 86  6 17  3 51 41.0800000  0  4G12G13G 9G 7
  20955809.079    20955812.682    10565824.522 9 -23412797.735 8
  21657206.536    21657209.269    39718636.664 9 -44635069.051 9
  24051962.201    24051965.827    82703447.716 9 -94748500.747 8
  24737499.963    24737502.939   -14431170.000 9   2192304.709 9
 86  6 17  3 51 47.0800000  0  4G12G13G 9G 7
  20957444.288    20957448.011    10574414.088 9 -23406104.572 7
  21659009.946    21659011.089    39728111.099 9 -44627686.378 9
  24056664.131    24056667.714    82728155.505 9 -94729247.935 7
  24735468.721    24735471.111   -14441843.920 9   2183987.366 9
 86  6 17  3 51 53.0800000  0  4G12G13G 9G 7
  20959082.062    20959086.088    10583027.879 9 -23399392.538 8
  21660813.527    21660814.751    39737588.243 9 -44620301.580 9
  24061366.096    24061369.682    82752865.419 9 -94709993.466 8
  24733441.075    24733443.613   -14452498.111 9   2175685.404 9
 86  6 17  3 51 59.0800000  0  4G12G13G 9G 7
  20960727.197    20960730.467    10591665.944 9 -23392661.567 7
  21662617.389    21662618.854    39747068.230 9 -44612914.571 9
  24066067.961    24066072.749    82777577.571 8 -94690737.248 8
                  24731421.606                     2167404.003 8
 86  6 17  3 52  5.0800000  0  4G12G13G 9G 7
  20962375.930    20962378.787    10600328.246 9 -23385911.706 8
  21664421.549    21664423.785    39756550.991 9 -44605525.411 9
  24070771.596    24070774.822    82802291.806 8 -94671479.424 9
  24729405.302    24729405.761   -14499444.431 9   2159148.140 9
 86  6 17  3 52 11.0800000  0  4G12G13G 9G 7
  20964028.973    20964031.902    10609014.748 9 -23379143.015 9
  21666226.625    21666228.408    39766036.438 9 -44598134.148 9
  24075474.803    24075477.339    82827008.198 8 -94652219.915 9
  24727393.685    24727396.294   -14510004.959 9   2150919.158 9
 86  6 17  3 52 17.0800000  0  4G12G13G 9G 7
  20965687.478    20965689.455    10617725.421 9 -23372355.472 8
  21668032.674    21668034.027    39775524.633 9 -44590740.750 9
  24080178.882    24080182.565    82851726.647 8 -94632958.810 8
  24725391.220    24725391.968   -14520533.903 9   2142714.402 9
 86  6 17  3 52 23.0800000  0  4G12G13G 9G 7
  20967349.384    20967351.627    10626460.273 9 -23365549.089 9
  21669838.376    21669839.934    39785015.555 9 -44583345.225 9
  24084883.199    24084886.642    82876447.068 8 -94613696.168 9
  24723391.460    24723394.039   -14531036.815 9   2134530.319 9
 86  6 17  3 52 29.0800000  0  4G12G13G 9G 7
  20969015.465    20969018.705    10635219.238 9 -23358723.930 9
  21671645.080    21671646.123    39794509.131 9 -44575947.636 9
  24089587.629    24089591.115    82901169.616 9 -94594431.866 9
  24721397.172    24721398.274   -14541517.298 9   2126363.709 8
 86  6 17  3 52 35.0800000  0  4G12G13G 9G 7
  20970688.135    20970690.407    10644002.337 9 -23351879.945 8
  21673452.004    21673454.377    39804005.402 9 -44568547.939 8
  24094292.330    24094296.095    82925894.063 8 -94575166.071 9
  24719407.208    24719408.330   -14551977.958 9   2118212.551 9
 86  6 17  3 52 41.0800000  0  4G12G13G 9G 7
  20972364.355    20972366.760    10652809.563 8 -23345017.168 8
  21675259.750    21675262.281    39813504.381 9 -44561146.135 8
  24098996.875    24099001.253    82950620.536 9 -94555898.720 8
  24717419.524    24717421.160   -14562420.829 9   2110075.254 9
 86  6 17  3 52 47.0800000  0  4G12G13G 9G 7
  20974044.515    20974046.226    10661640.934 9 -23338135.573 8
  21677067.434    21677069.677    39823005.991 9 -44553742.286 9
  24103703.330    24103706.923    82975348.869 9 -94536629.886 9
  24715435.715    24715437.387   -14572846.456 9   2101951.391 9
 86  6 17  3 52 53.0800000  0  4G12G13G 9G 7
  20975729.492    20975732.226    10670496.525 9 -23331235.118 9
  21678875.693    21678878.648    39832510.282 9 -44546336.351 9
  24108408.868    24108413.504    83000079.152 9 -94517359.555 9
  24713455.791    24713457.274   -14583251.924 9   2093843.237 8
 86  6 17  3 52 59.0800000  0  4G12G13G 9G 7
  20977419.183    20977421.627    10679376.202 9 -23324315.887 9
  21680685.538    21680686.953    39842017.330 9 -44538928.251 8
  24113116.106    24113120.437    83024811.390 9 -94498087.687 8
                  24711482.628                     2085756.184 8
 86  6 17  3 53  5.0800000  0  4G12G13G 9G 7
  20979113.199    20979116.182    10688279.976 9 -23317377.887 9
  21682495.034    21682497.029    39851526.944 9 -44531518.165 8
  24117823.341    24117826.129    83049545.519 8 -94478814.356 9
  24709510.817    24709515.371   -14629947.452 9   2077695.030 9
 86  6 17  3 53 11.0800000  0  4G12G13G 9G 7
  20980811.847    20980815.882    10697207.782 9 -23310421.157 8
  21684305.408    21684306.460    39861039.278 9 -44524105.959 9
  24122528.839    24122534.205    83074281.407 8 -94459539.656 9
  24707550.421    24707550.763   -14640258.094 9   2069660.781 9
 86  6 17  3 53 17.0800000  0  4G12G13G 9G 7
  20982516.546    20982518.017    10706159.636 9 -23303445.693 8
  21686116.100    21686117.583    39870554.245 9 -44516691.694 9
  24127237.687    24127240.843    83099019.159 8 -94440263.508 8
  24705593.772    24705596.778   -14650537.695 9   2061650.703 9
 86  6 17  3 53 23.0800000  0  4G12G13G 9G 7
  20984224.136    20984226.178    10715135.562 9 -23296451.458 8
  21687927.252    21687928.325    39880071.772 9 -44509275.437 9
  24131944.232    24131948.138    83123758.723 7 -94420985.944 9
  24703643.073    24703644.146   -14660790.962 9   2053661.138 8
 86  6 17  3 53 29.0800000  0  4G12G13G 9G 7
  20985936.140    20985938.668    10724135.530 9 -23289438.504 8
  21689738.713    21689739.489    39889591.876 9 -44501857.172 8
  24136651.962    24136657.539    83148500.089 7 -94401706.987 9
  24701696.004    24701696.925   -14671022.026 9   2045688.885 9
 86  6 17  3 53 35.0800000  0  4G12G13G 9G 7
  20987653.002    20987655.492    10733159.521 9 -23282406.824 9
  21691551.472    21691551.271    39899114.622 9 -44494436.852 9
  24141360.144    24141365.903    83173243.208 8 -94382426.668 8
  24699752.866    24699754.613   -14681233.303 9   2037732.041 9
 86  6 17  3 53 41.0800000  0  4G12G13G 9G 7
  20989375.346    20989378.088    10742207.440 9 -23275356.498 9
  21693363.543    21693364.929    39908640.040 9 -44487014.448 8
  24146069.302    24146074.534    83197987.963 7 -94363145.065 9
  24697813.444    24697814.832   -14691426.695 9   2029789.129 8
 86  6 17  3 53 47.0800000  0  4G12G13G 9G 7
  20991100.478    20991104.674    10751279.390 9 -23268287.458 8
  21695177.062    21695177.581    39918168.065 9 -44479590.012 9
  24150778.433    24150783.785    83222734.484 8 -94343862.082 8
  24695876.014    24695877.625   -14701602.570 9   2021859.876 8
 86  6 17  3 53 53.0800000  0  4G12G13G 9G 7
  20992831.290    20992834.455    10760375.326 9 -23261199.719 8
  21696989.992    21696991.313    39927698.697 9 -44472163.549 8
  24155487.146    24155493.312    83247482.571 7 -94324577.883 9
  24693942.842    24693946.296   -14711757.700 9   2013946.796 9
 86  6 17  3 53 59.0800000  0  4G12G13G 9G 7
  20994566.744    20994570.211    10769495.194 9 -23254093.327 8
  21698804.566    21698805.961    39937231.854 9 -44464735.114 9
  24160198.372    24160203.039    83272232.407 8 -94305292.322 9
                  24692018.885                     2006055.279 9
 86  6 17  3 54  5.0800000  0  4G12G13G 9G 7
  20996306.988    20996310.098    10778638.898 9 -23246968.358 8
  21700618.284    21700620.483    39946767.553 9 -44457304.700 9
  24164907.348    24164912.996    83296983.821 8 -94286005.524 8
  24690093.577    24690097.220   -14758202.949 9   1998189.977 9
 86  6 17  3 54 11.0800000  0  4G12G13G 9G 7
  20998051.311    20998054.616    10787806.530 9 -23239824.763 8
  21702433.339    21702435.322    39956305.829 9 -44449872.264 9
  24169618.525    24169622.742    83321736.811 8 -94266717.498 8
  24688180.355    24688184.140   -14768262.266 9   1990351.543 8
 86  6 17  3 54 17.0800000  0  4G12G13G 9G 7
  20999800.168    20999803.600    10796998.098 9 -23232662.497 9
  21704248.877    21704251.410    39965846.741 9 -44442437.793 9
  24174329.158    24174333.967    83346491.339 8 -94247428.271 8
  24686271.994    24686275.906   -14778290.665 9   1982537.203 9
 86  6 17  3 54 23.0800000  0  4G12G13G 9G 7
  21001554.127    21001557.388    10806213.496 9 -23225481.663 9
  21706065.470    21706067.651    39975390.159 9 -44435001.364 9
  24179040.086    24179045.190    83371247.423 9 -94228137.844 9
  24684369.306    24684371.141   -14788292.969 9   1974743.203 9
 86  6 17  3 54 29.0800000  0  4G12G13G 9G 7
  21003312.661    21003316.111    10815452.800 9 -23218282.221 8
  21707882.654    21707884.150    39984936.156 9 -44427562.925 9
  24183752.780    24183755.728    83396005.022 9 -94208846.214 9
  24682469.790    24682472.646   -14798272.869 9   1966966.661 9
 86  6 17  3 54 35.0800000  0  4G12G13G 9G 7
  21005075.374    21005078.719    10824715.997 9 -23211064.136 9
  21709698.860    21709700.921    39994484.680 9 -44420122.516 9
  24188463.223    24188467.747    83420764.135 9 -94189553.398 9
  24680575.229    24680577.788   -14808232.930 9   1959205.578 9
 86  6 17  3 54 41.0800000  0  4G12G13G 9G 7
  21006842.219    21006845.527    10834003.055 9 -23203827.461 9
  21711516.328    21711518.478    40004035.838 9 -44412680.052 8
  24193175.328    24193179.325    83445524.652 8 -94170259.494 8
  24678683.862    24678686.150   -14818175.060 9   1951458.460 9
 86  6 17  3 54 47.0800000  0  4G12G13G 9G 7
  21008614.708    21008618.220    10843313.949 9 -23196572.227 8
  21713335.226    21713337.254    40013589.489 9 -44405235.648 9
  24197887.658    24197891.533    83470286.664 7 -94150964.448 9
  24676794.820    24676797.213   -14828099.364 9   1943725.232 9
 86  6 17  3 54 53.0800000  0  4G12G13G 9G 7
  21010391.104    21010394.281    10852648.679 9 -23189298.404 9
  21715153.651    21715154.843    40023145.724 9 -44397789.227 9
  24202598.122    24202604.210    83495050.195 8 -94131668.202 9
  24674910.207    24674912.814   -14838002.389 9   1936008.593 9
 86  6 17  3 54 59.0800000  0  4G12G13G 9G 7
  21012171.906    21012174.846    10862007.295 9 -23182005.981 8
  21716972.321    21716973.854    40032704.532 9 -44390340.805 9
  24207312.082    24207316.281    83519814.952 8 -94112371.004 9
                  24673034.355                     1928314.105 9
 86  6 17  3 55  5.0800000  0  4G12G13G 9G 7
  21013956.594    21013960.199    10871389.654 9 -23174695.047 8
  21718791.738    21718793.020    40042265.921 9 -44382890.372 9
  24212024.567    24212029.844    83544581.157 7 -94093072.701 9
  24671158.346    24671160.816   -14884194.904 9   1920646.239 9
 86  6 17  3 55 11.0800000  0  4G12G13G 9G 7
  21015747.172    21015749.245    10880795.758 8 -23167365.619 7
  21720611.982    21720613.513    40051829.780 9 -44375438.019 9
  24216737.729    24216741.980    83569348.751 7 -94073773.316 9
  24669292.382    24669295.439   -14894000.880 9   1913005.217 9
 86  6 17  3 55 17.0800000  0  4G12G13G 9G 7
  21017541.234    21017544.264    10890225.613 9 -23160017.676 8
  21722432.234    21722433.838    40061396.151 9 -44367983.697 8
  24221449.343    24221456.169    83594117.656 8 -94054472.911 9
  24667432.295    24667435.829   -14903776.560 9   1905388.193 9
 86  6 17  3 55 23.0800000  0  4G12G13G 9G 7
  21019340.047    21019343.258    10899679.168 9 -23152651.269 9
  21724252.428    21724255.001    40070964.886 9 -44360527.540 9
  24226164.818    24226168.987    83618887.740 8 -94035171.577 9
  24665577.926    24665579.517   -14913525.664 9   1897791.494 9
 86  6 17  3 55 29.0800000  0  4G12G13G 9G 7
  21021144.395    21021147.168    10909156.488 9 -23145266.361 8
  21726073.968    21726077.335    40080536.071 9 -44353069.475 9
  24230878.523    24230882.998    83643659.132 8 -94015869.221 9
  24663726.842    24663728.768   -14923252.361 9   1890212.238 9
 86  6 17  3 55 35.0800000  0  4G12G13G 9G 7
  21022952.524    21022955.514    10918657.598 9 -23137862.880 8
  21727895.157    21727898.720    40090109.770 9 -44345609.448 9
  24235592.470    24235597.761    83668431.781 8 -93996565.886 9
  24661879.331    24661880.774   -14932959.299 9   1882648.390 8
 86  6 17  3 55 41.0800000  0  4G12G13G 9G 7
  21024763.823    21024766.863    10928182.457 9 -23130440.934 8
  21729717.665    21729719.660    40099685.977 9 -44338147.466 9
  24240306.501    24240311.421    83693205.620 7 -93977261.616 8
  24660035.649    24660037.244   -14942648.190 9   1875098.609 8
 86  6 17  3 55 47.0800000  0  4G12G13G 9G 7
  21026581.707    21026585.290    10937730.970 9 -23123000.534 9
  21731540.859    21731542.762    40109264.643 9 -44330683.573 8
  24245021.492    24245026.586    83717980.574 8 -93957956.481 8
  24658195.057    24658196.958   -14952319.033 9   1867562.889 9
 86  6 17  3 55 53.0800000  0  4G12G13G 9G 7
  21028403.468    21028405.681    10947303.117 9 -23115541.723 9
  21733364.130    21733365.975    40118845.746 9 -44323217.768 9
  24249736.748    24249741.292    83742756.695 8 -93938650.419 9
                  24656361.749                     1860044.163 8
 86  6 17  3 55 59.0800000  0  4G12G13G 9G 7
  21030228.850    21030232.142    10956898.891 8 -23108064.496 8
  21735187.414    21735189.740    40128429.342 9 -44315750.029 9
  24254450.961    24254456.437    83767533.968 8 -93919343.467 8
  24654530.385    24654530.271   -14998316.248 9   1852547.858 8
 86  6 17  3 56  5.0800000  0  4G12G13G 9G 7
  21032059.205    21032062.622    10966518.340 9 -23100568.827 8
  21737011.498    21737013.683    40138015.368 9 -44308280.396 9
  24259166.214    24259169.781    83792312.291 9 -93900035.690 8
  24652703.765    24652705.800   -15007901.890 9   1845078.585 8
 86  6 17  3 56 11.0800000  0  4G12G13G 9G 7
  21033894.404    21033897.379    10976161.446 9 -23093054.725 8
  21738836.302    21738837.711    40147603.799 9 -44300808.889 8
  24263882.081    24263885.348    83817091.766 9 -93880727.013 8
  24650886.509    24650889.700   -15017452.964 9   1837636.195 9
 86  6 17  3 56 17.0800000  0  4G12G13G 9G 7
  21035734.835    21035736.917    10985828.160 9 -23085522.236 7
  21740661.373    21740663.143    40157194.645 9 -44293335.502 9
  24268597.171    24268601.533    83841872.259 9 -93861417.554 8
  24649074.563    24649076.038   -15026973.481 9   1830217.612 9
 86  6 17  3 56 23.0800000  0  4G12G13G 9G 7
  21037577.774    21037581.599    10995518.390 9 -23077971.406 8
  21742486.520    21742488.380    40166787.866 9 -44285860.266 9
  24273314.214    24273316.834    83866653.808 9 -93842107.268 8
  24647267.952    24647271.567   -15036468.181 9   1822819.142 8
 86  6 17  3 56 29.0800000  0  4G12G13G 9G 7
  21039427.220    21039429.698    11005232.119 9 -23070402.264 9
  21744312.805    21744314.909    40176383.535 9 -44278383.117 9
  24278029.780    24278032.434    83891436.416 8 -93822796.159 8
  24645465.464    24645467.724   -15045940.518 9   1815438.101 9
 86  6 17  3 56 35.0800000  0  4G12G13G 9G 7
  21041279.425    21041282.584    11014969.400 9 -23062814.795 9
  21746139.675    21746141.740    40185981.584 9 -44270904.121 8
  24282745.804    24282748.792    83916219.872 9 -93803484.385 8
  24643666.608    24643668.759   -15055393.048 9   1808072.491 9
 86  6 17  3 56 41.0800000  0  4G12G13G 9G 7
  21043137.168    21043140.451    11024730.217 9 -23055208.957 8
  21747966.629    21747967.915    40195582.107 9 -44263423.186 9
  24287461.817    24287465.921    83941004.371 8 -93784171.802 9
  24641871.543    24641873.110   -15064827.446 9   1800721.009 9
 86  6 17  3 56 47.0800000  0  4G12G13G 9G 7
  21044999.177    21045002.133    11034514.504 9 -23047584.832 9
  21749793.715    21749796.166    40205185.042 9 -44255940.384 8
  24292177.999    24292181.984    83965789.816 8 -93764858.485 8
  24640079.655    24640082.041   -15074243.504 9   1793383.823 9
 86  6 17  3 56 53.0800000  0  4G12G13G 9G 7
  21046865.206    21046867.967    11044322.331 9 -23039942.368 9
  21751621.654    21751624.504    40214790.289 9 -44248455.769 9
  24296894.725    24296899.619    83990576.187 8 -93745544.454 8
  24638292.189    24638295.378   -15083637.247 9   1786064.024 9
 86  6 17  3 56 59.0800000  0  4G12G13G 9G 7
  21048736.673    21048739.295    11054153.701 9 -23032281.573 9
  21753449.425    21753451.872    40224397.918 9 -44240969.300 9
  24301612.596    24301616.367    84015363.405 8 -93726229.760 8
                  24636512.676                     1778767.389 8
 86  6 17  3 57  5.0800000  0  4G12G13G 9G 7
  21050612.024    21050614.593    11064008.589 9 -23024602.441 8
  21755278.248    21755280.735    40234007.883 9 -44233481.032 9
  24306328.934    24306331.933    84040151.475 8 -93706914.394 8
  24634735.187    24634737.385   -15129324.418 9   1771497.908 8
 86  6 17  3 57 11.0800000  0  4G12G13G 9G 7
  21052492.268    21052493.623    11073886.934 9 -23016905.038 8
  21757106.988    21757110.025    40243620.238 9 -44225990.878 9
  24311046.014    24311050.582    84064940.422 8 -93687598.357 7
  24632966.633    24632968.747   -15138619.156 9   1764255.259 9
 86  6 17  3 57 17.0800000  0  4G12G13G 9G 7
  21054376.077    21054378.036    11083788.762 9 -23009189.325 8
  21758936.980    21758939.764    40253234.976 9 -44218498.877 9
  24315764.009    24315767.023    84089730.082 8 -93668281.768 8
  24631202.830    24631206.587   -15147883.357 9   1757036.406 9
 86  6 17  3 57 23.0800000  0  4G12G13G 9G 7
  21056265.384    21056267.830    11093713.963 9 -23001455.412 9
  21760766.707    21760769.081    40262852.095 9 -44211005.009 9
  24320481.152    24320485.345    84114520.507 9 -93648964.566 9
  24629444.855    24629447.409   -15157121.660 9   1749837.736 9
 86  6 17  3 57 29.0800000  0  4G12G13G 9G 7
  21058157.469    21058160.276    11103662.596 9 -22993703.228 9
  21762597.635    21762599.720    40272471.613 9 -44203509.290 9
  24325198.427    24325203.545    84139311.714 8 -93629646.779 8
  24627691.355    24627693.806   -15166337.747 9   1742656.366 9
 86  6 17  3 57 35.0800000  0  4G12G13G 9G 7
  21060055.857    21060056.805    11113634.598 8 -22985932.842 8
  21764429.084    21764430.925    40282093.505 9 -44196011.711 8
  24329916.222    24329920.438    84164103.595 8 -93610328.444 9
  24625941.432    24625943.990   -15175534.058 9   1735490.405 9
 86  6 17  3 57 41.0800000  0  4G12G13G 9G 7
  21061957.601    21061960.521    11123629.967 9 -22978144.241 8
  21766260.330    21766261.432    40291717.779 9 -44188512.274 8
  24334634.374    24334638.824    84188896.325 8 -93591009.453 8
  24624194.119    24624197.390   -15184712.153 9   1728338.652 9
 86  6 17  3 57 47.0800000  0  4G12G13G 9G 7
  21063864.665    21063866.183    11133648.706 9 -22970337.434 8
  21768092.275    21768094.171    40301344.334 9 -44181011.055 8
  24339353.363    24339357.146    84213689.578 8 -93571690.061 7
  24622451.409    24622454.797   -15193871.585 9   1721201.422 9
 86  6 17  3 57 53.0800000  0  4G12G13G 9G 7
  21065774.672    21065778.074    11143690.754 9 -22962512.461 9
  21769923.941    21769926.225    40310973.318 9 -44173507.947 9
  24344070.516    24344074.488    84238483.631 9 -93552370.026 8
                  24620714.910                     1714082.058 8
 86  6 17  3 57 59.0800000  0  4G12G13G 9G 7
  21067689.655    21067692.417    11153756.181 9 -22954669.273 9
  21771757.820    21771759.910    40320604.606 9 -44166003.042 8
  24348789.118    24348792.709    84263278.271 9 -93533049.562 9
  24618924.679    24618983.233   -15239359.553 9   1706986.195 8
 86  6 17  3 58  5.0800000  0  4G12G13G 9G 7
  21069609.164    21069612.892    11163844.922 9 -22946807.929 8
  21773590.439    21773592.518    40330238.139 9 -44158496.385 9
  24353507.181    24353509.819    84288073.500 9 -93513728.621 8
  24617254.417    24617256.633   -15248430.412 9   1699917.932 9
 86  6 17  3 58 11.0800000  0  4G12G13G 9G 7
  21071533.173    21071537.467    11173956.951 9 -22938928.434 8
  21775423.981    21775425.532    40339873.987 9 -44150987.936 9
  24358226.519    24358229.522    84312869.345 9 -93494407.192 8
  24615535.298    24615537.808   -15257466.984 9   1692876.453 9
 86  6 17  3 58 17.0800000  0  4G12G13G 9G 7
  21073462.779    21073465.974    11184092.276 9 -22931030.782 8
  21777259.328    21777259.944    40349512.023 9 -44143477.773 9
  24362944.205    24362948.849    84337665.650 8 -93475085.402 8
  24613820.554    24613823.567   -15266473.335 9   1685858.524 9
 86  6 17  3 58 23.0800000  0  4G12G13G 9G 7
  21075395.735    21075399.035    11194250.844 9 -22923115.013 8
  21779092.158    21779094.749    40359152.341 9 -44135965.832 9
  24367662.349    24367666.103    84362462.476 9 -93455763.229 8
  24612111.778    24612113.982   -15275454.095 9   1678860.531 9
 86  6 17  3 58 29.0800000  0  4G12G13G 9G 7
  21077334.201    21077337.511    11204432.715 9 -22915181.098 8
  21780927.589    21780929.906    40368794.977 9 -44128452.090 9
  24372381.922    24372384.871    84387259.764 9 -93436440.675 8
  24610407.073    24610408.801   -15284412.547 9   1671879.927 9
 86  6 17  3 58 35.0800000  0  4G12G13G 9G 7
  21079274.208    21079278.549    11214637.779 9 -22907229.103 8
  21782762.434    21782766.089    40378439.831 9 -44120936.601 9
  24377100.544    24377103.507    84412057.631 9 -93417117.686 7
  24608705.527    24608708.077   -15293351.000 9   1664914.899 9
 86  6 17  3 58 41.0800000  0  4G12G13G 9G 7
  21081220.851    21081225.490    11224866.072 8 -22899259.013 8
  21784598.634    21784600.521    40388086.984 9 -44113419.339 9
  24381819.934    24381823.101    84436855.843 9 -93397794.403 8
  24607008.308    24607009.802   -15302271.252 9   1657964.061 9
 86  6 17  3 58 47.0800000  0  4G12G13G 9G 7
  21083171.378    21083176.632    11235117.505 9 -22891270.889 8
  21786435.229    21786437.686    40397736.421 9 -44105900.288 9
  24386537.524    24386544.426    84461654.566 8 -93378470.743 7
  24605315.071    24605316.862   -15311172.487 9   1651028.028 8
 86  6 17  3 58 53.0800000  0  4G12G13G 9G 7
  21085126.672    21085130.554    11245392.124 9 -22883264.698 9
  21788272.230    21788273.894    40407388.122 9 -44098379.488 8
  24391257.414    24391262.077    84486453.723 9 -93359146.739 8
                  24603627.681                     1644110.341 9
 86  6 17  3 58 59.0800000  0  4G12G13G 9G 7
  21087086.106    21087090.504    11255689.904 9 -22875240.455 9
  21790108.684    21790111.058    40417042.107 9 -44090856.899 8
  24395977.886    24395980.787    84511253.151 8 -93339822.533 8
  24601899.816    24601943.865   -15356405.883 9   1637216.520 8
 86  6 17  3 59  5.0800000  0  4G12G13G 9G 7
  21089050.947    21089054.475    11266010.811 9 -22867198.202 9
  21791946.567    21791948.038    40426698.315 9 -44083332.579 9
  24400696.889    24400700.834    84536053.112 9 -93320497.905 7
  24600264.241    24600266.817   -15365217.611 9   1630350.537 9
 86  6 17  3 59 11.0800000  0  4G12G13G 9G 7
  21091018.824    21091022.569    11276354.834 8 -22859137.924 9
  21793784.700    21793786.251    40436356.733 9 -44075806.526 8
  24405415.563    24405418.519    84560853.359 8 -93301173.054 7
  24598595.543    24598596.392   -15373994.703 9   1623511.243 9
 86  6 17  3 59 17.0800000  0  4G12G13G 9G 7
  21092991.330    21092995.846    11286721.950 9 -22851059.648 9
  21795623.495    21795625.326    40446017.430 9 -44068278.709 9
  24410135.380    24410139.635    84585653.835 9 -93281848.034 7
  24596930.284    24596932.550   -15382741.573 9   1616695.515 9
 86  6 17  3 59 23.0800000  0  4G12G13G 9G 7
  21094969.261    21094973.298    11297112.165 9 -22842963.394 8
  21797461.119    21797463.889    40455680.404 9 -44060749.108 9
  24414854.684    24414858.474    84610454.616 9 -93262522.758 8
  24595270.567    24595272.913   -15391462.777 9   1609899.766 9
 86  6 17  3 59 29.0800000  0  4G12G13G 9G 7
  21096951.010    21096954.705    11307525.437 9 -22834849.165 8
  21799300.919    21799302.882    40465345.617 9 -44053217.774 9
  24419574.056    24419578.200    84635255.656 9 -93243197.281 9
  24593615.508    24593616.729   -15400161.840 9   1603121.278 9
 86  6 17  3 59 35.0800000  0  4G12G13G 9G 7
  21098936.770    21098940.984    11317961.821 9 -22826716.918 9
  21801141.240    21801142.950    40475013.022 9 -44045684.731 9
  24424293.322    24424298.498    84660056.953 8 -93223871.607 7
  24591962.624    24591966.712   -15408841.133 9   1596358.203 8
 86  6 17  3 59 41.0800000  0  4G12G13G 9G 7
  21100927.019    21100930.555    11328421.254 9 -22818566.714 9
  21802980.868    21802981.545    40484682.739 9 -44038149.883 9
  24429013.487    24429017.249    84684858.333 9 -93204545.883 9
  24590315.875    24590319.264   -15417502.065 9   1589609.421 8
 86  6 17  3 59 47.0800000  0  4G12G13G 9G 7
  21102921.149    21102924.680    11338903.689 8 -22810398.590 9
  21804820.356    21804823.101    40494354.590 9 -44030613.371 9
  24433732.705    24433737.899    84709659.920 8 -93185219.982 8
  24588671.360    24588674.070   -15426143.681 9   1582875.704 9
 86  6 17  3 59 53.0800000  0  4G12G13G 9G 7
  21104920.849    21104924.189    11349409.112 9 -22802212.547 9
  21806662.642    21806663.758    40504028.578 9 -44023075.192 9
  24438452.600    24438457.985    84734461.608 9 -93165894.018 8
                  24587034.321                     1576161.001 9
 86  6 17  3 59 59.0800000  0  4G12G13G 9G 7
  21106924.226    21106928.632    11359937.565 8 -22794008.566 8
  21808503.008    21808505.715    40513704.744 9 -44015535.320 9
  24443172.100    24443176.862    84759263.519 9 -93146567.872 9
  24585385.370    24585400.137   -15471121.697 9   1569470.644 9
 86  6 17  4  0  5.0800000  0  4G12G13G 9G 7
  21108932.958    21108935.725    11370488.974 9 -22785786.694 8
  21810345.007    21810346.518    40523383.039 9 -44007993.785 9
  24447891.844    24447896.425    84784065.497 9 -93127241.673 9
  24583770.767    24583773.688   -15479672.111 9   1562808.116 9
 86  6 17  4  0 11.0800000  0  4G12G13G 9G 7
  21110944.009    21110947.657    11381063.435 8 -22777546.868 8
  21812186.890    21812188.556    40533063.541 9 -44000450.530 9
  24452610.908    24452616.361    84808867.537 8 -93107915.426 8
  24582149.913    24582152.252   -15488188.128 9   1556172.256 9
 86  6 17  4  0 17.0800000  0  4G12G13G 9G 7
  21112960.559    21112964.534    11391660.779 8 -22769289.188 8
  21814029.866    21814031.080    40542746.265 9 -43992905.550 9
  24457332.034    24457336.159    84833669.645 9 -93088589.134 8
  24580535.698    24580537.920   -15496674.104 9   1549559.822 9
 86  6 17  4  0 23.0800000  0  4G12G13G 9G 7
  21114981.748    21114985.026    11402281.084 8 -22761013.644 8
  21815873.196    21815874.826    40552431.093 9 -43985358.922 9
  24462051.698    24462055.160    84858471.761 9 -93069262.841 9
  24578925.056    24578927.812   -15505134.474 9   1542967.331 9
 86  6 17  4  0 29.0800000  0  4G12G13G 9G 7
  21117006.449    21117010.780    11412924.227 8 -22752720.288 8
  21817716.690    21817717.744    40562118.022 9 -43977810.659 9
  24466771.072    24466774.335    84883273.952 9 -93049936.473 9
  24577318.843    24577322.025   -15513572.546 9   1536392.204 8
 86  6 17  4  0 35.0800000  0  4G12G13G 9G 7
  21119036.785    21119040.451    11423590.311 9 -22744409.056 8
  21819559.536    21819561.488    40571807.183 9 -43970260.658 9
  24471491.289    24471494.285    84908076.175 9 -93030610.089 8
  24575717.003    24575720.352   -15521990.758 9   1529832.569 9
 86  6 17  4  0 41.0800000  0  4G12G13G 9G 7
  21121070.979    21121074.617    11434279.218 8 -22736080.050 8
  21821404.201    21821405.667    40581498.484 9 -43962708.989 9
  24476210.874    24476215.073    84932878.257 9 -93011283.807 8
  24574119.055    24574122.534   -15530390.267 9   1523287.498 9
 86  6 17  4  0 47.0800000  0  4G12G13G 9G 7
  21123109.128    21123112.023    11444990.996 8 -22727733.213 8
  21823248.767    21823249.967    40591191.872 9 -43955155.706 8
  24480929.474    24480934.757    84957680.305 9 -92991957.562 8
  24572524.399    24572527.149   -15538770.206 9   1516757.684 9
 86  6 17  4  0 53.0800000  0  4G12G13G 9G 7
  21125151.757    21125155.441    11455725.629 9 -22719368.557 8
  21825093.279    21825095.998    40600887.425 9 -43947600.715 9
  24485649.264    24485654.025    84982482.243 9 -92972631.386 7
                  24570937.022                     1510247.086 9
 86  6 17  4  0 59.0800000  0  4G12G13G 9G 7
  21127199.304    21127202.197    11466483.070 8 -22710986.136 8
  21826938.936    21826941.301    40610585.115 9 -43940044.068 9
  24490369.471    24490373.594    85007284.094 8 -92953305.287 8
  24569273.641    24569354.244   -15583485.694 9   1503761.275 8
 86  6 17  4  1  5.0800000  0  4G12G13G 9G 7
  21129249.312    21129253.845    11477263.329 9 -22702585.937 9
  21828784.914    21828786.732    40620284.871 9 -43932485.819 9
  24495088.637    24495092.595    85032085.740 9 -92933979.341 8
  24567774.129    24567776.693   -15591773.253 9   1497303.643 9
 86  6 17  4  1 11.0800000  0  4G12G13G 9G 7
  21131306.135    21131309.399    11488066.363 8 -22694167.989 8
  21830631.550    21830633.329    40629986.760 9 -43924925.897 9
  24499808.642    24499811.416    85056887.271 8 -92914653.488 8
  24566203.511    24566206.116   -15600026.550 9   1490872.505 9
 86  6 17  4  1 17.0800000  0  4G12G13G 9G 7
  21133367.194    21133370.674    11498892.141 9 -22685732.326 8
  21832477.761    21832480.253    40639690.788 9 -43917364.315 9
  24504528.084    24504531.776    85081688.532 9 -92895327.849 8
  24564637.629    24564640.710   -15608250.014 9   1484464.618 9
 86  6 17  4  1 23.0800000  0  4G12G13G 9G 7
  21135431.541    21135433.682    11509740.637 8 -22677278.968 9
  21834324.644    21834326.856    40649396.940 9 -43909801.086 9
  24509248.374    24509251.084    85106489.643 8 -92876002.337 8
  24563078.762    24563081.923   -15616447.984 9   1478076.603 9
 86  6 17  4  1 29.0800000  0  4G12G13G 9G 7
  21137499.370    21137502.911    11520611.869 9 -22668807.882 8
  21836172.693    21836174.795    40659105.148 9 -43902236.238 8
  24513967.234    24513970.999    85131290.527 8 -92856676.996 8
  24561522.408    24561525.280   -15624623.817 9   1471705.823 9
 86  6 17  4  1 35.0800000  0  4G12G13G 9G 7
  21139574.370    21139577.451    11531505.801 8 -22660319.119 8
  21838020.092    21838022.400    40668815.400 9 -43894669.806 8
  24518686.858    24518690.572    85156091.078 8 -92837351.905 8
  24559971.033    24559972.702   -15632779.718 9   1465350.592 9
 86  6 17  4  1 41.0800000  0  4G12G13G 9G 7
  21141651.537    21141654.284    11542422.448 9 -22651812.628 8
  21839868.585    21839870.008    40678527.737 9 -43887101.741 8
  24523406.316    24523408.532    85180891.337 9 -92818027.046 8
  24558422.194    24558424.159   -15640917.082 9   1459009.796 9
 86  6 17  4  1 47.0800000  0  4G12G13G 9G 7
  21143732.912    21143736.314    11553361.755 9 -22643288.512 8
  21841717.104    21841717.725    40688242.145 9 -43879532.068 9
  24528124.226    24528129.160    85205691.225 8 -92798702.477 8
  24556877.449    24556879.913   -15649034.664 9   1452684.401 9
 86  6 17  4  1 53.0800000  0  4G12G13G 9G 7
  21145819.011    21145822.659    11564323.746 8 -22634746.708 9
  21843565.992    21843567.608    40697958.705 9 -43871960.715 9
  24532844.375    24532848.212    85230490.777 8 -92779378.166 8
                  24555338.929                     1446378.690 9
 86  6 17  4  1 59.0800000  0  4G12G13G 9G 7
  21147909.491    21147911.935    11575308.415 9 -22626187.227 8
  21845415.909    21845416.961    40707677.297 9 -43864387.783 9
  24537564.163    24537568.687    85255289.997 9 -92760054.121 8
  24553802.229    24553805.880   -15693482.531 9   1440098.143 9
 86  6 17  4  2  5.0800000  0  4G12G13G 9G 7
  21150003.236    21150007.962    11586315.718 8 -22617610.107 9
  21847265.617    21847266.712    40717397.930 9 -43856813.254 9
  24542282.799    24542286.924    85280088.800 8 -92740730.397 8
  24552276.599    24552278.667   -15701506.244 9   1433845.910 8
 86  6 17  4  2 11.0800000  0  4G12G13G 9G 7
  21152103.118    21152106.192    11597345.621 8 -22609015.393 8
  21849114.880    21849116.973    40727120.642 9 -43849237.120 8
  24547000.696    24547005.534    85304887.133 9 -92721407.038 7
  24550756.263    24550758.130   -15709495.391 9   1427620.221 8
 86  6 17  4  2 17.0800000  0  4G12G13G 9G 7
  21154205.367    21154208.846    11608398.136 9 -22600403.048 8
  21850965.841    21850968.633    40736845.421 9 -43841659.364 9
  24551719.977    24551724.888    85329685.020 9 -92702084.024 7
  24549241.687    24549242.855   -15717455.384 9   1421417.640 9
 86  6 17  4  2 23.0800000  0  4G12G13G 9G 7
  21156313.332    21156316.591    11619473.207 8 -22591773.126 9
  21852816.999    21852818.041    40746572.231 9 -43834080.021 9
  24556438.898    24556442.211    85354482.452 9 -92682761.374 9
  24547731.645    24547733.812   -15725390.133 9   1415234.725 8
 86  6 17  4  2 29.0800000  0  4G12G13G 9G 7
  21158424.269    21158428.346    11630570.765 9 -22583125.688 9
  21854668.192    21854669.170    40756301.108 9 -43826499.070 9
  24561157.404    24561161.570    85379279.380 8 -92663439.111 8
  24546225.293    24546227.472   -15733302.651 9   1409069.125 9
 86  6 17  4  2 35.0800000  0  4G12G13G 9G 7
  21160541.061    21160544.336    11641690.809 9 -22574460.732 9
  21856518.996    21856522.973    40766032.068 9 -43818916.505 8
  24565877.070    24565880.744    85404075.854 9 -92644117.183 8
  24544724.098    24544726.706   -15741195.337 9   1402918.980 9
 86  6 17  4  2 41.0800000  0  4G12G13G 9G 7
  21162660.255    21162665.101    11652833.420 8 -22565778.170 8
  21858370.912    21858373.852    40775765.010 9 -43811332.388 9
  24570594.923    24570598.779    85428871.758 9 -92624795.713 8
  24543225.999    24543227.453   -15749069.435 9   1396783.332 9
 86  6 17  4  2 47.0800000  0  4G12G13G 9G 7
  21164785.608    21164788.416    11663998.568 9 -22557078.064 8
  21860223.895    21860226.570    40785499.980 9 -43803746.689 9
  24575312.866    24575318.413    85453667.008 8 -92605474.758 7
  24541731.661    24541732.669   -15756923.299 9   1390663.434 9
 86  6 17  4  2 53.0800000  0  4G12G13G 9G 7
  21166914.909    21166918.255    11675186.163 9 -22548360.457 9
  21862076.836    21862078.633    40795236.999 9 -43796159.405 9
  24580030.849    24580034.450    85478461.742 8 -92586154.195 8
                  24540242.712                     1384563.895 9
 86  6 17  4  2 59.0800000  0  4G12G13G 9G 7
  21169047.229    21169051.522    11686396.252 9 -22539625.340 9
  21863929.816    21863932.371    40804975.973 9 -43788570.592 8
  24584749.651    24584752.665    85503255.879 8 -92566834.115 9
  24538694.853    24538760.761   -15801118.998 9   1378490.004 8
 86  6 17  4  3  5.0800000  0  4G12G13G 9G 7
  21171184.490    21171187.654    11697628.748 9 -22530872.741 9
  21865783.499    21865785.460    40814716.935 9 -43780980.220 9
  24589466.916    24589471.067    85528049.401 9 -92547514.511 9
  24537282.065    24537284.849   -15808877.243 9   1372444.534 9
 86  6 17  4  3 11.0800000  0  4G12G13G 9G 7
  21173326.739    21173329.460    11708883.737 8 -22522102.619 8
  21867637.859    21867640.532    40824459.941 9 -43773388.258 9
  24594184.744    24594188.772    85552842.195 8 -92528195.485 8
  24535812.264    24535813.241   -15816601.681 9   1366425.519 9
 86  6 17  4  3 17.0800000  0  4G12G13G 9G 7
  21175472.771    21175476.214    11720161.082 8 -22513315.093 8
  21869492.467    21869493.892    40834204.951 9 -43765794.742 9
  24598902.662    24598907.655    85577634.351 8 -92508876.935 8
  24534347.737    24534349.499   -15824296.611 9   1360429.466 9
 86  6 17  4  3 23.0800000  0  4G12G13G 9G 7
  21177622.542    21177625.440    11731460.760 9 -22504510.149 9
  21871346.582    21871349.535    40843951.957 9 -43758199.664 9
  24603619.817    24603625.149    85602425.748 8 -92489558.975 9
  24532888.947    24532891.049   -15831966.322 9   1354453.063 8
 86  6 17  4  3 29.0800000  0  4G12G13G 9G 7
  21179777.523    21179780.366    11742782.786 9 -22495687.782 9
  21873201.448    21873203.860    40853700.909 9 -43750603.077 9
  24608338.292    24608343.105    85627216.439 7 -92470241.592 9
  24531433.508    24531435.366   -15839613.812 9   1348493.996 9
 86  6 17  4  3 35.0800000  0  4G12G13G 9G 7
  21181935.526    21181938.604    11754127.180 9 -22486847.995 8
  21875057.528    21875059.909    40863451.790 9 -43743004.977 9
  24613055.086    24613060.570    85652006.376 8 -92450924.780 8
  24529981.863    24529983.879   -15847241.436 9   1342550.392 9
 86  6 17  4  3 41.0800000  0  4G12G13G 9G 7
  21184099.103    21184102.404    11765493.848 9 -22477990.848 9
  21876913.246    21876916.094    40873204.724 9 -43735405.292 9
  24617773.607    24617777.877    85676795.518 9 -92431608.582 8
  24528534.258    24528535.951   -15854850.087 9   1336621.583 8
 86  6 17  4  3 47.0800000  0  4G12G13G 9G 7
  21186266.189    21186269.848    11776882.840 9 -22469116.308 8
  21878768.976    21878772.824    40882959.609 9 -43727804.082 9
  24622490.565    24622495.470    85701583.901 7 -92412292.975 7
  24527088.652    24527092.253   -15862438.166 9   1330708.795 8
 86  6 17  4  3 53.0800000  0  4G12G13G 9G 7
  21188437.981    21188442.098    11788294.164 9 -22460224.390 9
  21880626.080    21880628.727    40892716.510 9 -43720201.292 9
  24627206.729    24627211.684    85726371.342 8 -92392978.097 9
                  24525652.383                     1324816.675 9
 86  6 17  4  3 59.0800000  0  4G12G13G 9G 7
  21190613.362    21190616.843    11799727.731 9 -22451315.107 9
  21882483.096    21882486.546    40902475.376 9 -43712596.978 9
  24631923.861    24631928.842    85751157.994 7 -92373663.838 9
  24524217.214    24524221.226   -15906355.820 9   1318950.658 8
 86  6 17  4  4  5.0800000  0  4G12G13G 9G 7
  21192794.133    21192797.396    11811183.570 9 -22442388.480 9
  21884339.535    21884342.917    40912236.135 9 -43704991.183 9
  24636640.011    24636645.380    85775943.726 7 -92354350.291 7
  24522791.212    24522794.505   -15913847.526 9   1313112.947 9
 86  6 17  4  4 11.0800000  0  4G12G13G 9G 7
  21194977.531    21194982.444    11822661.679 9 -22433444.495 9
  21886198.210    21886201.219    40921998.816 9 -43697383.905 9
  24641357.278    24641361.881    85800728.582 8 -92335037.441 7
  24521371.796    24521375.540   -15921305.492 9   1307301.550 9
 86  6 17  4  4 17.0800000  0  4G12G13G 9G 7
  21197166.364    21197170.486    11834161.998 9 -22424483.210 8
  21888056.427    21888058.928    40931763.479 9 -43689775.068 9
  24646071.691    24646079.129    85825512.437 8 -92315725.362 8
  24519958.821    24519961.966   -15928734.109 9   1301513.030 9
 86  6 17  4  4 23.0800000  0  4G12G13G 9G 7
  21199359.963    21199363.201    11845684.539 9 -22415504.614 9
  21889915.248    21889917.318    40941530.108 9 -43682164.709 9
  24650787.570    24650794.818    85850295.364 6 -92296414.000 8
  24518549.515    24518552.002   -15936137.576 9   1295744.095 9
 86  6 17  4  4 29.0800000  0  4G12G13G 9G 7
  21201555.761    21201560.126    11857229.335 9 -22406508.679 8
  21891773.907    21891776.311    40951298.612 9 -43674552.880 9
  24655504.915    24655510.233    85875077.354 7 -92277103.366 8
  24517145.730    24517148.408   -15943519.071 9   1289992.293 9
 86  6 17  4  4 35.0800000  0  4G12G13G 9G 7
  21203757.483    21203760.849    11868796.230 9 -22397495.519 8
  21893632.758    21893635.121    40961069.053 9 -43666939.539 9
  24660218.846    24660225.258    85899858.262 7 -92257793.598 7
  24515744.364    24515747.594   -15950880.506 9   1284256.116 9
 86  6 17  4  4 41.0800000  0  4G12G13G 9G 7
  21205963.825    21205966.363    11880385.213 9 -22388465.143 9
  21895493.175    21895495.324    40970841.431 9 -43659324.702 9
  24664934.870    24664940.446    85924638.195 7 -92238484.579 8
  24514347.551    24514350.750   -15958222.961 9   1278534.724 9
 86  6 17  4  4 47.0800000  0  4G12G13G 9G 7
  21208172.159    21208175.328    11891996.296 9 -22379417.551 9
  21897353.224    21897355.115    40980615.664 9 -43651708.414 8
  24669651.773    24669656.251    85949416.877 7 -92219176.526 7
  24512955.072    24512956.288   -15965544.432 9   1272829.684 9
 86  6 17  4  4 53.0800000  0  4G12G13G 9G 7
  21210386.003    21210389.987    11903629.531 9 -22370352.698 8
  21899214.064    21899214.571    40990391.762 9 -43644090.668 8
  24674365.570    24674370.420    85974194.698 6 -92199869.146 7
                  24511568.529                     1267145.840 8
 86  6 17  4  4 59.0800000  0  4G12G13G 9G 7
  21212604.125    21212608.280    11915284.880 9 -22361270.616 9
  21901073.954    21901075.995    41000169.844 9 -43636471.383 9
  24679081.890    24679085.789    85998971.269 7 -92180562.751 7
  24510184.841    24510185.726   -16009206.019 9   1261488.476 9
 86  6 17  4  5  5.0800000  0  4G12G13G 9G 7
  21214826.138    21214829.448    11926962.225 8 -22352171.394 9
  21902935.046    21902937.907    41009949.846 9 -43628850.591 9
  24683794.776    24683801.543    86023746.767 7 -92161257.183 6
  24508811.031    24508812.147   -16016429.838 9   1255859.512 9
 86  6 17  4  5 11.0800000  0  4G12G13G 9G 7
  21217053.032    21217056.000    11938661.624 9 -22343054.985 8
  21904797.174    21904799.244    41019731.698 9 -43621228.379 8
  24688509.277    24688514.145    86048521.067 7 -92141952.536 7
  24507443.420    24507444.019   -16023619.877 9   1250256.897 9
 86  6 17  4  5 17.0800000  0  4G12G13G 9G 7
  21219283.008    21219286.212    11950383.076 8 -22333921.392 8
  21906658.307    21906660.556    41029515.355 9 -43613604.733 9
  24693223.038    24693229.803    86073294.195 8 -92122648.831 7
  24506079.714    24506081.314   -16030780.814 9   1244676.947 9
 86  6 17  4  5 23.0800000  0  4G12G13G 9G 7
  21221517.557    21221521.377    11962126.543 9 -22324770.646 9
  21908519.647    21908523.667    41039300.942 9 -43605979.602 9
  24697937.452    24697943.268    86098066.239 7 -92103345.949 7
  24504721.952    24504723.474   -16037916.748 9   1239116.487 9
 86  6 17  4  5 29.0800000  0  4G12G13G 9G 7
  21223757.227    21223760.540    11973892.009 8 -22315602.742 9
  21910382.856    21910385.726    41049088.447 9 -43598352.980 9
  24702651.460    24702656.188    86122836.908 6 -92084044.155 7
  24503368.198    24503369.578   -16045030.705 9   1233573.139 9
 86  6 17  4  5 35.0800000  0  4G12G13G 9G 7
  21225999.825    21226003.500    11985679.503 8 -22306417.679 9
  21912245.729    21912249.015    41058877.794 9 -43590724.911 9
  24707365.026    24707368.835    86147606.408 7 -92064743.262 8
  24502018.841    24502020.327   -16052124.643 9   1228045.403 8
 86  6 17  4  5 41.0800000  0  4G12G13G 9G 7
  21228246.565    21228249.271    11997488.951 9 -22297215.524 9
  21914108.970    21914111.576    41068669.024 9 -43583095.386 9
  24712077.206    24712083.233    86172374.521 7 -92045443.446 7
  24500671.897    24500673.312   -16059199.324 9   1222532.667 9
 86  6 17  4  5 47.0800000  0  4G12G13G 9G 7
  21230497.624    21230501.520    12009320.262 8 -22287996.323 8
  21915972.529    21915975.359    41078462.071 9 -43575464.435 9
  24716791.083    24716796.631    86197141.407 8 -92026144.589 7
  24499328.808    24499330.907   -16066252.586 9   1217036.620 9
 86  6 17  4  5 53.0800000  0  4G12G13G 9G 7
  21232753.681    21232757.006    12021173.471 9 -22278760.060 8
  21917835.949    21917839.729    41088256.922 9 -43567832.085 9
  24721503.976    24721508.991    86221907.004 7 -92006846.726 8
                  24497994.950                     1211562.261 8
 86  6 17  4  5 59.0800000  0  4G12G13G 9G 7
  21235013.635    21235017.980    12033048.502 9 -22269506.789 8
  21919701.174    21919702.978    41098053.581 9 -43560198.316 9
  24726216.901    24726221.899    86246671.163 7 -91987550.004 8
  24496662.125    24496663.973   -16109640.261 9   1206114.541 9
 86  6 17  4  6  5.0800000  0  4G12G13G 9G 7
  21237277.720    21237280.452    12044945.421 9 -22260236.456 9
  21921565.369    21921567.469    41107852.111 9 -43552563.096 8
  24730928.125    24730933.202    86271433.961 7 -91968254.337 8
  24495338.456    24495340.565   -16116594.876 9   1200695.368 9
 86  6 17  4  6 11.0800000  0  4G12G13G 9G 7
  21239545.359    21239548.457    12056864.292 9 -22250949.024 8
  21923430.429    21923433.212    41117652.460 9 -43544926.467 9
  24735638.667    24735646.054    86296195.370 7 -91948959.773 9
  24494020.858    24494023.919   -16123515.797 9   1195302.443 8
 86  6 17  4  6 17.0800000  0  4G12G13G 9G 7
  21241818.072    21241821.183    12068804.998 9 -22241644.578 9
  21925295.966    21925298.047    41127454.679 9 -43537288.368 9
  24740351.959    24740356.812    86320955.322 8 -91929666.305 8
  24492709.886    24492712.535   -16130407.674 9   1189932.156 8
 86  6 17  4  6 23.0800000  0  4G12G13G 9G 7
  21244093.989    21244097.548    12080767.534 9 -22232323.133 8
  21927161.656    21927163.312    41137258.735 9 -43529648.839 9
  24745064.940    24745068.715    86345713.901 8 -91910373.949 8
  24491402.848    24491406.608   -16137274.651 9   1184581.265 9
 86  6 17  4  6 29.0800000  0  4G12G13G 9G 7
  21246374.601    21246378.727    12092751.869 8 -22222984.681 9
  21929027.708    21929030.312    41147064.551 9 -43522007.942 9
  24749775.114    24749779.416    86370470.912 7 -91891082.787 8
  24490101.063    24490103.041   -16144119.642 9   1179247.516 9
 86  6 17  4  6 35.0800000  0  4G12G13G 9G 7
  21248659.467    21248662.348    12104757.926 9 -22213629.313 8
  21930893.169    21930895.406    41156872.195 9 -43514365.615 9
  24754485.736    24754490.486    86395226.427 6 -91871792.806 9
  24488802.159    24488804.523   -16150944.795 9   1173929.213 8
 86  6 17  4  6 41.0800000  0  4G12G13G 9G 7
  21250948.474    21250951.317    12116785.762 9 -22204256.984 9
  21932760.499    21932762.440    41166681.642 9 -43506721.894 9
  24759197.031    24759201.258    86419980.466 7 -91852503.961 9
  24487507.681    24487509.026   -16157750.547 9   1168626.030 9
 86  6 17  4  6 47.0800000  0  4G12G13G 9G 7
  21253241.013    21253245.148    12128835.312 9 -22194867.730 8
  21934626.940    21934630.163    41176492.895 9 -43499076.756 9
  24763907.511    24763912.162    86444732.993 7 -91833216.313 8
  24486216.248    24486218.202   -16164534.627 9   1163339.745 8
 86  6 17  4  6 53.0800000  0  4G12G13G 9G 7
  21255538.902    21255542.061    12140906.618 9 -22185461.513 8
  21936494.839    21936497.166    41186306.005 9 -43491430.182 9
  24768615.711    24768621.319    86469483.875 7 -91813929.943 9
                  24484932.436                     1158075.395 9
 86  6 17  4  6 59.0800000  0  4G12G13G 9G 7
  21257839.742    21257843.508    12152999.638 9 -22176038.393 8
  21938361.999    21938365.062    41196120.917 9 -43483782.198 9
  24773327.063    24773332.443    86494233.152 7 -91794644.822 9
  24483649.998    24483654.672   -16207657.608 9   1152838.194 9
 86  6 17  4  7  5.0800000  0  4G12G13G 9G 7
  21260145.485    21260147.764    12165114.278 9 -22166598.405 9
  21940230.130    21940232.724    41205937.651 9 -43476132.789 9
  24778035.597    24778040.363    86518980.780 8 -91775360.983 8
  24482379.688    24482382.455   -16214342.043 9   1147629.554 9
 86  6 17  4  7 11.0800000  0  4G12G13G 9G 7
  21262454.296    21262458.701    12177250.639 9 -22157141.498 7
  21942098.771    21942101.355    41215756.203 9 -43468481.974 9
  24782745.835    24782750.202    86543726.820 8 -91756078.427 7
  24481114.451    24481117.363   -16220993.087 9   1142446.933 8
 86  6 17  4  7 17.0800000  0  4G12G13G 9G 7
  21264767.726    21264771.074    12189408.617 9 -22147667.759 7
  21943968.085    21943970.093    41225576.558 9 -43460829.741 9
  24787453.511    24787456.905    86568471.142 7 -91736797.169 8
  24479853.944    24479855.324   -16227615.195 9   1137286.844 8
 86  6 17  4  7 23.0800000  0  4G12G13G 9G 7
  21267085.017    21267089.489    12201588.220 9 -22138177.163 8
  21945836.586    21945839.409    41235398.742 9 -43453176.096 9
  24792162.319    24792167.306    86593213.917 7 -91717517.045 9
  24478598.750    24478599.828   -16234212.391 9   1132146.186 9
 86  6 17  4  7 29.0800000  0  4G12G13G 9G 7
  21269407.791    21269409.273    12213789.455 9 -22128669.703 8
  21947705.735    21947708.169    41245222.704 9 -43445521.057 9
  24796870.043    24796875.306    86617954.870 8 -91698238.402 9
  24477347.868    24477349.350   -16240787.561 9   1127022.673 9
 86  6 17  4  7 35.0800000  0  4G12G13G 9G 7
  21271733.893    21271736.035    12226012.224 9 -22119145.476 9
  21949575.836    21949578.139    41255048.348 9 -43437864.722 9
  24801577.281    24801582.440    86642694.088 8 -91678961.104 8
  24476100.917    24476102.137   -16247342.723 9   1121914.764 8
 86  6 17  4  7 41.0800000  0  4G12G13G 9G 7
  21274063.643    21274066.672    12238256.588 9 -22109604.422 7
  21951447.020    21951448.986    41264875.707 9 -43430207.031 9
  24806284.104    24806290.233    86667431.521 8 -91659685.200 9
  24474856.809    24474858.163   -16253878.338 9   1116822.081 8
 86  6 17  4  7 47.0800000  0  4G12G13G 9G 7
  21276397.362    21276400.662    12250522.518 9 -22100046.546 8
  21953317.047    21953319.053    41274704.779 9 -43422548.012 9
  24810992.568    24810997.294    86692167.175 8 -91640410.684 9
  24473616.241    24473618.309   -16260391.920 9   1111746.560 9
 86  6 17  4  7 53.0800000  0  4G12G13G 9G 7
  21278736.084    21278738.723    12262809.909 9 -22090471.962 8
  21955187.541    21955189.943    41284535.621 9 -43414887.607 9
  24815698.991    24815704.090    86716901.018 8 -91621137.590 9
                  24472383.999                     1106693.550 9
 86  6 17  4  7 59.0800000  0  4G12G13G 9G 7
  21281078.589    21281080.972    12275118.748 9 -22080880.664 8
  21957057.740    21957060.817    41294368.264 9 -43407225.812 9
  24820405.443    24820410.441    86741633.073 8 -91601865.858 9
  24471154.824    24471155.358   -16303242.255 9   1101667.853 9
 86  6 17  4  8  5.0800000  0  4G12G13G 9G 7
  21283424.679    21283426.061    12287449.041 9 -22071272.644 8
  21958930.025    21958931.776    41304202.576 9 -43399562.711 9
  24825111.063    24825116.621    86766363.235 9 -91582595.614 9
  24469934.997    24469936.366   -16309655.464 9   1096670.561 8
 86  6 17  4  8 11.0800000  0  4G12G13G 9G 7
  21285775.631    21285778.225    12299800.835 9 -22061647.866 9
  21960802.080    21960803.159    41314038.696 9 -43391898.204 9
  24829816.944    24829821.242    86791091.466 9 -91563326.874 8
  24468720.300    24468721.744   -16316035.140 9   1091699.385 9
 86  6 17  4  8 17.0800000  0  4G12G13G 9G 7
  21288129.597    21288132.500    12312174.046 9 -22052006.402 8
  21962673.688    21962675.322    41323876.541 9 -43384232.354 9
  24834522.313    24834526.941    86815817.841 8 -91544059.588 8
  24467511.856    24467514.912   -16322386.074 9   1086750.607 9
 86  6 17  4  8 23.0800000  0  4G12G13G 9G 7
  21290488.174    21290491.286    12324568.713 9 -22042348.218 8
  21964545.422    21964548.671    41333716.041 9 -43376565.203 9
  24839226.440    24839231.843    86840542.234 9 -91524793.843 9
  24466307.503    24466309.823   -16328712.344 9   1081821.048 9
 86  6 17  4  8 29.0800000  0  4G12G13G 9G 7
  21292851.921    21292853.537    12336984.782 9 -22032673.372 8
  21966418.737    21966421.401    41343557.249 9 -43368896.724 9
  24843931.972    24843936.847    86865264.725 9 -91505529.579 9
  24465107.618    24465110.437   -16335016.508 9   1076908.717 9
 86  6 17  4  8 35.0800000  0  4G12G13G 9G 7
  21295217.624    21295221.239    12349422.156 9 -22022981.908 8
  21968292.093    21968293.275    41353400.132 9 -43361226.946 9
  24848635.989    24848641.052    86889985.141 8 -91486266.933 8
  24463911.788    24463914.641   -16341300.742 9   1072011.911 8
 86  6 17  4  8 41.0800000  0  4G12G13G 9G 7
  21297588.493    21297590.929    12361880.911 9 -22013273.790 8
  21970164.753    21970166.669    41363244.799 9 -43353555.775 9
  24853339.214    24853344.580    86914703.680 9 -91467005.746 8
  24462720.443    24462722.618   -16347565.233 9   1067130.484 9
 86  6 17  4  8 47.0800000  0  3G12G13G 7
  21299963.377    21299965.995    12374360.938 8 -22003549.090 8
  21972039.426    21972040.788    41373091.153 9 -43345883.282 8
  24461532.476    24461535.225   -16353807.247 9   1062266.571 8
 86  6 17  4  8 53.0800000  0  3G12G13G 7
  21302341.717    21302345.276    12386862.390 8 -21993807.703 9
  21973913.241    21973915.213    41382939.251 9 -43338209.449 9
                  24460352.681                     1057425.594 8
 86  6 17  4  8 59.0800000  0  3G12G13G 7
  21304724.678    21304729.306    12399385.251 9 -21984049.646 8
  21975788.106    21975788.767    41392789.139 9 -43330534.216 9
  24459174.557    24459177.884   -16396388.931 9   1052612.282 8
 86  6 17  4  9  5.0800000  0  3G12G13G 7
  21307111.890    21307115.392    12411929.291 9 -21974275.072 8
  21977661.408    21977664.244    41402640.594 9 -43322857.759 9
  24458006.276    24458007.594   -16402529.619 9   1047827.324 8
 86  6 17  4  9 11.0800000  0  3G12G13G 7
  21309503.523    21309506.313    12424494.564 8 -21964483.935 8
  21979537.517    21979539.870    41412493.656 9 -43315180.051 9
  24456844.923    24456846.413   -16408637.193 9   1043068.184 7
 86  6 17  4  9 17.0800000  0  3G12G13G 7
  21311898.460    21311902.111    12437081.220 9 -21954676.157 8
  21981412.365    21981414.374    41422348.660 9 -43307500.827 8
  24455687.365    24455690.150   -16414716.297 9   1038331.229 8
 86  6 17  4  9 23.0800000  0  3G12G13G 7
  21314297.422    21314300.406    12449689.115 9 -21944851.829 8
  21983286.878    21983290.069    41432205.370 9 -43299820.272 8
  24454536.123    24454538.239   -16420770.800 9   1033613.441 8
 86  6 17  4  9 29.0800000  0  3G12G13G 7
  21316701.145    21316704.251    12462317.975 9 -21935011.172 8
  21985163.956    21985165.970    41442063.564 9 -43292138.554 8
  24453388.890    24453389.500   -16426803.418 9   1028912.692 9
 86  6 17  4  9 35.0800000  0  3G12G13G 7
  21319109.312    21319111.603    12474967.987 9 -21925154.014 8
  21987040.522    21987041.784    41451923.556 9 -43284455.446 8
  24452244.269    24452246.070   -16432815.896 9   1024227.642 9
 86  6 17  4  9 41.0800000  0  3G12G13G 7
  21321519.839    21321521.671    12487639.248 8 -21915280.309 8
  21988916.612    21988919.889    41461785.231 9 -43276771.023 8
  24451103.692    24451105.334   -16438808.581 9   1019558.023 8
 86  6 17  4  9 47.0800000  0  3G12G13G 7
  21323934.175    21323937.405    12500331.544 9 -21905390.200 9
  21990793.841    21990795.881    41471648.406 9 -43269085.429 9
  24449967.580    24449970.537   -16444778.538 9   1014906.110 8
 86  6 17  4  9 53.0800000  0  3G12G13G 7
  21326353.198    21326358.064    12513044.929 9 -21895483.674 9
  21992671.154    21992672.904    41481513.178 9 -43261398.599 9
                  24448839.213                     1010277.580 9
 86  6 17  4  9 59.0800000  0  3G12G13G 7
  21328776.737    21328781.585    12525779.486 8 -21885560.637 8
  21994548.670    21994551.300    41491379.650 9 -43253710.432 9
  24447713.173    24447715.384   -16487084.397 9   1005677.128 9
 86  6 17  4 10  5.0800000  0  3G12G13G 7
  21331202.555    21331208.312    12538535.040 9 -21875621.255 8
  21996426.170    21996428.528    41501247.859 9 -43246020.925 9
  24446597.074    24446597.777   -16492951.806 9   1001105.128 9
 86  6 17  4 10 11.0800000  0  3G12G13G 7
  21333635.059    21333638.905    12551311.488 8 -21865665.580 8
  21998303.908    21998307.508    41511117.591 9 -43238330.217 9
  24445486.208    24445488.664   -16498786.333 9    996558.750 9
 86  6 17  4 10 17.0800000  0  3G12G13G 7
  21336071.228    21336075.019    12564109.091 9 -21855693.432 9
  22000183.040    22000185.429    41520989.049 9 -43230638.182 9
  24444382.642    24444383.835   -16504592.360 9    992034.570 9
 86  6 17  4 10 23.0800000  0  3G12G13G 7
  21338510.900    21338514.131    12576927.712 9 -21845704.902 8
  22002061.856    22002063.477    41530862.191 9 -43222944.815 8
  24443280.680    24443283.377   -16510373.789 9    987529.549 8
 86  6 17  4 10 29.0800000  0  3G12G13G 7
  21340953.486    21340958.124    12589767.182 8 -21835700.111 9
  22003940.596    22003942.995    41540736.799 9 -43215250.323 8
  24442184.580    24442186.851   -16516133.274 9    983041.646 9
 86  6 17  4 10 35.0800000  0  3G12G13G 7
  21343401.282    21343404.072    12602627.662 8 -21825678.960 8
  22005819.979    22005822.570    41550613.048 9 -43207554.545 9
  24441092.708    24441095.117   -16521872.670 9    978569.386 8
 86  6 17  4 10 41.0800000  0  3G12G13G 7
  21345852.553    21345855.763    12615509.260 9 -21815641.344 8
  22007699.229    22007701.824    41560491.180 9 -43199857.295 9
  24440004.236    24440007.309   -16527591.965 9    974112.800 8
 86  6 17  4 10 47.0800000  0  3G12G13G 7
  21348307.757    21348311.360    12628411.763 8 -21805587.464 8
  22009580.126    22009581.607    41570370.767 9 -43192158.913 8
  24438920.114    24438921.327   -16533287.892 9    969674.418 8
 86  6 17  4 10 53.0800000  0  3G12G13G 7
  21350766.293    21350768.912    12641335.087 9 -21795517.332 8
  22011460.449    22011462.463    41580251.800 9 -43184459.416 9
                  24437844.935                      965259.710 8
 86  6 17  4 10 59.0800000  0  3G12G13G 7
  21353229.497    21353233.497    12654279.457 8 -21785430.826 9
  22013340.811    22013343.618    41590134.554 9 -43176758.573 9
  24436770.710    24436773.407   -16575325.032 9    960873.402 9
 86  6 17  4 11  5.0800000  0  3G12G13G 7
  21355696.181    21355699.912    12667244.671 9 -21775328.058 9
  22015221.008    22015223.819    41600018.938 9 -43169056.446 9
  24435707.049    24435709.551   -16580917.611 9    956515.550 9
 86  6 17  4 11 11.0800000  0  3G12G13G 7
  21358168.499    21358171.225    12680230.588 8 -21765209.160 8
  22017103.268    22017104.584    41609904.886 9 -43161353.122 8
  24434649.807    24434650.517   -16586478.051 9    952183.129 9
 86  6 17  4 11 17.0800000  0  3G12G13G 7
  21360642.795    21360646.493    12693237.379 9 -21755074.003 8
  22018984.257    22018986.638    41619792.443 9 -43153648.514 9
  24433597.069    24433598.244   -16592009.639 9    947872.803 9
 86  6 17  4 11 23.0800000  0  3G12G13G 7
  21363121.503    21363125.339    12706265.077 9 -21744922.564 8
  22020866.262    22020868.846    41629681.766 9 -43145942.551 9
  24432548.861    24432551.241   -16597516.760 9    943581.540 9
 86  6 17  4 11 29.0800000  0  3G12G13G 7
  21365605.137    21365609.478    12719313.437 8 -21734755.001 8
  22022748.823    22022751.788    41639572.544 9 -43138235.456 8
  24431504.874    24431506.472   -16603002.169 9    939307.193 8
 86  6 17  4 11 35.0800000  0  3G12G13G 7
  21368093.219    21368095.578    12732382.489 8 -21724571.331 9
  22024631.135    22024633.086    41649464.851 9 -43130527.160 8
  24430465.149    24430466.587   -16608467.457 9    935048.525 9
 86  6 17  4 11 41.0800000  0  3G12G13G 7
  21370583.051    21370587.105    12745472.377 9 -21714371.425 9
  22026513.745    22026516.438    41659358.871 9 -43122817.541 9
  24429428.440    24429429.846   -16613912.381 9    930805.727 9
 86  6 17  4 11 47.0800000  0  3G12G13G 7
  21373077.208    21373081.303    12758582.955 9 -21704155.387 8
  22028397.220    22028399.230    41669254.429 9 -43115106.711 9
  24428396.782    24428399.267   -16619333.631 9    926581.376 9
 86  6 17  4 11 53.0800000  0  3G12G13G 7
  21375577.004    21375579.417    12771714.092 9 -21693923.337 8
  22030279.889    22030282.857    41679151.462 9 -43107394.722 9
                  24427373.228                      922380.964 8
 86  6 17  4 11 59.0800000  0  3G12G13G 7
  21378079.968    21378083.378    12784865.969 9 -21683675.131 8
  22032163.407    22032166.079    41689050.216 9 -43099681.420 9
  24426351.045    24426354.239   -16661098.620 9    918209.050 9
 86  6 17  4 12  5.0800000  0  3G12G13G 7
  21380586.660    21380590.776    12798038.553 9 -21673410.783 8
  22034047.947    22034050.131    41698950.539 9 -43091966.865 9
  24425339.416    24425343.047   -16666415.910 9    914065.714 8
 86  6 17  4 12 11.0800000  0  3G12G13G 7
  21383096.889    21383101.244    12811231.658 9 -21663130.441 8
  22035931.745    22035933.959    41708852.272 9 -43084251.239 9
  24424333.856    24424338.247   -16671700.239 9    909947.664 9
 86  6 17  4 12 17.0800000  0  3G12G13G 7
  21385612.039    21385613.760    12824445.372 9 -21652834.043 8
  22037815.502    22037818.062    41718755.495 9 -43076534.441 8
  24423334.064    24423336.747   -16676957.177 9    905851.357 8
 86  6 17  4 12 23.0800000  0  3G12G13G 7
  21388130.290    21388133.310    12837679.842 9 -21642521.467 7
  22039700.075    22039703.990    41728660.439 9 -43068816.302 9
  24422338.889    24422340.981   -16682189.596 9    901774.144 8
 86  6 17  4 12 29.0800000  0  3G12G13G 7
  21390651.978    21390654.689    12850934.808 9 -21632192.923 8
  22041585.952    22041587.956    41738566.903 9 -43061096.982 9
  24421347.021    24421349.055   -16687400.190 9    897713.938 9
 86  6 17  4 12 35.0800000  0  3G12G13G 7
  21393178.404    21393180.954    12864210.188 9 -21621848.470 8
  22043470.728    22043473.506    41748474.797 9 -43053376.540 9
  24420359.467    24420361.721   -16692590.852 9    893669.288 9
 86  6 17  4 12 41.0800000  0  3G12G13G 7
  21395709.055    21395710.292    12877506.207 9 -21611487.943 7
  22045357.699    22045360.419    41758384.368 8 -43045654.790 9
  24419376.312    24419378.023   -16697761.079 9    889640.527 8
 86  6 17  4 12 47.0800000  0  3G12G13G 7
  21398243.176    21398245.175    12890822.776 9 -21601111.402 8
  22047243.283    22047245.723    41768295.427 9 -43037931.884 9
  24418396.704    24418398.250   -16702906.959 9    885630.761 8
 86  6 17  4 12 53.0800000  0  3G12G13G 7
  21400780.973    21400784.324    12904159.646 9 -21590719.035 8
  22049130.637    22049132.345    41778207.863 9 -43030207.906 8
                  24417425.305                      881645.404 8
 86  6 17  4 12 59.0800000  0  3G12G13G 7
  21403321.974    21403325.669    12917517.026 9 -21580310.683 8
  22051016.216    22051018.325    41788121.844 9 -43022482.732 8
  24416457.419    24416458.453   -16744399.282 9    877688.703 8
 86  6 17  4 13  5.0800000  0  3G12G13G 7
  21405869.526    21405871.965    12930894.967 9 -21569886.318 8
  22052903.601    22052905.776    41798037.560 9 -43014756.183 9
  24415498.181    24415498.733   -16749440.563 9    873760.430 9
 86  6 17  4 13 11.0800000  0  3G12G13G 7
  21408417.669    21408420.430    12944293.207 9 -21559446.124 8
  22054790.037    22054792.992    41807954.693 9 -43007028.546 9
  24414544.815    24414546.670   -16754449.432 9    869857.412 9
 86  6 17  4 13 17.0800000  0  3G12G13G 7
  21410971.415    21410973.251    12957711.757 9 -21548990.119 8
  22056677.522    22056678.326    41817873.274 9 -42999299.783 8
  24413596.582    24413598.007   -16759430.541 9    865976.043 9
 86  6 17  4 13 23.0800000  0  3G12G13G 7
  21413528.062    21413532.305    12971150.792 9 -21538518.141 7
  22058565.374    22058567.918    41827793.566 9 -42991569.683 9
  24412653.718    24412655.505   -16764387.371 9    862113.568 8
 86  6 17  4 13 29.0800000  0  3G12G13G 7
  21416088.741    21416092.736    12984610.150 9 -21528030.340 8
  22060452.649    22060455.998    41837715.390 9 -42983838.387 9
  24411714.636    24411716.322   -16769322.317 9    858268.162 8
 86  6 17  4 13 35.0800000  0  3G12G13G 7
  21418654.894    21418658.405    12998089.652 9 -21517526.842 9
  22062341.248    22062343.701    41847638.590 9 -42976106.020 8
  24410779.178    24410780.865   -16774237.304 9    854438.305 8
 86  6 17  4 13 41.0800000  0  3G12G13G 7
  21421222.610    21421227.138    13011589.501 9 -21507007.479 8
  22064229.890    22064231.994    41857563.309 9 -42968372.463 8
  24409847.686    24409850.377   -16779131.782 9    850624.422 8
 86  6 17  4 13 47.0800000  0  3G12G13G 7
  21423795.920    21423799.099    13025109.710 9 -21496472.242 8
  22066117.631    22066121.959    41867489.580 9 -42960637.720 8
                  24408922.357                      846829.834 8
 86  6 17  4 13 53.0800000  0  3G12G13G 7
  21426372.234    21426376.477    13038650.061 8 -21485921.322 8
  22068007.323    22068010.291    41877417.093 9 -42952901.995 9
  24407929.893    24408003.228   -16820408.596 9    843059.975 8
 86  6 17  4 13 59.0800000  0  3G12G13G 7
  21428953.374    21428955.712    13052210.643 9 -21475354.635 8
  22069898.179    22069899.951    41887346.081 9 -42945165.109 9
  24407087.017    24407088.933   -16825209.262 9    839319.110 9
 86  6 17  4 14  5.0800000  0  3G12G13G 7
  21431537.141    21431540.725    13065791.600 9 -21464772.080 7
  22071787.173    22071789.315    41897276.649 9 -42937427.003 8
  24406180.712    24406181.621   -16829973.561 9    835606.676 8
 86  6 17  4 14 11.0800000  0  3G12G13G 7
  21434125.612    21434129.021    13079392.655 9 -21454173.862 8
  22073678.355    22073677.877    41907208.616 9 -42929687.819 8
  24405279.536    24405281.276   -16834705.741 9    831919.272 9
 86  6 17  4 14 17.0800000  0  3G12G13G 7
  21436717.235    21436719.681    13093013.741 9 -21443560.022 8
  22075568.003    22075569.894    41917141.955 9 -42921947.546 9
  24404385.037    24404386.850   -16839410.261 9    828253.408 9
 86  6 17  4 14 23.0800000  0  3G12G13G 7
  21439313.327    21439316.271    13106655.095 9 -21432930.401 8
  22077458.729    22077460.241    41927076.930 9 -42914206.007 9
  24403493.500    24403496.223   -16844090.544 9    824606.441 8
 86  6 17  4 14 29.0800000  0  3G12G13G 7
  21441913.930    21441917.013    13120316.589 9 -21422285.078 8
  22079349.412    22079351.322    41937013.443 9 -42906463.264 9
  24402607.960    24402609.178   -16848749.053 9    820976.438 8
 86  6 17  4 14 35.0800000  0  3G12G13G 7
  21444517.269    21444520.809    13133998.023 9 -21411624.218 7
  22081240.398    22081243.248    41946951.266 9 -42898719.496 8
  24401724.682    24401726.839   -16853387.539 9    817362.032 8
 86  6 17  4 14 41.0800000  0  3G12G13G 7
  21447124.883    21447127.016    13147699.588 9 -21400947.682 9
  22083132.077    22083133.870    41956890.593 9 -42890974.576 9
  24400846.288    24400846.288   -16858005.225 9    813763.846 8
 86  6 17  4 14 47.0800000  0  3G12G13G 7
  21449735.300    21449737.961    13161421.364 9 -21390255.374 7
  22085023.729    22085026.568    41966831.633 9 -42883228.302 9
                  24399973.817                      810185.352 8
 86  6 17  4 14 53.0800000  0  3G12G13G 7
  21452351.111    21452353.449    13175163.055 9 -21379547.570 8
  22086916.084    22086917.570    41976774.079 9 -42875480.939 8
  24399106.691    24399106.099   -16899004.736 9    806632.021 9
 86  6 17  4 14 59.0800000  0  3G12G13G 7
  21454969.918    21454971.636    13188924.627 9 -21368824.270 9
  22088808.065    22088810.160    41986717.850 9 -42867732.542 9
  24398244.222    24398245.132   -16903527.664 9    803107.677 7
 86  6 17  4 15  5.0800000  0  3G12G13G 7
  21457591.325    21457593.857    13202706.378 9 -21358085.250 8
  22090699.778    22090702.237    41996663.187 9 -42859982.933 9
  24397389.835    24397391.682   -16908014.205 9    799611.662 8
 86  6 17  4 15 11.0800000  0  3G12G13G 7
  21460218.022    21460221.284    13216508.120 9 -21347330.639 8
  22092592.003    22092594.497    42006610.025 9 -42852232.155 9
  24396542.867    24396543.691   -16912468.653 9    796140.673 8
 86  6 17  4 15 17.0800000  0  3G12G13G 7
  21462848.881    21462851.800    13230329.652 8 -21336560.611 8
  22094485.409    22094488.231    42016558.145 8 -42844480.360 9
  24395700.578    24395701.320   -16916895.800 9    792690.946 8
 86  6 17  4 15 23.0800000  0  3G12G13G 7
  21465481.720    21465484.641    13244171.185 9 -21325775.006 8
  22096379.140    22096381.510    42026507.797 9 -42836727.381 9
  24394863.061    24394862.827   -16921298.779 9    789260.060 8
 86  6 17  4 15 29.0800000  0  3G12G13G 7
  21468118.883    21468124.231    13258032.802 9 -21314973.752 9
  22098272.458    22098274.536    42036459.023 8 -42828973.175 8
  24394027.966    24394029.100   -16925679.864 9    785846.228 9
 86  6 17  4 15 35.0800000  0  3G12G13G 7
  21470761.504    21470764.993    13271914.224 9 -21304157.071 8
  22100166.805    22100170.045    42046411.460 9 -42821218.023 8
  24393198.130    24393199.888   -16930040.990 9    782447.957 9
 86  6 17  4 15 41.0800000  0  3G12G13G 7
  21473406.338    21473410.925    13285815.485 9 -21293324.933 8
  22102060.656    22102062.613    42056365.224 9 -42813461.844 8
  24392372.106    24392372.988   -16934381.243 9    779065.933 8
 86  6 17  4 15 47.0800000  0  3G12G13G 7
  21476055.685    21476060.029    13299736.667 9 -21282477.252 8
  22103954.953    22103957.219    42066320.699 9 -42805704.332 9
                  24391553.297                      775704.087 8
 86  6 17  4 15 53.0800000  0  3G12G13G 7
  21478708.788    21478712.982    13313677.573 9 -21271614.211 9
  22105849.798    22105851.882    42076277.576 9 -42797945.728 8
  24390722.290    24390736.985   -16975113.612 9    772367.746 8
 86  6 17  4 15 59.0800000  0  3G12G13G 7
  21481365.622    21481368.883    13327638.047 9 -21260735.923 8
  22107744.790    22107747.975    42086235.711 9 -42790186.134 8
  24389929.134    24389930.384   -16979358.009 9    769060.538 8
 86  6 17  4 16  5.0800000  0  3G12G13G 7
  21484025.982    21484029.658    13341618.393 9 -21249842.154 8
  22109639.841    22109643.177    42096195.275 9 -42782425.431 8
  24389128.182    24389130.896   -16983566.169 9    765781.453 8
 86  6 17  4 16 11.0800000  0  3G12G13G 7
  21486690.648    21486694.543    13355618.555 9 -21238932.941 8
  22111535.113    22111538.045    42106156.297 9 -42774663.599 9
  24388333.048    24388336.257   -16987742.827 9    762527.299 8
 86  6 17  4 16 17.0800000  0  3G12G13G 7
  21489359.516    21489362.806    13369638.355 9 -21228008.438 8
  22113431.884    22113433.212    42116118.555 9 -42766900.795 9
  24387543.228    24387544.953   -16991891.799 9    759294.349 9
 86  6 17  4 16 23.0800000  0  3G12G13G 7
  21492030.870    21492033.811    13383677.840 9 -21217068.571 8
  22115326.959    22115329.616    42126082.261 9 -42759136.856 8
  24386757.585    24386761.647   -16996016.644 9    756080.180 8
 86  6 17  4 16 29.0800000  0  3G12G13G 7
  21494705.908    21494708.228    13397737.064 9 -21206113.334 8
  22117223.704    22117225.812    42136047.509 9 -42751371.729 9
  24385977.716    24385980.610   -17000119.648 9    752883.037 9
 86  6 17  4 16 35.0800000  0  3G12G13G 7
  21497385.468    21497386.651    13411815.861 9 -21195142.844 7
  22119119.205    22119122.158    42146014.058 9 -42743605.584 8
  24385200.278    24385203.993   -17004202.441 9    749701.648 8
 86  6 17  4 16 41.0800000  0  3G12G13G 7
  21500068.847    21500070.413    13425914.238 9 -21184157.084 8
  22121017.410    22121019.465    42155981.868 9 -42735838.472 8
  24384427.238    24384429.974   -17008264.325 9    746536.544 8
 86  6 17  4 16 47.0800000  0  3G12G13G 7
  21502754.899    21502755.987    13440032.347 9 -21173155.978 8
  22122913.664    22122917.219    42165951.180 9 -42728070.165 9
                  24383661.768                      743392.079 8
 86  6 17  4 16 53.0800000  0  3G12G13G 7
  21505444.900    21505448.544    13454170.126 9 -21162139.523 8
  22124811.811    22124814.217    42175921.884 9 -42720300.774 9
  24382897.962    24382900.915   -17048713.401 8    740273.550 9
 86  6 17  4 16 59.0800000  0  3G12G13G 7
  21508138.788    21508140.506    13468327.286 9 -21151107.970 8
  22126709.135    22126711.868    42185893.868 9 -42712530.394 9
  24382144.419    24382146.436   -17052678.156 9    737184.081 9
 86  6 17  4 17  5.0800000  0  3G12G13G 7
  21510836.669    21510837.739    13482504.072 9 -21140061.130 8
  22128607.621    22128610.595    42195867.298 9 -42704758.887 8
  24381396.446    24381398.218   -17056606.491 9    734122.662 9
 86  6 17  4 17 11.0800000  0  3G12G13G 7
  21513538.228    21513539.661    13496700.474 9 -21128998.993 8
  22130506.117    22130508.120    42205842.248 9 -42696986.190 9
  24380654.897    24380657.137   -17060503.565 9    731085.987 9
 86  6 17  4 17 17.0800000  0  3G12G13G 7
  21516243.710    21516246.567    13510916.271 9 -21117921.751 9
  22132404.205    22132405.827    42215818.390 9 -42689212.586 9
  24379919.298    24379920.724   -17064373.620 9    728070.342 9
 86  6 17  4 17 23.0800000  0  3G12G13G 7
  21518951.153    21518954.826    13525151.439 9 -21106829.424 9
  22134302.402    22134305.858    42225795.875 9 -42681437.908 9
  24379187.707    24379189.032   -17068219.759 9    725073.349 8
 86  6 17  4 17 29.0800000  0  3G12G13G 7
  21521663.477    21521667.107    13539406.162 9 -21095721.860 8
  22136201.637    22136203.574    42235774.858 9 -42673662.080 9
  24378459.138    24378460.840   -17072044.160 9    722093.317 9
 86  6 17  4 17 35.0800000  0  3G12G13G 7
  21524379.447    21524383.453    13553680.313 9 -21084599.136 8
  22138100.551    22138103.021    42245755.143 8 -42665885.239 9
  24377734.943    24377737.263   -17075848.275 9    719129.061 9
 86  6 17  4 17 41.0800000  0  3G12G13G 7
  21527101.276    21527103.505    13567973.670 9 -21073461.466 8
  22139999.378    22140002.241    42255736.601 9 -42658107.463 9
  24377015.368    24377016.582   -17079631.195 9    716181.342 8
 86  6 17  4 17 47.0800000  0  3G12G13G 7
  21529824.221    21529826.040    13582286.489 9 -21062308.621 8
  22141899.833    22141902.379    42265719.524 9 -42650328.566 8
                  24376301.958                      713254.342 8
 86  6 17  4 17 53.0800000  0  3G12G13G 7
  21532550.802    21532554.004    13596618.693 9 -21051140.667 9
  22143799.407    22143802.258    42275703.821 9 -42642548.588 9
  24375592.967    24375593.802   -17119805.703 9    710353.537 8
 86  6 17  4 17 59.0800000  0  3G12G13G 7
  21535282.214    21535285.007    13610970.112 9 -21039957.753 9
  22145699.667    22145702.036    42285689.301 9 -42634767.697 9
  24374890.726    24374891.797   -17123490.691 9    707482.136 9
 86  6 17  4 18  5.0800000  0  3G12G13G 7
  21538017.668    21538020.520    13625340.844 9 -21028759.789 8
  22147600.014    22147602.104    42295676.173 8 -42626985.718 9
  24374195.089    24374198.983   -17127140.420 8    704638.579 8
 86  6 17  4 18 11.0800000  0  3G12G13G 7
  21540755.344    21540758.021    13639730.975 9 -21017546.701 9
  22149501.479    22149503.554    42305664.513 9 -42619202.585 9
  24373506.894    24373508.692   -17130758.071 9    701819.641 7
 86  6 17  4 18 17.0800000  0  3G12G13G 7
  21543497.635    21543499.973    13654140.322 9 -21006318.641 8
  22151402.350    22151404.313    42315654.199 9 -42611418.417 9
  24372823.878    24372826.034   -17134348.767 9    699021.695 8
 86  6 17  4 18 23.0800000  0  3G12G13G 7
  21546242.003    21546246.138    13668568.798 9 -20995075.671 8
  22153303.341    22153306.256    42325645.113 9 -42603633.285 9
  24372145.414    24372147.162   -17137915.768 9    696242.218 8
 86  6 17  4 18 29.0800000  0  3G12G13G 7
  21548993.019    21548995.875    13683016.563 9 -20983817.682 9
  22155204.993    22155207.651    42335637.444 9 -42595847.050 9
  24371471.793    24371473.014   -17141460.876 9    693479.808 8
 86  6 17  4 18 35.0800000  0  3G12G13G 7
  21551745.580    21551748.944    13697483.564 9 -20972544.698 9
  22157106.350    22157109.308    42345631.151 9 -42588059.743 9
  24370800.272    24370802.126   -17144985.631 9    690733.244 8
 86  6 17  4 18 41.0800000  0  3G12G13G 7
  21554501.894    21554505.133    13711969.594 9 -20961256.897 9
  22159008.808    22159011.457    42355626.092 9 -42580271.480 9
  24370133.308    24370135.318   -17148488.952 9    688003.378 9
 86  6 17  4 18 47.0800000  0  3G12G13G 7
  21557261.757    21557264.710    13726474.826 9 -20949954.115 8
  22160910.614    22160913.206    42365622.383 9 -42572482.153 9
                  24369473.870                      685294.498 8
 86  6 17  4 18 53.0800000  0  3G12G13G 7
  21560026.489    21560029.008    13740999.309 9 -20938636.345 7
  22162813.996    22162815.756    42375620.087 9 -42564691.734 9
  24368816.007    24368818.274   -17188385.033 8    682612.314 7
 86  6 17  4 18 59.0800000  0  3G12G13G 7
  21562795.097    21562796.701    13755542.754 9 -20927303.796 8
  22164715.589    22164718.582    42385618.972 9 -42556900.393 9
  24368170.375    24368171.202   -17191789.375 9    679959.556 8
 86  6 17  4 19  5.0800000  0  3G12G13G 7
  21565565.556    21565568.397    13770105.200 9 -20915956.445 8
  22166618.753    22166622.002    42395619.095 9 -42549108.090 9
  24367528.190    24367530.301   -17195157.596 9    677334.574 9
 86  6 17  4 19 11.0800000  0  3G12G13G 7
  21568339.369    21568342.604    13784686.793 9 -20904594.172 9
  22168522.485    22168524.437    42405620.709 9 -42541314.625 8
  24366893.432    24366895.480   -17198495.003 9    674733.997 8
 86  6 17  4 19 17.0800000  0  3G12G13G 7
  21571118.827    21571120.816    13799287.425 9 -20893217.059 8
  22170425.643    22170428.682    42415623.642 9 -42533520.128 9
  24366263.523    24366266.003   -17201805.559 9    672154.357 8
 86  6 17  4 19 23.0800000  0  3G12G13G 7
  21573901.307    21573903.759    13813906.903 9 -20881825.263 8
  22172329.869    22172332.463    42425627.734 9 -42525724.729 9
  24365638.182    24365639.145   -17205092.434 9    669593.156 9
 86  6 17  4 19 29.0800000  0  3G12G13G 7
  21576686.558    21576689.026    13828545.414 9 -20870418.618 8
  22174233.634    22174237.032    42435633.223 9 -42517928.241 8
  24365016.494    24365018.101   -17208357.795 9    667048.717 8
 86  6 17  4 19 35.0800000  0  3G12G13G 7
  21579474.606    21579477.598    13843203.027 9 -20858997.117 9
  22176138.210    22176140.173    42445640.094 9 -42510130.672 9
  24364398.911    24364400.989   -17211602.824 9    664520.113 9
 86  6 17  4 19 41.0800000  0  3G12G13G 7
  21582268.537    21582271.326    13857879.410 9 -20847560.974 8
  22178042.618    22178044.280    42455648.142 9 -42502332.197 9
  24363785.254    24363788.009   -17214826.263 9    662008.347 9
 86  6 17  4 19 47.0800000  0  3G12G13G 7
  21585065.044    21585067.230    13872574.668 9 -20836110.122 9
  22179947.213    22179949.149    42465657.438 9 -42494532.737 8
                  24363179.445                      659517.991 9
 86  6 17  4 19 53.0800000  0  3G12G13G 7
  21587864.073    21587867.459    13887288.986 9 -20824644.427 8
  22181851.881    22181854.520    42475668.159 9 -42486732.174 8
  24362574.493    24362578.544   -17254439.043 8    657054.618 8
 86  6 17  4 19 59.0800000  0  3G12G13G 7
  21590667.816    21590670.605    13902022.121 9 -20813164.069 8
  22183756.642    22183759.789    42485680.095 9 -42478930.670 9
  24361982.246    24361983.919   -17257562.643 9    654620.645 8
 86  6 17  4 20  5.0800000  0  3G12G13G 7
  21593475.320    21593477.910    13916773.994 9 -20801669.106 8
  22185662.970    22185664.657    42495693.210 9 -42471128.230 8
  24361393.318    24361395.676   -17260651.380 9    652214.237 9
 86  6 17  4 20 11.0800000  0  3G12G13G 7
  21596285.928    21596288.533    13931544.802 8 -20790159.389 8
  22187568.287    22187570.642    42505707.657 9 -42463324.762 9
  24360812.210    24360815.170   -17263708.406 9    649832.133 9
 86  6 17  4 20 17.0800000  0  3G12G13G 7
  21599100.235    21599102.155    13946334.403 9 -20778635.027 9
  22189473.758    22189476.030    42515723.476 9 -42455520.222 9
  24360235.749    24360238.039   -17266738.741 9    647470.833 9
 86  6 17  4 20 23.0800000  0  3G12G13G 7
  21601917.588    21601921.726    13961142.620 9 -20767096.164 8
  22191380.485    22191382.433    42525740.440 9 -42447714.797 8
  24359662.888    24359665.799   -17269745.520 9    645127.902 9
 86  6 17  4 20 29.0800000  0  3G12G13G 7
  21604739.736    21604741.946    13975969.542 9 -20755542.712 8
  22193286.760    22193288.526    42535758.675 9 -42439908.378 9
  24359095.325    24359096.452   -17272730.958 9    642801.571 9
 86  6 17  4 20 35.0800000  0  3G12G13G 7
  21607564.898    21607567.788    13990815.324 9 -20743974.569 8
  22195193.160    22195196.113    42545778.307 9 -42432100.873 8
  24358531.029    24358533.416   -17275695.862 9    640491.269 8
 86  6 17  4 20 41.0800000  0  3G12G13G 7
  21610393.552    21610396.439    14005679.770 9 -20732391.884 8
  22197100.553    22197102.120    42555799.163 9 -42424292.411 9
  24357970.963    24357972.228   -17278638.796 9    638198.074 8
 86  6 17  4 20 47.0800000  0  3G12G13G 7
  21613225.643    21613228.447    14020562.852 9 -20720794.680 8
  22199007.493    22199009.914    42565821.194 9 -42416483.037 9
                  24357419.422                      635926.543 8
 86  6 17  4 20 53.0800000  0  3G12G13G 7
  21616061.794    21616064.193    14035464.693 9 -20709182.851 8
  22200914.644    22200916.746    42575844.573 9 -42408672.608 9
  24356867.595    24356872.707   -17317979.145 9    633682.230 7
 86  6 17  4 20 59.0800000  0  3G12G13G 7
  21618901.073    21618903.284    14050385.076 9 -20697556.579 8
  22202822.718    22202824.710    42585869.187 9 -42400861.224 9
  24356327.257    24356328.443   -17320821.258 9    631467.585 8
 86  6 17  4 21  5.0800000  0  3G12G13G 7
  21621743.999    21621746.236    14065323.939 9 -20685915.909 9
  22204730.190    22204732.240    42595894.974 9 -42393048.916 9
  24355793.429    24355794.657   -17323628.159 9    629280.389 8
 86  6 17  4 21 11.0800000  0  3G12G13G 7
  21624589.970    21624593.021    14080281.449 9 -20674260.717 9
  22206638.693    22206640.262    42605922.069 9 -42385235.594 9
  24355265.409    24355266.052   -17326404.149 9    627117.293 8
 86  6 17  4 21 17.0800000  0  3G12G13G 7
  21627439.682    21627442.815    14095257.631 9 -20662590.967 8
  22208547.843    22208549.320    42615950.459 9 -42377421.264 9
  24354742.454    24354744.307   -17329153.526 9    624974.919 8
 86  6 17  4 21 23.0800000  0  3G12G13G 7
  21630293.246    21630295.545    14110252.236 9 -20650906.864 8
  22210455.963    22210457.445    42625979.951 8 -42369606.075 9
  24354224.175    24354224.286   -17331879.391 9    622850.880 9
 86  6 17  4 21 29.0800000  0  3G12G13G 7
  21633149.737    21633153.648    14125265.247 9 -20639208.421 9
  22212364.686    22212366.538    42636010.691 9 -42361789.916 9
  24353708.434    24353709.264   -17334583.929 9    620743.445 9
 86  6 17  4 21 35.0800000  0  3G12G13G 7
  21636009.826    21636013.245    14140296.832 9 -20627495.496 9
  22214273.970    22214277.134    42646042.810 9 -42353972.682 9
  24353197.765    24353199.612   -17337267.988 9    618651.970 9
 86  6 17  4 21 41.0800000  0  3G12G13G 7
  21638874.121    21638877.871    14155346.807 9 -20615768.250 8
  22216183.204    22216185.563    42656076.234 9 -42346154.426 8
  24352691.251    24352692.712   -17339929.724 9    616577.877 8
 86  6 17  4 21 47.0800000  0  3G12G13G 7
  21641741.376    21641743.809    14170415.121 9 -20604026.714 9
  22218092.961    22218094.180    42666110.799 9 -42338335.283 9
                  24352190.517                      614525.749 9
 86  6 17  4 21 53.0800000  0  3G12G13G 7
  21644612.835    21644615.778    14185501.945 9 -20592270.737 9
  22220002.268    22220004.372    42676146.668 9 -42330515.128 8
  24351695.347    24351697.589   -17378989.091 9    612501.128 9
 86  6 17  4 21 59.0800000  0  3G12G13G 7
  21647486.378    21647490.343    14200607.240 9 -20580500.387 8
  22221912.714    22221913.819    42686183.883 9 -42322693.915 9
  24351208.263    24351211.014   -17381549.524 9    610505.962 8
 86  6 17  4 22  5.0800000  0  3G12G13G 7
  21650364.847    21650368.579    14215730.754 9 -20568715.839 8
  22223822.094    22223823.878    42696222.165 9 -42314871.883 9
  24350727.798    24350729.733   -17384074.443 9    608538.105 9
 86  6 17  4 22 11.0800000  0  3G12G13G 7
  21653246.277    21653249.336    14230872.595 9 -20556917.011 8
  22225732.602    22225734.877    42706261.622 9 -42307048.931 9
  24350252.569    24350254.676   -17386569.322 9    606594.036 9
 86  6 17  4 22 17.0800000  0  3G12G13G 7
  21656130.973    21656134.125    14246032.919 9 -20545103.777 9
  22227643.013    22227646.344    42716302.462 9 -42299224.896 9
  24349782.309    24349784.164   -17389037.768 9    604670.569 8
 86  6 17  4 22 23.0800000  0  3G12G13G 7
  21659019.918    21659022.104    14261211.408 9 -20533276.387 8
  22229553.517    22229556.176    42726344.387 9 -42291400.012 9
  24349317.350    24349320.192   -17391482.703 9    602765.429 8
 86  6 17  4 22 29.0800000  0  3G12G13G 7
  21661911.454    21661914.049    14276408.012 9 -20521434.885 9
  22231465.285    22231466.968    42736387.428 9 -42283574.270 9
  24348856.648    24348859.381   -17393906.226 9    600876.964 8
 86  6 17  4 22 35.0800000  0  3G12G13G 7
  21664807.139    21664810.517    14291622.997 8 -20509579.049 8
  22233376.689    22233379.397    42746431.785 9 -42275747.510 8
  24348399.610    24348402.267   -17396309.193 9    599004.527 9
 86  6 17  4 22 41.0800000  0  3G12G13G 7
  21667705.736    21667708.958    14306856.318 9 -20497708.937 7
  22235287.138    22235289.926    42756477.372 9 -42267919.772 9
  24347946.430    24347947.521   -17398689.595 9    597149.667 9
 86  6 17  4 22 47.0800000  0  3G12G13G 7
  21670606.801    21670610.973    14322107.613 8 -20485824.814 9
  22237199.379    22237201.915    42766524.044 9 -42260091.199 8
                  24347501.321                      595317.022 8
 86  6 17  4 22 53.0800000  0  3G12G13G 7
  21673513.882    21673516.602    14337377.071 9 -20473926.534 8
  22239111.505    22239113.726    42776572.037 9 -42252261.599 9
  24347058.323    24347061.723   -17437474.372 9    593512.012 9
 86  6 17  4 22 59.0800000  0  3G12G13G 7
  21676423.161    21676425.250    14352664.780 9 -20462014.034 9
  22241024.241    22241025.845    42786621.309 9 -42244430.992 8
  24346625.118    24346626.695   -17439752.793 9    591736.657 8
